GFSGBSN_700_spd_000.txt.gz
Wind_Speed
13 12 13 12 12 12 10 9 7 6 6 7 8 9 10 12 15 17 18 20 20 18 20 19 20 20 17 15 12 17 15 12 12 12 9 9 8 8 9 14 14 14 13 12 9 8 7
9 10 9 9 8 7 6 5 3 3 4 6 8 10 13 15 18 20 23 22 20 21 19 19 19 18 16 10 9 16 16 12 11 7 8 8 9 7 13 20 12 14 12 8 5 5 6
7 8 5 4 3 4 2 1 1 4 7 9 13 15 17 20 22 24 24 22 20 16 16 17 16 15 16 11 8 17 13 10 7 6 5 7 11 13 18 13 12 11 6 5 4 7 8
6 5 3 1 1 1 3 4 6 9 12 14 17 19 21 23 25 24 24 20 15 14 14 14 14 13 14 10 8 11 11 9 6 10 9 11 11 9 10 9 10 7 6 5 3 5 3
6 6 4 5 5 6 8 10 12 15 16 18 21 23 24 24 24 24 20 16 14 14 15 14 13 11 10 6 6 7 8 9 9 9 10 8 7 4 5 5 5 5 3 3 4 5 3
7 7 7 8 8 9 12 14 15 18 19 21 22 24 24 23 24 23 19 17 16 16 15 14 12 8 8 7 6 8 10 10 11 10 8 4 2 2 2 2 3 3 4 3 2 5 5
9 9 9 10 11 13 13 15 16 17 19 20 22 23 22 22 23 21 20 19 18 17 14 10 10 10 10 9 8 8 8 11 10 8 6 5 3 4 2 2 3 3 3 2 3 5 1
11 10 11 11 11 13 14 15 16 17 17 19 20 20 20 21 21 18 19 19 15 18 17 15 13 11 10 8 9 8 10 11 10 8 7 3 3 3 3 1 2 3 2 1 3 3 1
12 11 12 11 12 12 14 15 16 17 18 18 19 19 20 21 20 19 20 16 15 16 15 14 13 14 13 9 7 9 9 9 10 8 7 6 7 4 3 4 4 5 1 3 4 5 4
13 11 11 11 11 12 13 14 15 16 18 17 18 18 19 20 20 21 21 18 17 15 8 8 6 6 8 9 8 9 8 8 9 9 11 6 5 2 4 4 4 2 5 8 7 4 6
14 12 11 10 11 12 13 14 14 15 16 16 17 18 18 19 20 20 20 19 19 8 3 8 8 6 6 5 7 7 7 8 8 8 5 3 2 3 4 5 7 3 10 8 6 6 4
15 13 12 11 10 11 13 14 15 15 16 17 18 19 20 20 21 21 19 18 15 2 3 6 7 8 5 9 9 9 7 6 6 5 4 2 0 2 5 8 5 8 8 2 2 3 5
16 14 12 11 10 11 12 14 14 15 17 17 18 19 21 22 21 20 16 16 6 3 12 8 10 9 7 11 11 10 8 4 4 3 3 4 2 3 4 5 5 9 2 2 2 4 1
18 15 14 12 11 12 12 13 13 15 17 18 19 19 20 22 18 18 17 17 4 9 8 15 14 11 8 11 11 9 11 12 9 8 5 3 2 3 6 4 3 8 7 3 3 2 5
19 17 15 13 12 13 13 14 13 15 17 18 18 18 19 18 19 20 20 7 4 12 16 18 13 6 7 6 6 6 9 11 9 8 4 3 2 3 6 4 5 3 4 4 2 3 3
21 18 16 14 12 13 14 15 14 15 18 18 18 17 19 21 21 21 14 7 13 14 19 17 7 7 6 6 4 4 3 5 7 9 7 4 2 2 3 3 3 2 2 2 3 3 4
23 19 18 16 13 12 14 16 15 15 17 18 18 18 21 20 20 19 10 8 18 19 16 15 8 9 9 7 5 5 4 4 4 4 5 4 1 2 2 1 2 2 1 1 1 1 3
24 22 19 17 15 12 13 16 17 16 17 17 17 14 21 20 18 18 12 15 17 18 15 12 10 7 10 8 6 5 4 4 0 3 2 5 2 1 3 4 5 5 3 2 2 2 5
26 23 21 18 17 14 13 15 17 18 17 17 15 15 19 18 15 17 14 17 18 17 14 12 11 9 9 9 5 6 4 2 3 5 4 6 2 2 1 3 5 4 4 7 9 6 10
28 25 22 20 18 16 13 13 16 18 18 18 15 13 17 18 14 13 15 17 18 16 12 11 10 10 9 8 5 5 3 2 5 5 6 5 4 4 6 7 8 9 10 10 10 10 13
29 26 23 20 19 17 15 14 15 16 17 17 16 14 18 20 16 14 14 16 17 16 13 13 12 10 9 8 6 3 2 4 5 7 4 5 6 11 11 13 17 16 14 14 18 18 16
32 28 25 23 21 20 18 16 15 16 15 16 16 12 17 12 15 15 16 18 16 15 15 13 11 10 8 6 4 3 2 4 6 6 7 10 8 14 16 14 14 18 22 12 6 12 15
33 30 27 25 23 21 20 18 17 16 16 15 15 11 15 14 17 18 17 17 16 12 12 11 10 9 7 6 4 1 2 5 7 8 9 10 8 9 7 11 22 12 4 6 12 11 13
34 31 28 25 23 23 21 20 18 16 15 15 14 12 15 17 18 17 15 13 14 13 11 12 11 8 7 4 1 1 1 4 6 5 6 8 10 9 8 14 3 5 17 21 13 10 11
36 33 30 27 25 23 22 20 19 16 15 14 16 16 15 15 17 16 14 14 14 13 11 10 9 8 6 2 2 1 2 2 5 8 6 6 8 6 3 5 20 11 3 9 11 17 20
36 35 33 29 26 24 22 21 20 18 16 14 14 17 18 16 17 15 14 13 13 13 12 11 10 8 5 4 2 2 2 5 3 6 4 7 10 10 8 5 5 3 17 19 15 15 14
36 35 33 31 28 25 24 23 21 19 17 16 15 15 15 15 12 15 14 13 13 14 13 11 11 9 8 6 6 4 5 6 4 5 7 12 13 13 11 10 12 15 13 10 9 13 30
33 34 34 32 29 26 25 24 22 20 18 17 17 16 15 13 11 12 12 12 12 14 14 12 12 14 11 9 6 6 7 8 9 12 13 12 7 9 7 8 8 6 16 21 26 33 35
31 32 33 33 31 28 26 25 24 22 20 19 18 17 15 14 10 12 13 13 14 16 16 16 16 10 10 8 8 7 10 14 15 13 15 13 11 14 13 18 21 27 27 28 28 31 34

GFSGBSN_700_spd_006.txt.gz
Wind_Speed
25 25 26 27 26 25 24 24 21 17 15 13 12 13 13 13 13 13 13 13 14 14 15 15 16 20 17 11 6 12 11 12 12 10 10 5 8 7 9 9 9 4 4 6 7 9 8
23 24 24 24 23 22 21 20 15 13 11 11 11 11 12 12 13 14 14 15 15 15 15 15 17 20 10 3 8 12 15 12 6 3 3 7 3 3 6 8 7 7 6 8 7 5 4
22 23 22 21 19 18 16 13 9 8 7 8 10 13 13 12 14 16 17 17 15 14 14 14 18 18 4 1 7 9 13 6 9 6 4 10 7 7 4 5 5 9 9 6 5 4 2
20 21 20 17 16 13 12 6 4 5 6 9 11 11 15 17 18 20 20 17 15 13 13 13 14 12 4 6 9 15 8 1 2 2 3 6 13 4 1 7 7 8 8 8 8 7 6
19 18 16 14 12 10 7 3 4 7 8 10 12 15 19 21 23 23 20 18 16 14 13 13 13 6 1 4 9 14 14 7 4 7 10 12 11 4 4 8 8 8 11 8 7 7 4
17 16 14 12 10 8 5 5 8 10 12 15 17 21 25 27 26 23 20 17 16 15 13 9 10 3 4 6 10 10 10 12 5 6 8 4 5 8 8 7 5 13 8 5 5 6 3
17 14 13 12 9 8 8 8 11 14 16 19 22 25 28 28 25 22 20 18 17 16 12 6 5 2 2 5 10 9 13 11 8 4 5 3 5 4 4 6 7 7 5 4 9 1 7
17 15 14 13 11 11 11 11 12 14 17 20 22 26 28 25 23 25 19 11 12 12 8 9 5 10 9 11 6 5 11 6 4 6 3 3 3 2 2 5 5 4 4 5 3 7 4
18 16 16 15 14 13 13 13 14 15 17 20 22 26 25 22 23 24 12 12 16 16 9 8 9 5 12 8 6 6 11 3 4 3 3 5 4 1 3 3 4 2 3 3 4 5 9
19 17 17 17 16 15 15 14 14 16 17 18 20 23 23 19 20 18 16 21 16 18 7 3 3 1 3 6 4 5 11 9 4 5 6 3 2 4 2 2 4 3 2 5 7 8 10
20 19 18 18 18 17 17 15 15 16 17 17 19 22 23 19 18 13 17 22 17 9 4 6 4 7 6 3 5 3 7 8 3 4 3 4 3 3 1 3 2 4 10 6 7 9 10
22 20 18 18 19 18 18 17 17 17 17 17 18 21 23 20 22 20 21 23 11 2 3 4 4 7 6 4 3 4 5 9 10 6 6 4 2 0 3 4 5 6 8 8 6 8 5
23 21 18 17 18 19 18 19 19 18 18 19 20 21 24 23 19 19 19 17 1 3 6 4 10 8 5 7 9 5 6 5 1 4 3 6 4 4 5 4 4 8 7 6 3 5 2
24 21 18 17 16 17 18 19 20 20 19 20 21 23 25 21 20 19 18 9 5 3 5 8 11 11 7 6 5 8 7 7 5 2 7 8 6 3 6 5 5 6 5 4 4 5 5
24 21 19 17 15 15 17 18 19 20 20 20 21 21 22 22 19 20 20 8 1 1 7 10 12 8 5 4 7 8 9 4 5 7 6 1 5 3 7 4 6 6 6 2 2 3 3
24 21 18 16 15 15 15 17 19 20 21 20 20 19 20 20 21 20 13 8 3 4 6 11 8 5 6 6 7 6 3 3 3 5 6 2 4 2 5 8 9 7 4 4 5 2 3
24 21 19 15 14 15 16 16 18 20 20 20 20 16 15 20 21 22 8 6 6 9 11 12 6 6 5 7 5 5 3 4 5 3 7 8 4 1 5 5 5 3 3 3 3 1 2
25 22 19 16 15 15 17 15 18 21 22 20 18 8 9 21 21 18 8 8 8 9 15 12 7 7 7 7 6 4 7 5 3 6 2 4 5 4 3 5 1 3 2 2 1 1 3
26 22 21 17 15 15 17 16 18 21 22 23 12 8 12 22 13 16 12 8 8 9 8 6 5 7 8 7 4 8 6 5 3 5 7 6 1 1 6 2 3 2 1 3 4 6 8
27 24 22 19 16 16 18 18 19 22 24 21 10 8 21 26 9 16 9 9 13 13 13 8 7 6 8 6 4 7 4 5 5 2 4 4 2 2 1 5 8 9 10 10 12 11 13
29 25 22 20 17 17 17 19 19 23 27 21 9 8 21 27 13 12 12 9 11 14 8 9 7 6 8 6 7 6 5 2 2 2 4 3 3 2 4 7 8 11 13 13 15 16 18
30 27 23 21 19 17 17 18 21 21 22 19 8 8 17 7 17 11 14 12 13 9 9 11 7 9 8 7 4 7 6 3 1 3 2 1 2 7 9 2 7 14 17 16 16 16 14
32 28 25 22 21 19 18 17 19 20 19 15 15 12 14 17 13 14 15 11 13 16 13 9 11 13 14 13 16 17 15 12 8 3 3 2 3 7 2 12 15 3 4 2 4 7 10
34 30 27 24 22 21 19 18 18 18 19 19 17 13 14 13 15 14 10 12 15 13 11 11 13 18 21 13 10 10 8 7 6 7 5 3 3 5 6 8 2 1 13 13 14 11 9
35 32 29 26 23 21 20 19 18 17 16 14 13 14 14 14 14 13 13 14 16 15 15 18 16 18 11 11 9 5 5 4 5 5 4 2 3 3 2 4 14 9 6 5 7 15 12
35 33 30 27 25 22 21 19 17 16 15 14 14 14 12 12 18 13 14 19 20 20 21 16 16 13 14 13 11 7 5 4 5 4 6 5 5 5 6 2 4 3 7 14 19 16 14
35 33 32 29 26 24 21 20 17 16 14 13 13 14 14 12 13 15 17 20 16 17 14 15 15 15 16 15 13 9 6 8 6 8 5 7 8 11 8 7 9 10 13 13 8 10 17
36 34 32 30 27 25 22 20 18 17 15 15 13 13 14 14 11 18 18 16 16 13 15 15 16 17 18 16 12 11 9 10 12 7 7 6 5 6 5 6 9 7 9 12 15 21 32
37 36 33 31 29 27 23 21 19 19 18 17 16 14 13 13 9 15 19 18 19 18 17 17 11 13 12 11 14 10 11 11 13 8 8 10 14 10 11 9 10 20 20 28 32 29 33

GFSGBSN_700_spd_009.txt.gz
Wind_Speed
25 24 25 26 28 26 27 26 29 28 26 22 19 17 14 13 13 11 12 11 12 12 13 14 17 21 13 10 8 11 11 10 9 13 14 13 9 5 4 3 5 9 5 5 3 13 15
24 22 23 25 25 24 24 24 26 24 20 17 16 12 12 11 10 11 13 12 13 15 15 17 23 19 9 7 7 14 17 9 7 5 5 7 6 10 8 15 10 6 4 4 8 10 14
24 23 22 22 21 21 21 21 21 18 15 13 12 12 13 11 12 13 14 16 16 16 16 18 23 15 3 6 6 9 13 8 10 9 2 7 8 9 6 15 11 9 7 4 8 4 6
23 22 20 20 16 18 17 16 15 13 10 10 9 9 11 15 16 18 19 19 17 16 16 20 21 9 4 3 12 13 13 11 12 7 9 16 13 8 3 8 8 11 12 14 10 8 6
22 21 18 17 14 14 12 11 10 7 8 7 9 12 15 20 23 23 22 20 19 18 19 20 15 5 5 5 10 19 15 11 8 9 6 16 10 6 6 8 12 12 14 16 14 6 6
23 18 16 14 12 11 8 8 6 6 8 10 14 20 22 27 26 24 22 20 19 19 19 17 11 2 5 4 12 14 13 12 13 12 14 17 12 6 5 8 4 4 10 21 18 14 11
22 16 15 13 13 8 7 7 7 10 12 17 21 27 29 28 26 25 22 21 19 18 12 6 2 10 5 2 8 12 14 16 15 10 7 4 6 9 7 6 5 2 9 21 17 12 5
20 17 16 14 13 10 10 9 11 13 17 21 27 30 29 26 25 28 21 16 7 9 8 9 9 10 10 11 5 11 14 12 10 5 2 4 8 6 6 2 4 3 5 13 10 6 2
20 18 17 16 14 12 13 13 14 16 20 24 29 29 26 25 28 16 12 16 17 13 10 10 7 10 15 9 11 16 18 11 5 0 8 5 5 7 8 1 8 7 3 2 2 3 1
20 20 18 18 16 15 15 15 16 18 19 23 28 27 24 24 23 9 17 19 20 15 6 7 5 9 10 8 3 13 13 11 5 12 7 3 5 8 5 2 3 1 1 5 8 3 3
23 22 19 20 18 18 18 17 18 18 18 21 25 25 21 20 21 14 18 19 19 6 3 7 7 5 11 6 5 7 11 10 4 6 5 7 5 6 4 3 3 2 7 5 5 5 7
25 23 20 21 20 19 19 19 20 19 20 20 22 24 21 19 20 18 17 20 11 3 3 5 5 7 7 6 4 4 13 9 9 6 6 3 2 0 1 8 11 8 9 6 6 5 3
26 23 22 21 20 20 20 20 21 20 21 20 21 24 23 21 20 19 23 12 2 2 9 5 12 8 8 9 9 9 10 9 6 7 11 10 5 8 5 5 4 5 8 2 1 1 2
27 23 22 21 20 20 20 21 21 21 21 21 21 23 23 20 19 20 22 9 2 5 4 9 11 11 6 7 13 6 9 8 11 6 12 8 3 2 7 6 4 11 7 5 2 1 5
26 24 23 20 19 19 20 22 22 22 22 21 22 22 22 22 18 21 21 6 3 5 10 9 13 11 7 7 8 8 4 3 6 4 7 10 5 6 7 12 6 6 9 8 3 4 3
28 24 22 20 18 18 20 22 23 23 23 22 21 20 21 22 20 21 18 8 2 7 4 13 13 11 9 8 9 4 1 2 5 4 8 9 7 4 10 10 11 9 7 4 3 2 2
28 25 22 20 18 18 20 22 24 24 24 22 21 20 20 21 21 23 17 7 4 13 14 14 10 8 8 9 6 8 4 6 7 6 7 12 6 7 5 5 5 5 2 3 0 2 4
29 25 22 19 18 18 20 22 23 24 25 23 20 16 14 21 23 24 15 3 9 10 14 14 7 11 8 12 7 7 12 7 7 10 8 8 9 9 5 5 3 1 1 1 1 1 3
29 25 23 20 18 18 20 21 23 25 25 24 22 12 11 22 23 23 9 8 7 8 12 12 14 12 8 12 6 7 10 9 8 8 9 11 7 8 3 2 3 4 1 4 5 4 4
30 26 24 21 18 19 20 20 24 26 26 27 17 12 14 22 19 21 11 11 13 12 12 10 10 13 12 10 8 11 9 9 6 7 10 10 9 5 6 3 5 6 7 6 9 9 12
30 27 24 21 19 20 21 20 25 29 32 22 12 11 15 27 17 22 11 7 15 17 14 13 8 10 12 9 7 8 7 7 7 9 10 8 10 7 4 6 7 8 10 10 12 14 15
30 27 25 23 20 19 22 20 25 31 29 20 12 14 20 24 18 18 17 12 10 7 9 10 6 10 11 14 12 9 8 3 6 9 11 7 6 4 3 5 6 13 10 9 12 14 15
32 28 26 23 21 19 20 23 25 31 26 16 10 13 20 12 22 18 12 16 14 14 9 12 12 17 16 15 15 17 14 11 7 9 7 5 3 2 3 5 7 5 3 3 6 9 8
32 29 26 24 22 20 19 22 25 27 24 21 17 15 18 17 18 19 14 17 12 15 13 12 13 21 19 16 13 13 12 12 10 9 6 5 4 3 3 2 1 6 9 12 15 13 13
33 30 27 24 23 21 20 20 21 22 23 21 14 15 13 12 12 15 12 12 16 18 17 20 19 18 18 17 12 10 10 9 10 10 11 9 6 3 3 3 10 8 9 12 10 12 16
33 30 27 25 23 21 20 19 19 19 18 16 13 13 12 11 13 15 16 18 20 20 20 21 21 19 18 16 14 9 7 6 7 6 13 9 7 7 7 4 6 8 7 13 15 16 19
34 31 28 25 23 21 20 19 18 17 16 15 14 13 12 12 14 18 17 21 21 21 22 21 18 16 14 15 14 11 10 10 7 8 10 14 12 14 12 8 8 10 15 13 10 15 19
33 31 29 27 24 22 20 18 17 17 15 14 13 13 12 12 8 17 19 19 20 18 18 18 17 18 17 16 14 14 11 13 13 13 11 12 8 9 9 8 9 7 13 16 19 26 25
35 32 31 29 26 23 20 19 18 17 17 16 14 12 11 11 8 14 20 20 19 18 14 15 14 13 14 12 16 12 13 14 18 14 18 15 18 13 14 11 19 21 19 26 29 29 29

GFSGBSN_700_spd_012.txt.gz
Wind_Speed
28 28 27 27 25 25 25 25 26 27 28 27 23 19 17 14 13 12 12 11 12 13 13 16 19 20 14 10 13 14 16 10 6 10 10 5 6 8 8 7 5 17 9 8 13 19 12
26 25 25 24 24 24 23 22 24 25 24 22 18 14 13 12 11 11 11 13 14 15 17 21 24 18 12 13 15 14 11 7 4 6 3 4 5 5 7 13 11 11 8 8 10 17 13
25 25 24 24 23 23 21 20 21 21 20 17 14 11 11 11 10 12 14 15 17 18 20 21 23 13 7 11 11 9 9 8 7 4 9 6 2 2 10 12 16 10 5 7 12 10 15
25 25 25 23 22 20 19 17 17 17 15 13 9 7 9 11 15 17 18 18 18 19 21 26 18 8 8 10 13 11 11 11 9 7 9 9 4 9 8 15 11 5 4 6 5 6 7
25 24 25 21 20 18 16 13 13 13 11 7 6 9 12 16 19 20 21 20 19 19 22 24 14 8 6 13 16 19 14 13 9 9 10 13 5 11 7 8 9 9 9 13 8 8 3
25 24 24 21 19 15 11 10 9 9 7 6 10 14 17 20 24 24 23 21 20 20 23 21 9 5 4 6 14 19 15 12 13 8 12 12 7 9 4 6 6 10 14 21 19 16 11
26 25 23 20 18 12 10 9 7 8 7 11 15 20 25 26 26 25 24 22 20 18 19 11 9 7 6 3 7 15 12 15 17 17 14 8 3 3 3 5 7 0 6 14 19 14 10
28 25 23 21 16 12 11 9 8 10 12 17 22 27 28 27 26 23 24 22 23 15 8 9 8 10 8 9 9 16 16 18 18 11 3 4 6 9 10 8 7 10 17 18 16 15 8
28 26 23 21 17 14 13 12 12 14 17 22 28 29 28 27 29 19 18 19 19 15 9 9 5 7 9 10 12 20 18 17 9 2 4 10 9 11 6 5 8 11 17 16 10 6 7
29 26 25 22 20 17 17 16 16 18 23 28 30 30 29 32 20 19 22 21 17 13 7 10 6 13 12 10 6 19 17 11 4 8 9 9 10 8 5 6 5 5 5 2 3 3 10
31 28 26 23 22 21 20 19 20 22 25 31 30 29 30 28 19 23 22 24 20 10 3 10 6 9 9 6 11 19 14 9 9 9 7 7 7 5 5 2 0 3 1 2 2 3 5
32 29 27 25 24 24 23 22 22 24 26 31 29 26 28 28 21 23 22 23 17 4 3 7 8 10 11 9 10 16 13 13 8 7 8 7 2 3 4 10 7 3 4 3 1 0 2
33 30 28 27 26 25 25 24 25 25 26 29 29 27 26 27 21 21 18 17 6 2 12 12 14 12 10 12 13 16 14 16 9 10 8 8 7 7 8 8 6 1 2 3 3 2 4
33 31 30 28 27 26 26 26 26 27 26 26 29 28 24 23 22 19 20 10 3 9 9 15 17 14 15 13 12 12 12 9 10 8 15 5 3 3 5 5 5 8 6 4 4 2 3
34 32 30 28 27 26 27 28 27 28 27 26 26 26 25 22 21 22 18 7 7 10 15 17 16 12 13 11 9 11 8 9 9 10 10 7 5 11 12 9 4 4 10 6 5 3 2
35 32 31 28 26 26 27 29 28 29 28 27 25 24 25 22 20 24 19 5 5 12 14 7 19 12 9 13 11 9 4 6 11 9 11 9 9 10 8 9 10 9 6 1 3 2 2
35 33 30 27 25 25 27 29 29 30 28 27 24 23 24 23 21 24 22 7 8 12 12 13 14 9 10 11 14 10 7 7 10 10 9 13 8 9 5 3 4 3 2 3 3 1 4
35 32 29 26 24 25 27 29 30 31 30 28 24 23 24 23 23 26 25 5 9 11 15 13 10 9 17 15 14 14 9 7 8 10 14 10 11 9 7 6 5 2 2 3 2 3 3
35 33 29 26 25 25 27 29 31 32 30 28 24 21 20 24 25 26 20 7 11 9 16 15 13 13 14 14 10 6 8 8 9 9 15 14 10 9 4 5 6 4 4 4 3 5 7
35 32 28 26 24 25 27 29 30 31 31 29 28 20 21 24 25 25 14 11 10 10 14 17 14 12 14 13 12 8 10 9 10 12 12 12 14 7 9 5 6 7 7 5 7 8 11
35 31 28 26 24 27 27 28 30 32 32 31 25 18 20 26 27 28 15 10 12 15 13 14 18 14 15 15 14 14 11 12 11 13 14 11 11 9 8 9 10 11 10 12 14 14 13
34 31 29 26 25 27 26 28 32 33 35 29 20 17 14 10 22 27 18 15 10 18 15 14 10 14 15 16 15 13 10 12 10 14 15 13 10 11 10 10 9 10 12 12 13 17 20
35 31 30 27 26 27 26 28 34 37 35 26 22 16 19 23 23 24 21 13 11 9 11 11 12 14 13 12 11 9 8 7 6 10 13 12 10 9 6 11 9 10 12 7 7 11 14
35 32 31 28 26 26 26 28 35 40 32 19 20 18 19 31 25 22 19 20 13 17 11 12 12 14 16 13 12 10 10 10 9 9 11 9 9 8 5 7 1 7 10 9 10 17 21
35 33 31 29 26 25 27 27 35 36 29 17 17 18 23 19 26 21 18 19 17 15 16 13 14 13 16 14 13 12 13 14 16 16 15 13 11 7 4 8 10 10 16 15 10 13 17
35 33 31 29 27 25 25 27 29 31 28 22 17 15 15 18 19 20 22 18 20 18 17 18 19 19 17 16 16 11 8 9 6 7 17 16 15 13 9 5 6 7 12 13 12 19 11
35 33 31 29 27 25 25 25 25 27 25 21 19 16 15 14 17 20 22 18 18 19 18 20 21 20 18 18 18 16 13 10 8 10 10 17 18 18 18 11 10 16 15 15 10 12 14
35 33 31 29 27 25 24 23 23 22 20 18 17 15 14 15 15 22 21 22 19 19 17 18 19 19 18 17 15 15 13 16 16 16 13 14 12 15 13 10 12 15 16 19 19 23 23
35 33 31 28 27 25 23 22 21 19 18 16 15 14 14 15 13 18 20 19 19 17 18 17 17 16 12 11 16 12 13 14 19 18 20 18 23 18 17 12 17 21 25 25 25 25 27

GFSGBSN_700_spd_015.txt.gz
Wind_Speed
28 27 27 29 28 28 28 28 28 27 28 27 25 23 19 15 13 13 13 12 12 11 12 14 14 15 14 13 13 10 13 10 8 7 11 9 7 12 17 12 8 9 15 13 14 18 19
28 27 27 26 26 26 26 27 27 26 27 24 21 19 15 13 11 12 11 11 12 13 15 17 18 18 17 16 12 13 13 12 9 11 6 6 9 3 5 9 7 16 14 11 11 13 14
29 28 26 24 24 25 25 25 25 25 25 20 17 15 12 10 10 11 12 13 13 15 18 19 21 17 14 13 10 13 13 13 12 9 8 10 7 4 2 14 17 12 10 10 17 17 15
31 29 26 25 23 24 23 24 24 23 21 16 12 11 9 9 11 13 14 14 15 18 19 21 21 13 13 17 12 12 12 11 10 8 9 9 5 8 8 16 18 11 6 10 14 13 14
32 30 27 25 24 23 22 23 22 18 17 12 8 8 8 10 12 14 15 17 17 18 19 23 15 9 11 16 15 16 10 10 7 5 2 8 7 17 17 20 17 11 8 5 5 8 5
35 31 28 25 23 23 21 21 19 13 13 9 8 9 11 13 15 17 18 17 17 18 22 20 11 7 6 11 19 15 9 9 9 9 8 9 7 9 9 10 8 6 10 10 12 7 10
36 32 28 26 23 23 20 20 14 11 10 9 10 11 15 18 20 20 18 16 15 17 24 14 7 4 8 5 17 20 13 11 11 7 11 11 5 5 5 5 4 4 11 16 11 17 15
37 33 29 27 24 22 20 16 12 11 10 11 13 17 22 24 22 22 17 16 17 17 18 10 9 8 9 8 9 19 14 13 13 13 13 8 5 5 2 3 5 6 4 17 14 11 11
39 35 31 28 26 22 20 16 13 13 12 15 19 25 26 24 24 23 18 18 18 14 10 10 9 7 4 6 11 16 13 14 15 9 9 6 8 6 7 5 6 15 16 18 13 5 8
39 37 33 28 27 23 21 18 16 16 17 21 26 28 27 26 26 18 21 19 17 13 8 8 6 7 5 6 10 15 14 12 8 9 10 8 10 10 8 3 7 13 13 9 11 8 12
41 38 34 30 28 26 23 21 20 20 22 27 30 29 29 30 21 22 20 20 17 8 3 9 8 12 9 8 14 15 10 9 12 15 8 8 6 8 5 6 7 8 8 7 7 9 13
42 39 34 33 30 28 26 24 23 23 26 31 32 30 29 27 25 23 21 20 15 1 2 8 8 12 12 10 15 16 13 13 10 7 7 10 9 7 7 7 8 9 8 8 4 5 3
43 40 37 34 32 31 30 28 27 26 29 33 32 29 30 26 25 23 23 21 8 4 12 10 12 14 13 11 14 17 16 16 11 13 10 6 6 6 13 8 4 7 10 3 0 0 4
44 40 37 36 35 34 33 31 30 29 30 34 32 29 31 28 23 24 21 17 6 6 11 14 18 14 16 16 15 17 14 13 11 7 15 5 4 6 12 10 4 6 8 4 5 3 3
44 41 39 38 36 36 35 34 32 31 31 35 33 29 29 30 22 23 20 13 1 12 11 21 18 15 15 11 11 13 14 12 11 11 6 6 4 8 8 9 7 2 5 4 6 3 2
44 42 40 38 36 37 37 36 34 32 32 33 33 31 28 30 25 24 20 7 4 12 21 20 20 14 17 12 14 13 10 12 14 14 15 8 9 11 9 7 5 4 4 2 2 3 2
45 42 40 38 37 37 37 37 35 33 33 32 30 32 29 27 25 27 22 6 7 14 19 20 17 13 9 18 13 13 9 9 15 13 16 12 8 11 9 4 6 4 1 2 4 2 5
45 42 39 37 36 35 37 38 36 35 34 33 30 29 30 28 26 28 25 8 9 10 16 14 16 7 12 17 16 12 8 7 12 13 13 12 9 11 7 7 6 3 3 2 2 4 4
45 42 39 37 34 35 37 38 37 36 36 34 31 28 29 29 30 31 27 10 12 10 12 14 12 11 14 19 15 14 12 8 9 11 13 13 9 10 4 6 8 7 7 5 3 5 8
44 40 38 35 34 35 36 37 38 37 35 32 31 28 29 31 32 31 27 13 14 12 11 13 14 13 15 15 11 9 11 9 10 11 15 15 12 10 10 4 8 9 10 9 9 7 9
44 39 37 35 33 33 34 36 38 38 36 35 33 25 33 34 34 29 25 16 14 11 13 13 13 15 15 16 13 13 11 12 11 11 14 15 10 15 9 8 8 10 12 15 17 17 14
42 39 36 33 32 32 33 35 38 38 37 36 32 22 29 13 30 29 27 19 13 12 13 13 15 16 14 15 14 9 13 12 12 14 15 16 8 13 11 12 13 15 16 17 19 20 23
41 38 35 32 31 32 32 34 37 38 38 37 30 24 25 24 29 31 33 20 11 14 16 12 9 11 13 12 11 8 8 7 9 10 14 15 12 11 7 12 12 14 20 20 16 17 17
40 38 34 31 31 32 32 33 36 38 37 31 24 24 24 24 30 29 26 19 16 11 9 11 11 13 12 10 8 8 8 7 7 8 11 13 13 10 6 6 1 14 14 15 18 19 18
40 37 33 31 30 31 29 32 36 36 39 27 25 22 23 23 26 25 24 22 17 16 14 10 7 11 10 12 10 7 9 9 13 13 13 13 14 11 6 12 13 13 16 19 20 20 18
37 36 33 31 29 29 28 32 36 41 39 31 20 21 19 29 26 24 23 19 21 18 18 16 12 14 14 16 15 10 7 7 5 6 16 20 19 18 11 6 6 9 11 14 19 25 19
37 36 34 31 30 29 28 33 41 37 35 19 16 20 21 26 25 26 24 22 18 19 19 18 16 17 18 18 18 17 14 12 9 9 12 15 20 22 22 14 11 17 19 17 15 17 9
37 36 34 30 30 30 29 32 38 34 33 21 17 16 16 20 20 22 23 22 18 18 18 18 18 19 20 19 18 17 12 15 16 19 18 15 11 15 18 14 15 20 20 20 17 17 24
35 35 32 30 28 31 30 30 31 33 29 22 18 17 17 18 17 20 20 19 17 16 17 16 15 13 12 13 18 16 14 14 17 19 21 21 23 19 19 17 19 18 18 21 24 27 27

GFSGBSN_700_spd_018.txt.gz
Wind_Speed
34 33 31 29 27 28 28 28 28 27 26 27 28 28 27 27 22 16 12 11 10 10 13 11 10 11 13 12 10 10 10 11 9 9 8 9 8 9 13 18 11 4 10 4 19 20 15
37 34 32 30 28 28 27 26 26 25 24 26 27 27 25 22 18 14 10 11 9 12 13 12 13 15 16 16 13 14 12 10 9 11 9 5 7 5 8 12 9 7 9 8 9 24 14
38 35 33 30 29 28 25 25 24 23 23 24 24 25 21 17 14 12 10 10 12 13 13 14 17 19 16 13 13 15 14 13 12 10 8 10 9 14 8 10 6 15 12 10 14 17 18
40 35 34 31 30 27 25 24 24 22 22 22 22 21 15 13 10 9 10 11 12 13 14 16 19 17 14 12 11 13 14 12 10 9 11 10 3 6 8 11 14 13 7 11 13 16 15
41 37 35 33 31 27 25 24 23 21 20 20 18 15 10 10 9 9 9 11 12 13 15 18 18 13 9 14 12 13 13 10 8 6 9 6 5 8 8 17 18 13 7 6 12 10 7
44 39 36 35 31 28 25 23 23 20 19 17 13 11 8 10 9 11 11 13 13 15 16 19 15 9 8 12 17 14 11 9 5 3 4 5 5 14 16 18 13 11 11 9 8 10 9
46 42 38 37 31 28 25 23 23 19 17 13 10 9 10 11 12 13 14 13 12 13 19 15 10 5 8 10 19 16 13 11 11 5 8 10 8 13 16 13 11 7 6 9 11 14 10
50 42 39 39 33 29 26 23 22 18 15 12 12 12 13 15 18 17 15 14 12 13 18 10 8 6 9 9 18 21 14 12 9 8 12 11 9 9 7 5 5 4 6 5 8 11 14
51 44 40 40 34 30 26 24 21 18 14 13 14 16 19 21 20 17 16 14 13 14 12 8 8 6 5 6 11 21 18 12 9 11 11 8 8 6 4 4 4 4 11 8 13 12 8
52 46 42 41 36 31 28 26 22 18 15 16 19 22 24 23 21 17 16 15 13 11 7 11 9 8 4 5 7 15 13 11 13 9 11 8 7 4 5 2 3 9 7 6 9 9 6
54 47 44 42 38 33 30 27 23 20 18 20 24 27 25 25 21 17 18 17 13 11 2 11 11 10 7 9 10 12 12 11 12 15 9 8 7 6 5 4 4 7 7 5 5 6 5
56 50 45 44 39 35 32 29 26 23 23 25 29 29 27 26 20 18 19 18 13 3 4 10 10 13 10 7 14 12 12 11 14 10 7 7 7 5 6 6 8 10 10 7 1 3 2
56 51 47 46 41 38 35 33 29 27 27 31 32 30 27 27 22 21 21 17 7 4 8 9 10 12 9 9 14 14 14 17 11 10 9 7 6 7 8 8 7 8 8 1 1 0 4
55 52 49 47 42 40 38 36 32 30 31 34 33 30 28 26 24 23 22 17 6 4 11 9 11 14 11 10 15 15 18 15 11 8 11 6 4 7 11 10 4 7 11 5 5 3 3
51 51 48 46 43 42 41 39 35 33 34 37 34 30 30 29 25 23 21 17 3 5 8 13 16 14 14 12 12 16 17 13 12 9 7 7 4 8 9 12 7 4 5 9 2 2 1
48 50 48 47 45 44 43 41 38 35 35 37 34 31 30 31 25 23 22 18 5 6 10 18 15 13 13 11 11 14 14 12 11 12 10 6 6 8 7 7 8 6 7 2 3 3 3
47 51 48 47 46 45 45 43 40 38 35 36 35 32 31 32 27 25 24 21 5 8 17 19 15 13 14 14 11 12 9 6 13 13 14 9 7 8 9 5 8 6 4 3 3 2 5
49 52 48 46 46 46 45 44 41 39 38 38 37 35 32 33 28 28 28 17 8 8 19 20 17 9 10 18 15 14 11 8 11 13 13 14 8 8 11 9 9 7 5 5 3 3 4
54 51 48 47 47 45 46 45 43 42 39 38 36 36 34 32 31 28 31 18 8 9 14 16 15 15 10 14 15 14 11 8 7 13 11 13 6 7 4 7 11 10 9 9 6 6 7
54 50 48 47 46 46 46 45 43 42 39 36 35 32 34 34 33 32 33 23 9 11 11 11 11 11 11 16 16 8 12 10 8 11 13 14 10 11 12 3 8 11 12 12 10 7 7
53 51 48 46 45 44 45 45 44 42 40 38 36 32 37 36 35 33 34 22 14 13 13 11 12 12 12 14 13 9 8 9 10 11 12 14 12 16 13 9 10 11 12 14 17 17 16
53 50 47 44 43 43 43 43 45 43 42 40 38 28 34 19 33 33 34 26 18 16 12 11 12 14 14 12 10 9 9 12 11 11 12 15 11 13 15 14 14 16 17 19 21 23 25
51 48 44 42 41 40 40 43 45 45 43 40 36 30 28 32 25 34 35 28 20 15 12 10 8 13 16 14 13 10 8 8 8 10 10 14 14 10 8 14 16 17 24 24 24 26 23
49 45 43 40 38 36 38 41 44 44 41 38 33 28 22 25 25 34 32 31 20 12 14 13 10 9 10 7 6 6 6 6 7 8 9 11 12 11 7 8 2 19 18 17 20 18 22
46 42 40 37 35 35 36 38 41 41 40 36 28 26 21 19 27 28 31 31 22 15 13 10 9 10 8 8 8 6 8 9 11 12 11 11 12 8 6 11 18 16 17 20 22 21 22
43 41 37 34 33 33 34 35 38 40 39 35 26 24 24 21 24 27 27 28 24 21 18 14 10 9 10 10 11 9 5 4 4 5 11 16 17 16 11 6 5 11 13 15 18 29 28
42 38 34 32 30 31 31 34 36 38 37 34 25 23 19 17 23 29 27 27 26 20 19 17 17 15 13 12 14 15 14 10 7 8 11 12 14 19 23 18 15 21 23 21 14 23 13
39 35 33 30 29 28 30 32 35 36 41 39 29 23 18 17 24 26 25 23 22 21 19 19 19 20 16 17 17 17 12 14 15 19 18 16 9 12 12 11 13 17 20 20 17 17 20
36 35 32 31 30 28 28 33 35 40 35 37 21 14 16 19 20 23 22 22 20 18 19 17 16 11 10 12 16 15 16 18 19 19 20 18 20 16 14 14 19 24 26 27 27 24 28

GFSGBSN_700_spd_024.txt.gz
Wind_Speed
39 37 34 33 32 29 27 25 24 23 26 25 27 24 25 24 23 24 26 22 19 14 11 10 10 8 9 10 7 3 2 4 5 7 8 7 8 9 11 14 14 12 6 5 16 17 14
41 41 38 36 34 31 29 28 24 23 26 23 27 23 23 23 23 24 23 19 16 12 10 10 10 11 14 12 10 7 7 7 7 7 7 8 8 8 10 10 12 7 3 2 13 20 17
43 42 42 40 37 33 31 29 26 23 25 23 25 22 22 23 22 23 19 16 13 10 10 9 10 13 16 12 13 10 7 4 6 7 8 8 8 10 10 6 10 7 4 6 10 17 16
44 45 44 43 41 36 32 30 27 24 24 23 23 21 20 22 21 20 15 12 11 9 9 9 12 14 16 15 14 10 7 6 6 7 8 11 12 14 11 8 7 6 8 8 7 11 16
41 45 46 45 44 39 34 30 29 25 23 21 21 21 19 21 18 15 10 10 9 7 8 10 13 16 15 17 13 9 4 6 8 7 7 10 15 16 10 9 9 13 10 8 12 15 17
38 42 45 48 44 41 37 32 29 27 24 21 20 20 17 19 14 11 7 10 8 8 9 12 15 13 12 15 16 9 3 1 8 11 6 7 14 10 6 12 14 11 7 10 11 14 14
41 41 44 47 44 42 38 34 31 29 24 22 20 19 16 15 13 11 9 10 8 8 11 14 15 7 11 16 17 10 6 3 9 4 2 10 16 12 10 14 8 7 7 12 13 16 14
44 41 42 44 44 41 41 36 33 30 25 22 21 18 15 14 14 12 11 11 10 9 15 12 16 8 9 11 21 15 7 5 15 3 3 12 5 12 11 12 11 7 10 12 16 19 16
45 44 43 41 46 42 42 39 35 31 26 24 21 18 15 15 15 13 13 11 9 10 15 9 11 11 9 10 20 18 11 7 21 9 7 5 13 14 8 8 8 8 8 10 11 21 17
47 44 45 43 46 46 43 41 36 32 28 26 22 19 16 18 18 17 14 12 10 12 10 8 9 9 9 8 12 25 16 10 14 15 7 6 7 8 8 5 7 6 7 5 3 12 10
50 46 46 46 47 48 44 43 38 34 30 28 24 20 19 22 22 19 17 14 13 17 6 9 12 10 9 11 8 25 23 13 7 17 12 10 11 10 7 6 8 6 7 8 8 6 6
53 50 48 49 50 49 47 45 40 36 33 29 26 23 25 27 24 21 20 15 16 10 5 10 17 14 11 12 13 16 24 17 13 15 15 13 13 11 8 7 7 6 7 7 6 5 9
54 52 51 52 55 51 50 48 43 39 35 32 28 27 27 31 27 23 22 17 10 11 6 10 15 16 13 11 13 14 19 17 12 13 11 10 10 9 7 7 7 8 9 4 5 5 7
66 64 58 56 60 55 52 51 45 41 38 35 31 31 34 34 29 25 22 20 10 11 10 10 15 15 14 12 15 17 18 17 18 14 13 12 6 9 10 10 6 10 9 6 5 4 3
60 72 72 66 66 59 57 52 47 45 42 38 35 37 40 36 31 27 25 19 12 8 13 13 14 16 12 15 13 16 16 15 17 15 10 8 4 10 8 10 9 7 8 11 4 4 3
57 58 60 67 69 59 58 54 51 49 46 40 38 40 40 39 33 28 27 20 13 9 14 15 14 16 15 15 15 16 16 18 15 14 10 8 4 8 7 8 11 9 6 3 6 3 4
53 50 51 48 70 61 56 55 56 53 47 43 42 44 43 41 35 31 27 23 21 9 16 15 14 14 15 15 14 18 14 10 15 11 10 8 8 6 8 8 9 11 8 8 5 3 2
46 46 52 48 73 66 59 58 59 56 51 48 49 46 47 43 39 34 28 24 21 14 15 19 14 11 13 15 13 13 15 15 12 14 12 14 9 6 9 11 13 14 10 10 7 5 5
41 41 44 45 73 67 60 60 62 60 58 55 54 37 47 44 35 36 27 28 25 15 18 21 18 11 12 13 10 13 14 14 10 10 13 16 9 6 4 7 14 13 16 15 14 10 9
37 39 38 54 55 63 62 63 64 62 55 51 52 35 46 46 34 33 29 28 23 16 20 22 19 15 12 10 13 10 13 13 12 10 13 14 16 11 12 4 5 12 20 19 14 8 9
37 37 41 53 58 46 62 64 63 59 55 54 50 33 41 51 45 32 30 27 24 20 17 21 18 17 15 14 11 16 14 14 12 12 12 16 12 17 18 16 14 12 11 17 21 18 13
36 40 42 45 59 43 61 62 62 57 55 56 48 34 36 28 45 32 32 26 26 21 19 20 16 16 14 13 10 13 15 14 12 13 14 16 12 16 18 18 18 19 18 18 19 20 24
35 37 36 69 44 55 65 63 62 58 57 58 43 29 37 24 44 38 38 26 27 21 18 17 14 13 13 13 11 10 12 10 10 13 14 16 15 11 7 14 16 16 24 25 26 26 26
39 25 50 46 54 64 64 63 63 60 55 54 35 29 33 39 33 40 32 31 27 25 20 16 12 12 14 14 12 11 12 12 12 13 12 12 13 10 6 3 3 11 16 15 17 17 19
29 49 42 51 64 63 63 62 60 57 53 50 33 31 27 29 29 30 36 32 28 24 21 18 15 12 10 14 12 9 9 8 10 10 11 11 11 7 5 7 13 16 15 16 16 16 17
42 49 64 57 59 61 61 59 57 54 52 48 39 36 24 26 31 29 31 32 30 31 24 20 17 13 13 15 14 9 6 6 5 5 15 15 13 12 7 4 4 5 9 15 15 12 7
42 56 50 55 57 55 55 56 54 53 49 45 42 33 29 25 19 27 31 36 34 32 30 24 19 17 16 18 17 11 8 9 5 6 6 8 9 15 15 10 8 12 13 12 4 4 12
54 47 51 52 51 50 52 53 52 50 47 42 39 33 28 23 19 17 29 28 36 33 31 27 23 23 21 17 14 11 8 11 11 11 8 8 5 6 7 6 6 2 7 9 12 21 21
48 47 48 48 46 47 49 50 49 48 46 40 34 28 26 26 18 16 22 25 29 34 29 24 24 17 21 18 15 9 11 9 10 6 10 11 11 8 7 6 14 19 16 17 21 23 23

GFSGBSN_700_spd_027.txt.gz
Wind_Speed
36 35 34 34 33 32 30 28 26 25 23 23 22 22 22 23 25 23 27 28 25 19 16 12 12 11 9 9 5 7 4 2 3 5 7 9 10 9 10 11 12 12 7 8 8 9 8
39 38 35 35 36 34 32 30 27 26 24 23 22 23 22 22 23 22 26 27 20 15 13 11 10 10 10 7 7 2 5 5 7 8 8 10 7 8 8 10 14 9 8 7 9 12 10
35 38 37 36 36 36 34 32 29 27 25 24 22 23 22 21 22 22 25 23 16 13 12 10 10 11 12 12 9 4 3 2 3 4 6 9 9 7 5 8 12 7 5 8 10 14 14
31 32 35 37 38 37 36 35 31 28 26 25 23 23 21 20 20 21 23 18 13 10 9 9 10 10 12 10 10 6 3 2 3 6 9 12 12 11 9 8 10 8 10 11 10 13 13
34 33 33 34 39 38 38 36 33 30 27 27 23 22 22 20 19 19 18 13 9 7 8 8 10 11 12 12 9 4 1 1 2 4 7 8 9 12 5 7 10 13 16 10 6 11 13
38 36 35 34 34 38 38 36 34 31 29 28 23 22 21 19 17 15 15 9 7 6 8 10 11 11 9 9 11 5 2 1 3 3 3 5 9 12 6 11 13 11 16 15 14 10 14
42 40 39 37 35 34 38 37 35 33 30 28 24 22 20 18 15 13 12 7 5 5 11 14 7 6 10 12 16 6 3 6 5 2 3 3 18 13 9 13 10 9 5 8 10 11 13
47 45 43 42 39 35 36 37 36 35 32 29 25 22 20 17 14 12 11 9 13 10 8 12 17 11 11 12 13 11 7 6 11 6 5 7 18 8 9 11 13 7 6 10 9 12 11
53 50 48 45 44 38 35 37 37 36 34 30 26 23 20 17 14 12 10 11 11 9 9 10 17 14 7 11 16 13 11 7 12 7 3 12 6 10 10 7 11 8 9 8 9 14 14
57 55 53 49 46 44 37 37 38 38 36 32 28 24 20 17 14 13 12 13 11 10 7 12 13 12 12 8 13 15 13 9 11 13 6 5 9 12 8 8 7 8 8 8 7 15 21
62 59 56 52 49 46 42 39 39 40 37 33 29 26 21 20 16 19 20 16 13 14 6 12 13 11 10 11 6 19 19 11 9 12 8 8 5 11 11 6 9 7 6 7 8 14 9
67 64 59 55 52 49 46 43 42 42 39 34 32 28 25 21 22 23 21 17 16 10 8 10 14 14 12 12 9 10 22 15 10 12 10 8 11 4 3 8 7 5 4 5 7 13 10
67 66 61 58 55 53 50 47 46 44 42 37 34 30 25 25 29 27 24 19 11 18 7 11 16 15 15 12 11 12 22 20 17 13 13 8 7 9 6 4 5 6 7 11 8 7 10
68 67 64 61 59 56 54 51 48 46 44 40 37 33 29 32 33 31 27 21 14 18 13 7 14 16 16 13 12 13 18 22 20 19 13 17 11 12 10 8 5 9 11 11 6 7 9
68 69 67 65 63 60 59 56 53 50 47 44 41 37 34 37 36 33 30 24 22 11 16 11 13 17 17 15 10 14 17 20 18 20 18 16 7 10 10 7 6 7 10 9 7 7 9
65 69 70 71 67 64 64 61 57 53 50 47 43 37 35 42 40 35 30 28 22 13 14 13 18 18 18 17 15 17 17 15 13 17 14 5 3 5 8 9 10 10 4 5 9 4 8
64 60 56 57 67 72 71 63 61 54 53 46 43 40 39 47 41 39 32 31 21 15 12 16 18 14 16 17 17 19 16 11 16 16 17 11 11 5 7 10 11 8 12 10 7 6 4
56 54 60 56 54 52 74 66 63 56 53 52 48 37 47 51 46 42 35 30 17 16 12 14 16 14 15 17 17 17 18 15 16 14 13 14 10 11 12 11 13 10 11 13 10 7 7
39 44 51 57 56 49 53 71 67 58 60 58 51 35 43 52 47 37 30 27 23 18 15 17 16 13 13 16 14 15 16 18 13 16 13 12 11 12 10 10 10 12 13 13 11 8 11
43 41 47 48 50 47 53 75 67 59 63 59 42 38 46 59 43 34 35 31 26 21 16 17 16 14 13 14 13 12 13 15 16 15 15 14 15 16 15 6 0 9 13 15 16 12 13
40 42 41 40 42 52 59 75 69 61 63 58 43 43 48 58 51 38 34 30 28 24 17 19 18 18 16 12 11 11 13 14 16 16 13 14 13 17 18 11 11 11 11 14 20 22 18
33 40 38 40 40 56 70 79 63 55 62 63 45 43 35 32 46 35 36 33 31 25 20 22 18 19 16 14 13 10 14 13 12 14 13 14 10 13 12 12 15 14 16 17 19 20 22
32 37 37 40 41 55 57 76 55 58 67 69 43 39 37 35 50 39 39 31 32 25 21 20 20 18 16 15 14 13 15 13 10 10 12 10 11 8 8 8 8 14 22 22 21 21 20
37 38 38 45 44 52 68 59 51 70 71 62 38 37 44 39 52 44 32 30 30 26 19 21 17 16 18 16 14 13 11 12 13 14 12 13 11 10 5 4 1 9 13 13 13 15 17
34 35 42 40 45 50 59 53 74 72 71 55 32 38 32 34 41 38 32 30 26 26 18 24 22 17 12 13 14 11 10 12 14 15 15 13 12 8 5 8 11 13 11 12 8 7 7
35 37 39 32 34 68 43 63 72 71 69 57 39 29 27 38 30 37 32 31 28 27 25 22 19 16 14 14 14 9 7 8 5 5 16 15 15 10 8 4 4 3 8 9 9 8 2
37 38 33 50 48 51 60 71 69 69 66 44 43 29 21 26 24 31 35 31 25 22 23 26 23 18 13 15 17 9 9 9 6 7 7 13 16 15 12 8 7 10 13 10 6 4 9
30 32 43 53 37 64 69 67 67 65 62 43 42 35 25 23 27 31 24 27 26 26 28 28 23 23 19 16 15 10 11 12 8 7 7 7 7 8 9 6 7 7 4 3 7 15 20
34 41 49 50 71 58 61 65 64 63 56 41 38 37 29 23 24 23 31 28 28 26 23 26 22 22 20 14 16 13 11 9 12 6 11 7 10 5 8 3 10 9 16 15 21 23 23

GFSGBSN_700_spd_030.txt.gz
Wind_Speed
35 36 34 33 32 32 31 30 29 27 26 25 23 23 23 22 23 23 24 23 22 25 22 17 13 10 9 6 8 11 8 5 4 5 6 4 7 8 10 10 11 15 10 12 10 5 4
30 33 35 34 34 32 33 32 30 28 27 25 25 23 23 22 22 22 23 22 22 22 18 14 13 10 8 6 1 9 1 2 4 6 7 7 5 6 11 9 12 11 12 6 8 6 3
28 28 29 32 35 34 34 34 32 29 27 26 25 23 24 22 22 21 22 21 20 18 14 12 10 8 9 7 10 3 0 1 2 3 2 5 7 5 3 6 11 6 8 9 6 8 4
32 30 29 27 29 33 34 34 34 32 29 27 25 23 24 21 21 21 21 20 17 14 10 9 8 8 7 10 8 5 4 4 5 5 8 7 12 13 10 6 6 9 10 5 6 10 6
35 34 32 30 28 27 32 35 34 34 30 27 25 23 23 20 20 20 19 17 13 11 7 7 6 6 7 10 10 1 3 4 6 4 5 8 10 7 7 8 7 10 9 9 9 12 14
40 38 36 34 31 29 28 31 35 34 32 29 26 23 22 20 20 19 17 13 8 9 7 5 5 4 7 6 4 6 5 5 2 3 2 4 3 6 5 12 11 8 15 15 9 10 16
45 42 40 37 36 34 30 30 31 34 32 30 27 24 21 20 19 17 14 8 3 7 9 6 5 6 5 5 16 10 7 4 3 3 5 3 6 10 8 7 12 12 8 18 14 12 10
51 48 45 42 40 38 35 32 30 32 33 31 29 26 21 20 18 17 12 9 2 13 10 12 12 19 13 12 9 10 10 7 8 6 4 6 13 14 9 8 11 12 12 6 9 8 11
57 54 50 47 44 42 40 36 33 31 34 33 30 27 22 20 18 15 12 12 13 8 10 8 13 21 9 10 14 13 13 10 15 10 10 9 7 16 14 9 13 13 5 11 9 9 11
63 60 56 52 48 45 43 41 36 32 34 34 32 28 23 22 18 13 8 13 10 6 5 9 16 18 13 13 14 11 17 11 9 12 5 7 8 11 8 11 10 12 9 8 10 13 12
68 65 61 58 53 49 46 44 40 36 35 36 34 29 25 24 17 15 18 16 10 7 4 9 14 9 13 17 7 18 13 13 8 7 12 6 9 13 15 10 5 1 5 6 10 11 7
73 69 66 62 58 54 51 47 43 39 36 39 37 31 30 25 18 23 16 16 12 6 7 9 15 14 15 16 14 9 19 17 6 9 10 9 12 3 2 9 4 4 5 8 9 12 4
78 74 70 67 63 58 54 50 46 43 39 41 39 35 31 27 21 26 21 19 10 13 6 12 16 15 18 16 17 15 16 21 15 10 12 8 7 8 6 7 5 6 8 7 9 7 4
76 76 72 71 68 62 57 52 50 48 44 43 41 39 35 30 30 28 27 24 14 11 20 3 14 16 19 16 16 15 15 23 22 19 12 7 16 12 11 9 3 11 9 3 5 5 8
69 73 75 72 70 66 62 57 54 53 48 46 44 42 41 33 32 35 33 30 21 14 19 12 13 19 20 18 11 14 17 21 21 21 16 8 9 2 6 7 4 5 5 6 6 7 5
60 65 76 75 73 70 66 62 58 56 51 48 46 47 40 35 37 39 37 35 25 20 7 16 18 19 20 19 16 15 16 17 20 17 21 10 13 20 9 11 9 9 8 5 3 2 4
49 50 53 74 76 75 71 67 63 60 55 47 44 47 40 39 42 45 44 35 23 19 15 11 19 17 18 17 17 15 14 11 13 9 17 11 26 10 5 6 9 7 9 11 10 9 1
53 55 53 58 70 77 77 73 68 63 58 47 49 50 44 46 49 52 41 36 27 20 18 16 16 17 17 16 16 16 16 17 14 13 10 11 7 9 12 7 8 10 7 11 10 8 6
52 52 52 60 59 60 64 71 73 66 64 53 52 45 32 46 57 47 44 33 30 23 19 20 18 14 14 15 13 15 13 11 12 12 10 9 7 13 15 8 11 15 14 14 10 10 10
48 49 50 55 57 57 53 53 50 64 67 52 52 42 36 48 57 44 50 34 32 27 20 20 18 15 14 15 15 12 14 13 11 13 17 15 10 14 13 13 5 14 12 14 15 12 14
44 44 45 51 49 56 55 53 48 64 70 53 53 53 46 55 62 45 38 31 32 30 27 21 20 20 16 14 16 12 14 12 16 17 16 17 14 14 18 19 7 9 9 10 16 19 20
34 37 40 41 48 57 52 52 52 71 72 58 62 43 44 16 52 46 42 43 36 32 26 23 21 21 18 13 15 13 14 14 11 16 16 15 9 12 13 12 13 15 15 16 17 17 19
34 33 35 44 43 50 50 53 54 78 71 66 61 47 29 37 45 52 52 41 36 30 27 22 23 19 20 16 14 13 11 12 8 11 16 10 10 6 7 9 10 14 19 18 21 19 18
31 35 33 37 41 44 46 51 60 68 70 63 59 47 27 39 38 65 45 35 33 35 24 24 22 19 23 21 15 12 11 14 14 12 10 11 10 10 6 6 1 11 8 11 9 10 11
28 28 35 37 37 37 47 50 63 64 62 65 49 40 30 38 42 48 39 39 33 31 25 23 22 24 25 20 16 11 12 12 11 13 14 11 11 10 6 9 11 15 8 6 4 4 3
30 32 36 38 37 43 46 50 57 65 62 74 51 41 26 39 46 52 40 37 36 34 29 32 27 20 19 19 13 9 7 10 8 4 13 14 14 12 8 4 4 3 8 8 4 4 3
35 36 39 40 40 46 45 51 67 60 70 68 54 29 35 35 33 47 45 42 31 32 27 31 31 24 22 18 15 10 11 9 8 9 8 12 16 16 12 7 6 7 11 13 4 4 8
35 37 37 37 45 46 43 57 66 59 80 57 53 28 38 24 34 46 37 39 27 28 32 32 30 25 22 16 15 10 10 13 9 7 8 6 8 10 12 6 8 10 7 3 9 10 14
29 30 34 35 35 37 43 54 57 77 71 51 38 32 29 19 38 45 41 43 33 25 29 30 27 23 22 18 13 11 11 14 15 8 11 8 9 5 9 1 7 7 11 12 15 18 20

GFSGBSN_700_spd_033.txt.gz
Wind_Speed
30 31 33 35 35 34 35 34 32 30 28 27 26 23 21 21 19 21 21 22 22 21 23 20 15 12 9 5 9 9 8 7 3 3 6 9 4 3 5 2 6 13 18 9 14 17 6
26 25 27 30 32 34 34 34 34 32 29 27 26 24 22 20 19 19 20 21 21 21 20 18 13 11 6 2 3 1 2 5 4 5 10 12 7 4 15 16 14 15 11 4 2 0 10
28 27 25 24 24 28 32 34 35 34 32 29 27 25 23 20 18 18 19 20 19 20 18 14 11 8 5 7 8 2 5 3 4 4 13 8 5 9 9 11 7 5 5 11 5 5 2
32 30 28 26 24 23 24 28 33 34 35 31 28 25 24 21 18 17 18 19 18 17 14 10 9 6 1 4 6 3 5 3 8 4 6 6 10 13 13 9 3 7 5 6 5 7 6
37 34 32 30 29 25 24 23 26 32 35 33 31 27 23 21 18 17 17 18 16 14 11 8 7 4 3 6 5 3 3 5 7 7 2 10 7 8 13 3 1 9 9 5 7 7 7
43 39 36 34 32 30 27 25 25 25 31 33 32 28 23 21 19 17 16 15 14 12 9 7 5 3 2 7 7 3 0 5 7 1 1 3 2 4 6 7 10 3 5 7 13 6 14
49 46 43 39 36 33 32 29 27 25 25 30 32 29 24 21 19 17 14 13 12 14 10 8 9 9 15 8 4 8 7 4 4 2 6 1 7 4 4 2 6 2 14 9 16 11 15
56 52 49 46 42 38 36 34 30 28 25 26 29 29 25 22 19 17 13 10 18 18 12 11 13 20 20 16 12 11 13 8 7 2 6 10 9 6 8 11 11 13 14 14 17 17 14
62 59 55 51 47 44 39 37 34 31 28 26 26 29 26 23 19 17 13 9 15 14 17 11 12 20 18 16 13 16 16 11 14 6 11 8 8 2 12 8 13 13 13 18 5 6 9
68 64 60 57 52 48 44 41 37 34 31 28 27 28 27 25 20 16 11 10 13 11 9 11 13 17 22 8 11 16 18 12 14 12 8 10 12 4 19 18 9 13 11 10 1 7 7
73 70 66 62 58 54 49 45 42 37 34 30 30 28 28 27 21 18 15 15 12 6 3 2 12 3 22 16 6 16 7 25 16 7 8 1 5 12 14 15 9 6 10 8 14 13 15
78 73 71 67 63 59 55 50 45 42 37 34 32 30 31 28 21 17 16 15 14 7 8 9 11 16 14 12 14 8 16 16 12 13 9 6 5 8 10 10 12 4 7 6 9 1 2
84 78 74 71 68 64 59 56 51 46 42 39 35 32 32 30 23 25 23 19 13 8 7 14 18 16 18 18 14 11 21 20 18 11 13 11 10 8 8 12 6 10 9 2 3 5 5
69 82 78 74 71 67 64 60 55 51 46 43 38 36 34 31 30 26 27 26 12 14 15 9 18 16 17 19 16 16 16 19 28 19 9 15 7 13 13 17 11 11 11 4 4 2 4
50 52 77 76 75 70 66 63 59 54 50 45 42 41 41 33 34 31 33 32 21 19 23 12 15 19 18 17 16 18 22 22 24 25 24 6 7 10 8 1 4 1 8 6 7 7 2
58 52 47 68 75 72 70 66 62 57 52 49 47 44 42 35 37 36 40 35 28 22 16 16 17 20 18 19 21 17 20 18 25 26 21 18 6 6 17 13 11 13 9 3 4 3 4
61 58 49 48 66 71 70 69 66 61 55 52 49 44 42 39 40 42 52 37 33 33 17 7 17 18 19 21 21 20 19 19 20 19 22 14 8 3 19 15 11 13 12 8 9 5 4
64 61 55 47 47 56 67 72 69 65 60 55 53 50 40 44 47 52 55 43 42 33 22 15 15 22 19 22 25 20 20 16 19 14 12 12 6 14 24 6 11 14 7 7 10 6 3
61 63 57 49 49 46 50 69 68 69 65 59 58 49 30 45 53 59 53 51 43 37 27 13 23 18 16 19 13 23 20 19 15 18 12 15 7 12 12 10 11 12 14 20 12 12 12
61 58 57 51 50 48 50 54 53 60 67 61 56 45 46 47 54 54 54 53 50 42 26 17 20 19 18 15 18 21 19 15 19 20 20 19 10 10 10 9 7 10 10 12 14 13 10
54 55 54 52 53 44 50 57 55 50 63 66 59 51 51 55 59 53 45 49 52 45 35 21 23 24 19 15 19 16 18 14 14 12 13 16 19 18 17 18 14 10 14 8 14 16 19
49 50 50 51 50 48 50 54 57 55 61 70 56 54 59 33 48 49 43 56 55 45 35 28 23 23 21 18 20 24 15 16 14 15 16 15 14 14 16 18 16 11 14 20 14 14 13
44 46 46 44 44 45 50 55 62 60 69 80 61 48 50 56 22 53 60 54 51 43 33 25 23 21 23 23 21 18 22 17 15 13 17 17 15 14 13 15 17 20 22 20 17 17 19
37 38 39 40 40 44 53 60 61 62 73 80 65 54 37 48 40 43 54 55 43 45 34 26 26 24 26 25 20 18 15 13 17 15 11 17 14 10 7 8 0 9 6 9 4 5 6
35 34 34 32 37 43 58 57 63 61 76 70 60 56 37 43 47 37 52 56 38 42 34 29 31 32 25 27 24 15 13 12 16 16 14 17 17 11 7 13 9 11 9 10 8 5 8
35 29 28 29 39 44 54 50 60 61 76 73 66 48 27 34 43 41 39 54 47 42 35 37 34 35 30 27 24 12 8 10 10 15 19 19 19 16 11 5 7 4 6 8 7 7 10
29 28 31 29 40 45 54 48 59 55 77 67 65 49 50 15 19 41 47 56 50 39 37 38 36 35 34 35 24 14 12 12 12 14 12 18 19 19 17 10 6 8 10 11 9 8 14
29 29 33 31 38 43 47 49 56 53 78 65 62 48 43 7 22 35 34 53 46 39 40 36 35 33 34 29 22 13 10 18 11 14 12 11 14 16 14 9 9 13 13 12 12 16 13
30 32 33 30 36 37 40 51 55 49 77 67 61 48 39 17 28 29 43 44 52 42 37 35 39 34 29 26 17 17 13 21 19 13 12 12 13 11 8 4 5 7 12 12 14 13 17

GFSGBSN_700_spd_036.txt.gz
Wind_Speed
29 29 31 33 34 34 34 34 34 33 32 31 29 28 27 24 22 21 20 20 20 21 21 20 17 13 9 9 7 8 5 6 4 2 5 8 5 4 3 8 13 15 11 11 5 10 14
28 26 25 27 28 30 32 33 34 34 33 31 29 29 27 25 23 20 20 20 20 20 20 19 14 10 7 8 4 6 3 7 9 1 7 13 5 4 6 13 12 13 5 8 7 10 2
30 28 26 24 23 23 24 28 31 34 33 31 30 29 27 25 23 19 19 19 19 19 19 16 11 7 5 6 4 2 4 9 10 7 13 4 3 5 8 10 7 2 5 3 5 9 9
35 32 30 27 25 25 23 21 23 28 32 32 31 30 28 25 23 19 18 18 19 18 17 14 9 5 4 10 1 7 5 8 11 4 11 8 8 8 9 10 3 4 2 7 10 10 7
42 37 34 30 28 27 25 24 22 22 25 28 31 30 28 26 23 19 18 18 19 18 16 12 8 2 3 3 4 7 5 8 6 5 5 9 6 8 9 6 4 5 3 2 8 8 4
47 45 40 36 33 30 28 26 22 23 23 22 26 27 27 26 23 19 18 19 18 17 16 12 8 4 6 11 11 6 5 3 3 4 1 2 4 1 5 6 4 3 4 7 8 8 9
53 49 47 43 39 35 32 29 27 26 26 21 20 23 25 25 23 20 18 19 17 19 14 12 8 13 18 15 14 11 7 2 7 5 4 2 0 2 5 5 5 4 1 5 9 11 15
59 56 52 49 45 41 37 33 30 29 27 24 20 19 21 24 22 20 17 18 17 19 17 14 13 18 20 18 17 14 9 8 9 3 3 11 5 2 6 6 11 5 7 13 17 14 15
65 62 58 55 51 47 42 38 35 32 29 27 24 19 19 21 23 20 17 16 23 15 19 11 14 16 21 19 14 16 18 13 8 8 11 10 4 4 7 5 8 9 12 16 15 11 8
71 68 64 61 58 53 48 44 40 36 33 30 27 22 19 20 23 19 19 19 17 12 11 10 16 16 28 20 19 24 20 18 14 12 12 10 14 11 14 9 12 15 10 14 9 6 1
77 75 70 67 63 59 54 49 44 40 37 34 30 26 21 21 21 20 19 18 14 10 3 4 13 8 25 23 6 28 20 20 22 10 7 3 5 13 9 16 14 16 10 12 13 10 8
82 79 76 72 68 64 59 55 50 45 42 37 33 29 26 22 21 21 19 18 14 7 8 11 14 12 25 25 15 23 19 12 16 19 16 11 3 4 5 12 16 13 11 8 8 6 4
80 81 81 77 74 69 64 60 55 50 46 41 36 32 29 24 24 24 22 19 13 8 8 15 18 15 16 23 21 19 18 18 15 13 20 16 12 7 6 16 10 10 11 5 3 1 5
59 75 76 81 77 74 69 65 60 55 50 46 41 37 33 27 29 27 26 23 14 12 16 9 21 17 19 18 19 19 16 20 22 21 6 13 6 12 9 7 11 10 9 5 4 3 4
47 62 57 63 79 75 73 69 64 60 55 50 46 42 39 30 34 31 33 35 18 18 24 13 24 23 20 20 18 21 18 19 19 24 23 7 7 9 9 5 4 4 5 5 7 2 2
49 53 54 58 55 75 74 72 68 64 59 54 50 46 45 32 38 35 40 42 29 28 10 16 21 25 24 20 25 23 24 21 24 19 28 22 12 14 9 15 13 14 5 2 5 3 2
49 45 58 60 55 51 70 71 70 66 61 56 52 48 48 38 43 42 53 43 33 35 22 9 17 18 24 21 22 24 21 20 14 18 24 26 21 11 15 20 22 11 15 12 12 5 4
49 48 51 58 63 52 44 66 70 68 63 59 55 52 45 44 46 52 58 47 40 41 36 22 15 11 22 24 22 25 24 20 8 20 24 28 21 13 16 15 11 11 19 13 10 6 5
51 50 53 55 59 57 46 53 64 64 65 62 57 46 33 46 56 60 56 48 47 44 42 37 23 13 12 25 28 25 25 20 21 18 25 25 15 10 10 16 17 21 18 16 15 13 15
52 51 53 54 57 56 53 52 54 51 49 59 49 43 37 51 58 55 60 52 52 48 47 38 29 20 17 20 11 22 24 20 17 20 21 21 18 19 21 15 8 10 11 10 15 13 13
53 52 55 52 56 55 54 46 53 54 51 53 53 45 60 59 65 64 48 54 54 53 46 40 32 26 20 17 13 18 19 25 23 27 25 22 21 19 17 16 15 12 11 13 11 13 15
51 50 51 51 57 56 51 55 60 62 58 62 57 50 53 48 62 63 53 54 55 52 46 42 33 24 20 22 19 17 20 23 23 23 22 19 19 21 22 24 24 18 16 19 21 16 13
47 47 46 53 55 53 50 60 58 67 61 68 55 48 43 57 36 61 72 59 53 50 48 44 32 22 23 23 17 20 15 19 18 16 17 18 21 18 18 19 18 20 24 21 22 25 21
41 40 45 52 53 50 57 59 54 70 65 67 63 56 41 48 45 49 60 55 52 51 46 41 35 27 18 23 21 22 17 19 19 19 19 16 19 17 11 11 1 13 10 11 15 18 17
34 32 43 46 47 52 63 47 57 71 62 68 65 53 37 49 53 37 27 52 48 48 46 45 37 29 24 24 25 23 21 22 19 20 21 18 19 12 7 14 11 10 12 15 14 12 12
31 36 40 42 47 50 46 47 56 72 62 68 69 48 52 36 47 50 35 28 51 52 45 46 40 19 30 30 29 21 16 16 14 15 21 20 21 21 12 5 7 10 21 17 16 15 17
37 37 37 39 43 45 46 48 58 72 63 70 74 60 27 32 39 43 49 32 40 49 45 46 43 29 38 35 30 22 20 21 15 18 20 25 25 24 22 14 11 16 12 13 17 13 19
34 32 32 33 33 38 44 47 57 73 65 72 70 56 28 32 31 27 43 47 37 46 51 51 41 36 43 33 31 22 14 22 19 17 20 23 22 21 21 14 14 17 21 22 16 16 16
28 27 26 28 28 34 41 50 58 72 57 65 69 52 35 28 27 38 41 47 45 41 51 44 47 37 33 36 24 26 17 23 22 16 20 16 19 16 14 9 11 12 18 17 15 11 12

GFSGBSN_700_spd_039.txt.gz
Wind_Speed
32 32 32 33 35 35 35 34 34 34 33 32 31 30 28 27 26 25 23 22 23 21 21 20 19 15 8 7 7 8 6 3 3 2 5 6 5 5 4 5 8 7 16 4 4 4 5
34 32 31 30 30 31 32 34 34 34 34 33 32 31 30 28 27 26 23 21 22 21 20 19 18 14 7 6 5 3 3 4 7 4 9 9 1 2 3 4 3 10 11 5 1 4 3
38 35 33 31 29 27 27 27 30 31 32 33 33 32 30 29 28 25 23 20 20 21 20 18 16 12 6 6 4 3 3 5 10 10 9 6 6 3 7 7 3 7 8 10 3 5 11
42 40 37 34 32 30 27 25 24 24 25 28 30 31 30 29 29 25 23 21 19 21 19 17 15 11 6 4 6 6 7 8 8 9 6 6 7 10 8 8 3 3 4 5 4 7 9
48 45 42 39 35 33 31 29 25 23 21 21 24 27 28 29 29 25 23 22 19 21 19 16 13 10 7 7 11 11 10 7 6 5 11 12 11 10 9 8 4 1 5 4 6 13 11
53 51 48 45 41 37 33 31 28 28 28 27 24 22 22 27 28 25 23 23 20 21 19 16 14 10 10 12 15 14 12 11 6 1 5 4 8 7 7 8 4 4 3 4 4 7 11
58 56 54 51 48 44 39 34 31 28 26 24 22 22 25 22 24 24 23 22 21 22 20 16 12 14 14 17 16 13 13 7 6 6 3 3 1 4 5 7 2 1 3 3 4 2 9
63 61 58 56 52 49 45 40 35 32 29 26 23 18 18 18 20 22 22 22 22 23 22 17 17 18 21 22 20 17 15 12 9 6 7 5 6 4 3 5 4 3 4 3 8 9 16
70 66 63 61 58 54 51 46 42 37 33 28 24 20 19 17 18 20 22 24 21 20 22 18 21 18 24 23 21 21 19 13 7 6 9 9 3 6 6 3 10 8 5 5 9 13 9
76 73 68 66 63 60 56 51 47 43 37 32 27 24 20 19 18 18 25 22 18 16 13 15 16 18 30 26 23 22 19 15 15 7 12 11 7 12 12 10 11 14 4 12 15 12 4
74 77 76 72 68 65 61 56 51 48 43 37 31 28 23 22 19 20 22 17 14 11 4 4 14 12 29 28 12 22 23 21 19 14 12 6 7 6 14 16 15 11 12 14 12 12 8
56 70 77 76 74 69 66 62 57 51 46 42 36 31 28 25 20 20 17 15 13 8 8 5 14 17 28 32 15 19 26 20 15 17 18 14 9 5 10 10 17 15 14 13 7 7 3
54 56 64 76 78 74 70 66 62 57 51 46 40 36 32 27 21 24 20 17 12 9 8 10 20 18 22 31 23 23 29 26 20 18 24 22 16 9 8 7 9 11 9 4 2 2 4
54 54 53 57 75 77 73 70 66 61 55 50 44 41 36 31 26 29 25 24 15 9 21 7 21 18 19 27 29 23 26 20 25 18 11 15 8 10 9 4 6 7 6 4 3 3 4
54 53 52 50 53 70 76 72 70 65 59 54 49 46 42 37 30 32 32 35 18 17 16 17 19 23 22 25 22 25 26 24 23 26 20 8 8 5 7 6 4 4 4 7 6 1 0
56 54 51 50 48 58 56 73 70 68 64 58 55 50 48 38 35 36 41 45 33 31 10 18 15 24 27 25 25 26 25 23 22 26 17 22 9 9 11 9 13 12 7 4 5 3 3
61 56 53 49 48 44 58 56 68 68 67 62 58 53 53 43 39 41 54 47 35 33 21 10 16 20 26 25 29 27 23 26 19 22 22 22 21 18 12 19 20 20 18 14 10 4 4
62 61 56 51 46 46 61 55 50 64 67 63 61 58 55 49 46 51 59 48 32 42 34 27 17 15 23 29 26 30 29 23 17 17 24 22 15 22 27 21 21 16 17 14 13 8 7
60 59 57 53 47 43 54 57 53 51 62 62 62 54 42 47 54 62 55 54 49 47 45 38 26 16 14 19 32 26 26 24 23 16 22 24 24 18 17 21 20 17 17 15 17 21 16
59 57 55 54 48 49 55 57 52 47 51 57 54 41 38 42 61 60 58 50 54 50 45 44 42 28 17 12 19 31 27 26 27 26 17 22 26 24 23 22 21 18 20 20 19 21 20
52 55 54 52 50 53 55 55 52 46 56 57 53 44 54 56 66 66 51 57 51 52 48 40 45 44 29 15 12 20 23 26 27 22 20 22 23 21 24 19 19 19 14 13 20 18 20
52 53 57 52 54 55 62 57 53 53 59 57 59 47 52 46 62 63 55 53 49 55 45 47 50 40 36 27 13 12 18 23 31 25 29 29 16 20 21 19 20 23 23 21 20 20 21
50 54 55 53 56 56 55 55 53 50 65 60 63 42 50 54 46 52 73 64 58 50 55 44 33 41 34 27 19 13 17 18 23 24 33 28 25 20 20 21 23 26 33 33 31 27 27
47 52 53 53 54 54 52 52 52 52 71 63 56 58 39 48 47 63 59 58 59 59 52 48 41 32 36 23 19 20 17 20 25 24 26 25 22 19 15 14 4 28 27 27 30 32 33
48 51 48 51 51 51 54 51 47 53 73 48 53 62 35 37 52 53 49 52 55 54 48 45 43 36 26 26 14 17 23 22 27 25 24 22 19 16 10 17 17 12 15 21 18 18 18
40 44 45 46 47 50 54 53 49 56 73 56 59 68 52 37 33 49 37 36 45 57 49 48 39 27 33 20 24 25 18 19 17 20 23 21 21 21 14 7 7 18 14 18 18 15 18
40 39 38 39 43 50 50 53 49 64 81 71 59 63 57 27 35 36 48 34 23 31 50 47 44 42 36 25 32 25 26 25 23 28 22 23 23 26 24 15 15 20 16 15 20 15 21
35 36 37 39 41 44 47 46 54 68 82 51 59 58 69 53 29 36 43 38 29 29 43 43 37 46 41 33 35 26 14 26 26 26 31 31 28 25 26 19 14 19 19 24 20 24 14
33 34 33 34 38 40 40 41 56 65 65 60 55 63 33 60 36 26 30 41 48 41 28 43 38 32 34 33 31 30 18 25 30 27 26 27 27 24 19 21 21 13 15 22 25 17 13

GFSGBSN_700_spd_042.txt.gz
Wind_Speed
35 34 36 36 35 36 36 38 37 35 33 32 32 29 28 27 27 27 27 26 26 25 22 20 19 17 15 9 7 5 3 6 5 3 5 8 6 5 8 2 3 2 9 3 4 4 2
38 37 35 34 34 34 35 36 37 36 35 34 33 32 30 29 29 28 28 27 26 24 21 20 18 15 13 9 7 3 2 5 5 6 10 8 4 3 5 0 1 7 8 7 1 2 1
42 41 39 37 35 33 32 32 33 34 33 34 33 33 31 29 30 28 28 27 25 23 22 20 18 14 12 10 7 5 3 2 5 12 11 7 5 3 7 2 1 7 6 4 1 2 5
48 46 44 40 39 37 34 32 30 29 29 29 30 31 31 31 31 29 28 27 25 23 22 20 18 14 10 7 7 8 7 4 5 9 8 7 7 6 9 9 3 1 6 4 4 3 7
52 51 49 46 43 41 38 34 32 30 27 25 23 24 26 28 30 28 27 27 25 24 22 21 19 14 10 8 12 14 12 8 6 6 9 11 9 12 11 8 5 1 5 7 6 7 7
57 55 53 52 49 46 43 39 35 32 29 26 22 21 21 22 25 25 26 28 26 25 24 21 20 15 12 12 19 17 17 13 9 6 6 8 9 11 9 8 4 2 3 1 4 6 8
63 60 57 55 54 52 48 44 39 36 33 30 27 26 26 23 21 23 27 28 25 26 25 24 18 9 10 15 19 18 17 17 11 7 6 0 4 5 3 9 4 2 1 0 5 3 6
67 66 63 59 57 56 53 50 46 40 36 32 27 24 22 24 26 32 29 28 26 25 28 23 21 21 17 19 22 22 20 18 14 10 9 5 9 5 4 8 6 4 1 3 5 6 10
62 67 68 65 62 59 57 55 51 46 41 36 31 26 23 22 19 18 21 27 21 22 26 25 24 24 21 24 24 24 23 18 12 10 7 10 7 7 8 6 9 6 3 4 9 10 10
51 56 64 68 67 63 60 58 55 51 46 40 36 30 25 23 22 17 19 21 15 16 16 26 16 21 24 28 27 25 24 19 16 11 9 9 6 8 9 8 9 11 9 6 8 8 4
50 50 50 60 67 68 65 62 61 56 52 46 40 35 30 27 23 19 15 15 11 10 4 8 16 17 24 31 19 29 25 23 20 15 11 4 4 4 14 12 12 13 6 7 9 7 8
53 51 49 50 54 67 69 66 63 61 56 50 44 39 35 32 26 20 13 11 12 11 9 6 9 18 25 33 20 23 28 25 22 19 16 15 16 9 5 7 14 13 10 12 9 5 1
58 57 53 51 50 52 66 69 66 63 60 54 48 44 40 34 26 23 17 17 12 11 10 10 14 19 23 33 29 18 31 30 24 18 21 19 19 16 9 10 9 14 8 2 1 1 5
57 57 59 57 53 49 50 65 68 65 63 58 52 48 44 38 30 27 26 24 17 11 20 7 16 19 22 26 33 19 27 31 28 22 12 17 11 13 14 8 7 9 6 4 4 3 3
50 53 55 58 56 53 48 49 57 67 65 62 57 52 50 43 34 32 34 36 22 15 17 21 10 20 21 24 23 30 25 31 30 26 18 11 6 8 9 7 5 7 6 4 3 3 1
56 54 54 55 57 55 48 47 55 48 65 64 62 57 54 46 37 36 41 44 35 24 12 24 20 18 25 23 25 32 30 30 30 27 23 19 6 7 8 7 11 9 5 3 4 3 3
58 59 57 58 56 55 49 46 44 46 52 60 63 61 58 49 42 42 50 45 41 26 20 13 18 13 20 25 25 26 25 19 34 27 24 26 19 17 14 14 13 13 13 10 8 3 4
60 57 59 60 58 56 50 48 41 48 48 47 60 62 60 53 47 51 52 51 32 37 32 27 15 16 18 23 27 30 26 32 21 20 24 25 14 24 27 20 17 18 21 21 18 5 7
62 59 56 61 61 56 52 48 44 47 47 49 53 56 43 52 50 61 54 47 44 46 41 38 27 18 13 14 20 26 32 31 29 16 25 27 19 19 17 20 21 20 15 16 13 15 14
62 61 56 60 62 58 54 50 50 54 52 50 47 40 39 41 62 63 60 42 50 50 44 44 37 27 18 14 14 21 26 30 30 25 21 26 28 24 23 22 16 15 19 21 18 16 18
56 62 60 58 62 59 56 51 59 57 50 48 57 43 50 55 65 69 52 51 52 51 52 45 42 43 31 18 8 14 26 29 27 27 26 26 27 28 27 25 23 21 20 22 23 22 23
53 56 58 50 59 58 56 53 52 59 53 55 54 47 47 57 68 63 45 51 53 53 44 48 47 38 43 36 15 7 9 26 26 26 24 28 19 23 23 24 23 21 21 22 20 21 23
50 50 53 52 57 56 57 56 53 65 61 61 55 54 49 52 54 60 73 59 57 50 52 39 40 44 36 39 28 26 21 19 16 23 26 27 28 21 23 21 20 24 26 27 30 32 30
49 45 50 48 52 56 52 53 57 66 67 55 59 57 48 39 46 71 58 60 52 57 52 48 43 30 34 39 25 25 25 23 22 24 28 32 29 24 17 15 4 26 30 28 31 33 33
45 43 45 45 48 52 52 56 53 62 59 56 57 61 47 42 50 48 49 38 53 53 49 47 39 34 13 18 24 27 21 23 23 24 30 32 29 22 13 17 22 20 19 14 14 21 21
40 41 43 44 49 52 51 56 58 53 53 47 61 60 48 32 45 42 41 36 44 53 52 52 42 18 37 33 23 23 11 19 17 25 30 30 29 30 16 7 8 19 18 19 19 30 22
38 42 39 41 42 45 56 57 53 51 52 55 72 44 56 23 24 37 51 49 36 40 49 50 46 37 28 24 22 22 28 15 25 28 25 29 27 26 26 16 16 20 17 17 16 28 16
37 35 33 39 41 46 55 56 47 50 55 60 71 54 65 41 19 19 36 36 45 41 39 37 29 41 36 36 29 21 18 25 25 28 33 33 30 25 26 17 14 21 21 26 26 19 20
30 29 37 36 37 44 54 54 50 50 49 45 72 42 57 49 28 24 28 33 32 32 32 28 29 32 42 37 28 22 21 20 30 30 31 34 35 32 27 26 25 17 13 16 19 23 17

GFSGBSN_700_spd_048.txt.gz
Wind_Speed
38 38 37 36 35 33 33 32 31 31 31 31 31 30 32 31 31 27 29 29 26 26 24 22 20 17 15 13 12 11 10 6 4 4 7 6 6 5 4 4 3 4 4 8 8 4 3
40 39 38 38 38 37 36 34 32 32 30 30 31 31 32 33 32 31 28 31 30 27 26 24 22 19 16 13 12 10 12 8 5 6 9 8 8 7 7 5 6 7 8 8 6 3 3
44 43 42 41 39 39 38 37 35 33 32 30 29 30 31 33 32 34 30 31 30 27 27 26 22 20 16 14 12 11 12 10 7 10 12 10 8 7 6 4 8 10 6 1 7 6 5
47 46 46 46 44 42 41 39 38 36 34 32 30 29 29 30 31 34 32 31 31 29 28 25 22 21 17 15 12 13 14 11 9 12 12 10 8 6 6 6 7 8 7 10 4 3 5
49 49 49 49 48 47 45 43 40 38 37 34 32 30 28 28 29 29 30 31 31 30 27 25 24 22 19 19 14 17 17 13 12 13 12 10 8 7 8 7 8 11 13 7 5 4 5
47 49 49 51 51 50 49 47 45 42 39 37 34 32 30 28 27 26 25 26 25 27 25 25 25 21 18 15 13 20 21 17 16 14 12 10 9 7 8 10 13 12 10 9 7 5 6
43 44 47 48 50 52 52 51 48 46 42 40 37 35 32 29 28 24 20 18 19 21 23 24 15 16 18 12 16 23 23 20 18 15 12 11 9 10 7 11 11 10 9 8 5 5 4
43 43 42 42 45 48 50 52 52 49 47 43 40 38 34 32 30 27 25 25 24 27 29 24 23 25 21 19 16 25 28 26 23 16 15 12 11 9 10 9 11 9 10 10 6 7 5
45 45 45 44 41 40 41 48 51 52 50 47 43 40 37 34 32 29 26 26 24 27 31 35 37 34 27 27 26 28 32 28 24 19 17 15 8 7 9 8 10 11 10 6 6 6 12
45 46 46 47 47 43 40 40 42 49 52 50 46 43 40 37 34 29 27 24 19 20 16 26 28 31 35 28 31 28 32 30 24 23 17 15 16 13 11 11 11 12 11 6 5 8 12
38 41 44 46 47 48 45 40 38 37 46 52 51 47 44 40 37 31 28 20 18 14 7 8 17 22 27 31 25 32 33 34 24 23 22 15 11 12 14 13 11 10 9 9 8 10 11
42 41 40 41 45 49 49 46 42 37 37 45 53 51 47 44 40 32 28 21 15 8 10 7 10 18 26 26 30 22 35 34 23 22 22 16 14 10 8 8 15 11 7 7 8 9 12
48 46 43 43 43 43 49 52 47 42 37 37 47 54 50 47 39 34 30 22 13 17 7 9 12 16 20 28 31 24 39 40 30 26 26 21 19 13 12 5 10 10 11 11 9 8 9
50 51 51 49 46 44 45 48 53 46 40 37 39 50 53 49 41 36 31 27 20 18 23 8 14 14 15 23 23 24 31 35 32 26 21 24 18 20 15 13 11 15 15 10 6 5 6
51 51 51 51 50 49 46 47 48 52 43 39 35 37 53 53 43 38 38 35 36 29 22 14 8 12 14 22 20 24 29 38 35 30 22 24 21 11 16 15 13 12 13 14 7 5 3
56 55 53 51 51 51 48 46 45 47 45 41 34 32 46 51 45 42 40 49 37 26 25 23 16 11 17 22 24 28 26 29 33 32 25 12 16 14 15 17 17 11 13 9 10 5 7
51 51 49 49 49 52 49 45 43 39 40 38 33 37 45 48 45 43 38 59 43 28 27 20 20 17 10 20 24 29 23 16 34 34 30 19 14 10 14 16 17 15 10 10 5 5 4
58 62 61 56 52 54 52 48 47 43 41 40 41 45 39 38 50 53 51 53 28 34 27 35 20 16 16 16 23 24 30 26 15 32 40 30 16 17 16 14 17 14 14 16 13 8 9
56 58 58 58 57 52 53 51 50 47 46 43 47 48 37 36 52 56 62 41 41 30 36 30 28 21 24 19 13 25 25 28 21 20 31 32 20 18 16 17 20 17 17 16 16 16 16
53 54 53 51 58 55 53 54 51 52 49 51 54 46 40 41 46 64 70 49 45 36 35 28 26 30 20 17 20 13 25 25 29 20 25 31 25 26 23 21 18 17 20 21 21 16 16
52 50 48 50 54 55 52 54 54 52 54 58 63 44 55 55 49 60 58 58 42 47 37 33 28 32 26 18 14 17 21 24 23 32 22 33 28 28 27 22 21 20 17 19 21 20 19
53 57 53 51 55 61 62 60 55 56 54 66 64 50 50 40 50 58 60 57 47 41 37 38 36 32 32 23 14 15 16 18 14 27 33 30 21 19 20 20 23 26 24 24 24 22 22
41 48 58 55 55 58 61 66 61 59 58 71 63 59 42 48 40 53 55 54 55 40 43 36 35 23 37 38 27 14 24 15 9 9 13 27 27 20 22 20 17 17 28 23 22 23 23
34 34 41 54 57 59 59 61 64 64 59 69 61 68 42 40 41 55 65 50 46 45 44 30 30 35 27 35 33 26 25 22 21 18 16 13 24 19 17 14 8 20 15 20 24 23 21
30 30 34 41 58 59 57 59 58 61 57 68 63 67 58 37 39 40 46 44 39 40 35 38 27 29 32 30 30 20 24 30 29 20 20 19 19 12 11 16 17 16 22 21 22 25 19
18 20 28 37 49 50 56 58 56 59 57 66 58 63 51 51 37 32 36 36 45 42 37 34 25 26 28 26 14 14 13 20 11 15 22 23 26 19 15 10 8 18 20 17 18 34 19
9 15 32 41 45 49 53 53 54 56 55 63 55 57 58 33 31 30 36 41 39 36 37 36 29 31 30 24 21 17 14 13 24 15 12 25 28 27 25 12 14 17 18 16 15 30 17
15 21 31 33 44 44 50 47 56 54 58 57 56 53 54 40 29 27 31 30 33 37 41 33 31 30 31 26 21 13 12 15 16 24 17 17 19 21 21 16 16 22 22 24 26 20 20
24 25 28 34 42 42 43 47 44 51 60 50 56 62 52 38 31 35 26 32 39 39 35 34 47 40 36 23 18 16 15 14 19 23 31 25 19 14 21 21 28 22 19 22 21 22 24

GFSGBSN_700_spd_051.txt.gz
Wind_Speed
36 36 36 36 36 36 34 32 33 31 30 29 28 28 29 30 30 30 28 28 27 26 26 23 21 23 19 17 16 14 14 12 10 8 8 7 7 6 7 6 6 7 7 9 10 8 4
37 38 38 37 37 37 37 36 35 34 32 31 30 29 29 29 30 31 31 29 28 29 29 27 22 25 21 17 19 15 13 13 12 9 9 10 6 10 8 8 10 7 11 10 9 5 9
40 40 40 40 39 39 38 37 37 36 35 32 31 31 30 29 29 29 31 30 30 31 29 29 25 25 23 16 17 16 13 14 13 11 11 11 9 7 7 7 11 11 11 9 13 11 8
42 42 43 42 43 42 41 40 39 38 36 35 33 31 31 30 29 28 27 29 30 31 30 28 28 23 29 19 18 15 14 15 15 14 15 14 12 10 10 10 11 12 13 15 6 9 8
42 43 43 44 45 45 45 44 42 41 39 38 36 34 32 30 29 27 26 26 27 28 30 27 28 24 28 22 20 17 17 16 16 15 14 13 11 9 10 11 13 14 20 9 4 10 8
38 39 41 42 43 45 46 47 46 44 42 40 39 37 34 31 29 27 24 25 25 25 27 27 27 23 22 14 13 18 19 21 16 16 15 14 10 11 11 14 18 12 15 14 12 9 8
38 38 38 38 39 41 43 46 47 47 46 43 41 40 37 34 31 28 25 23 22 22 25 24 11 21 21 15 18 17 21 22 18 17 16 14 14 16 11 11 15 13 15 13 5 2 6
39 40 40 40 40 39 39 41 43 45 48 48 45 42 40 37 34 30 25 24 24 24 29 25 22 27 20 22 17 19 25 27 23 21 17 16 19 13 11 11 12 12 14 14 6 7 7
41 41 41 42 42 42 40 39 38 39 43 46 48 45 42 40 37 32 28 25 25 25 32 35 32 31 27 28 22 20 27 27 23 22 20 20 10 12 9 11 12 13 16 6 11 6 12
42 41 42 43 44 43 43 42 40 37 35 38 44 49 45 42 37 34 30 25 21 19 20 24 29 35 37 36 37 29 28 28 24 25 22 21 18 12 11 13 13 17 15 8 9 12 11
39 38 37 37 39 43 44 45 43 40 36 34 34 42 47 44 42 35 30 23 18 11 7 5 20 22 23 38 23 37 32 32 31 24 25 24 18 18 16 16 14 11 9 12 13 16 17
38 38 37 35 36 39 40 42 46 44 38 36 32 33 43 46 43 35 32 20 15 9 14 10 14 14 22 28 26 17 37 33 28 25 23 24 16 14 13 15 15 12 8 12 14 15 15
41 40 39 38 38 39 39 40 39 43 42 40 35 32 36 45 41 34 29 21 15 23 15 19 13 14 19 19 28 26 38 39 36 34 32 25 22 18 14 12 13 17 14 15 12 13 12
43 42 40 39 39 39 40 40 40 40 39 39 39 35 34 39 40 37 31 26 22 33 35 6 14 14 18 21 28 30 33 41 39 31 27 29 29 26 18 19 13 21 20 12 8 8 7
44 43 44 45 42 39 39 43 43 41 41 34 38 40 38 34 36 38 39 31 51 34 21 33 8 18 18 21 22 29 36 41 41 37 28 29 28 18 25 18 18 17 26 21 19 10 9
46 47 49 49 50 49 46 43 44 42 36 30 34 41 43 36 27 41 45 37 47 38 31 19 31 17 22 22 25 31 35 36 39 38 30 16 22 19 19 19 19 19 17 19 17 6 10
51 53 54 53 52 48 46 42 39 39 35 31 33 37 47 37 28 41 47 53 41 38 24 31 31 26 19 23 29 27 28 23 37 36 31 24 19 19 17 23 23 21 16 19 15 19 5
55 58 56 46 41 39 41 41 41 39 39 39 41 46 40 40 39 44 55 64 60 36 34 26 28 25 30 21 25 27 32 33 28 33 37 31 19 21 23 22 22 22 23 23 21 16 14
56 53 49 50 50 52 49 45 44 45 45 46 50 47 43 40 50 51 58 64 56 48 38 32 31 25 23 21 18 26 24 23 16 33 36 32 27 22 20 18 18 21 21 22 24 19 17
51 49 49 49 51 54 57 56 51 50 49 52 56 49 41 45 50 44 51 65 56 48 41 34 32 32 27 22 20 9 27 22 26 19 33 35 29 33 26 27 22 25 23 23 23 20 20
48 50 50 50 51 52 51 49 51 55 55 59 67 45 59 54 53 59 50 45 52 54 47 37 35 33 34 30 24 23 18 22 21 25 28 31 37 29 31 25 22 27 28 27 30 29 26
48 48 48 51 51 53 53 51 52 56 58 65 69 45 45 43 56 46 45 54 53 50 45 47 41 34 31 32 26 22 17 18 14 24 30 26 28 32 33 27 24 25 24 25 26 28 29
46 46 46 45 47 49 52 54 56 66 63 71 70 68 36 54 40 49 50 53 59 51 51 48 42 28 34 25 17 18 20 22 18 7 19 21 27 26 29 26 27 29 27 27 27 27 25
45 42 44 47 49 51 57 58 64 61 65 70 64 59 41 38 44 44 50 46 49 51 49 44 43 38 32 26 21 15 20 20 21 17 7 13 21 27 19 20 17 22 21 23 28 27 24
40 43 46 46 47 47 58 65 62 63 65 65 58 59 49 41 39 42 35 39 39 46 41 40 41 39 29 27 18 14 13 22 20 27 9 15 16 20 21 22 21 22 21 21 20 23 23
33 36 39 40 40 42 51 64 56 71 61 62 59 47 52 42 41 36 35 36 42 46 42 37 43 34 26 31 23 23 14 13 15 18 24 21 21 23 16 20 19 27 23 15 16 24 18
21 17 20 28 34 41 46 55 57 62 60 61 57 50 56 47 33 28 33 35 39 43 39 46 37 36 39 35 28 25 24 19 20 18 18 20 22 29 26 17 18 18 17 19 20 29 13
15 20 25 22 30 37 47 56 54 57 64 61 51 49 58 40 29 29 21 31 38 45 42 35 40 28 29 24 26 21 20 23 22 23 26 17 14 19 22 23 19 17 20 22 27 18 15
8 9 19 19 28 40 50 49 51 54 57 57 55 41 56 33 24 42 25 26 35 37 44 34 45 42 28 25 24 24 23 21 22 20 21 27 22 19 19 19 28 25 27 27 21 18 20

GFSGBSN_700_spd_054.txt.gz
Wind_Speed
34 30 32 32 33 35 34 34 33 32 32 31 30 28 28 27 29 29 28 27 28 27 27 25 25 24 22 22 16 21 14 15 14 12 9 8 8 8 13 12 12 13 12 14 15 14 12
35 34 34 36 34 34 35 34 33 33 34 33 33 32 30 29 28 27 28 28 28 30 29 28 26 26 27 26 17 20 16 13 16 13 10 11 9 8 17 14 14 14 16 16 15 16 11
38 38 37 38 38 39 37 36 35 34 34 33 33 34 32 31 29 28 27 27 28 29 30 30 29 30 29 21 23 19 16 13 16 15 12 11 11 12 7 13 14 16 18 17 18 12 14
39 39 39 39 39 39 39 40 39 36 35 34 34 34 33 32 30 29 28 27 26 26 28 29 30 32 35 21 21 19 17 16 16 16 14 11 14 14 14 13 15 17 16 20 17 18 19
37 37 37 38 40 40 40 41 41 41 39 37 36 36 34 32 31 29 28 27 26 25 26 27 28 32 33 27 23 20 20 17 17 17 16 15 16 14 10 15 17 17 20 18 9 16 10
35 35 35 35 36 37 39 39 40 41 42 42 40 38 37 35 32 31 28 27 26 25 26 26 26 27 20 22 14 19 20 18 17 18 17 18 13 14 15 14 22 19 15 19 18 11 9
35 36 35 35 35 35 35 35 37 38 40 41 43 42 40 38 35 33 29 25 24 23 27 26 14 24 16 14 15 17 19 22 18 18 21 18 16 19 18 18 22 19 16 16 3 5 4
39 38 37 37 36 36 37 36 35 34 35 36 39 42 43 41 37 33 31 25 20 28 34 31 28 30 23 20 20 17 19 26 25 25 20 18 26 18 18 16 13 14 16 16 10 2 6
40 39 39 38 38 38 38 39 38 35 33 34 33 36 41 42 40 33 33 25 25 25 35 40 36 34 26 29 25 17 25 28 26 25 25 27 23 19 18 15 15 15 17 15 12 11 12
40 40 39 40 40 41 40 40 39 39 36 34 32 31 32 38 36 36 29 25 22 19 24 35 34 36 35 31 33 25 26 29 25 28 26 27 22 13 16 16 15 16 16 14 8 11 12
39 40 41 41 41 40 40 39 38 38 37 36 35 31 30 30 34 31 23 29 16 11 7 7 12 20 19 40 24 34 32 29 31 28 25 30 25 25 21 18 14 16 7 14 15 14 16
40 42 41 39 37 37 36 36 36 36 35 34 36 32 31 29 29 25 25 20 20 8 13 7 17 20 23 27 39 13 28 36 32 29 29 27 23 23 24 19 17 16 10 11 11 15 15
41 39 38 37 35 36 36 35 34 34 35 32 30 33 33 29 23 21 23 21 16 20 15 16 17 17 19 21 32 33 28 40 43 39 37 30 28 25 20 20 19 16 15 13 9 12 10
38 37 37 38 38 37 35 33 33 35 35 34 30 30 35 32 24 30 28 29 23 38 39 5 15 15 21 19 24 32 29 39 44 36 34 32 29 31 25 20 20 21 23 16 6 4 8
39 39 38 38 39 37 36 35 31 31 34 35 31 32 35 36 27 33 31 36 45 43 25 33 13 17 20 20 18 27 34 38 44 45 38 34 34 25 28 23 24 17 27 25 21 8 6
38 38 38 38 38 38 37 37 36 35 33 34 32 31 34 36 27 31 35 41 46 45 37 29 30 23 18 22 23 26 33 32 40 40 36 30 25 30 34 28 23 25 20 21 22 6 5
39 38 37 39 41 43 43 42 41 39 36 29 31 35 38 28 30 34 47 54 59 54 40 39 29 25 36 23 25 28 33 30 35 38 39 37 30 22 25 31 27 23 24 20 19 21 7
43 44 45 44 44 45 45 42 40 35 34 35 39 45 36 31 43 42 53 57 54 44 40 43 33 31 29 34 18 29 30 31 28 37 44 42 19 29 26 26 22 26 25 24 21 14 13
48 48 49 49 46 44 45 38 40 39 41 43 48 48 34 38 52 56 56 54 51 42 45 36 39 31 25 25 25 27 30 28 25 29 40 42 39 21 25 28 26 28 29 26 28 21 24
50 51 49 47 49 51 47 42 41 44 44 47 51 49 50 39 45 54 55 60 57 51 41 39 33 32 28 29 29 12 20 28 19 28 34 38 35 31 21 26 26 29 27 26 30 25 17
54 50 50 52 50 45 42 41 49 45 49 50 60 44 54 58 56 56 52 42 41 36 46 42 41 38 33 26 30 25 21 17 22 24 32 29 40 39 32 28 27 27 28 29 32 27 26
52 53 50 47 45 44 43 44 50 51 52 55 64 57 54 40 54 53 51 52 47 28 39 52 46 44 36 30 28 27 26 24 29 20 28 34 29 35 35 31 35 29 29 29 30 30 31
45 44 44 46 46 46 46 46 48 58 60 60 65 67 43 61 38 47 56 58 52 43 33 42 48 39 40 38 22 32 23 26 14 29 23 26 29 29 33 33 29 38 35 29 25 29 27
41 42 43 44 44 46 49 48 49 51 57 63 61 65 55 37 52 45 50 53 49 39 41 35 45 46 40 30 33 28 20 23 12 23 25 22 24 31 21 26 25 25 28 28 28 27 25
39 41 43 45 47 47 49 49 51 53 54 63 60 62 65 42 46 51 45 43 42 39 36 38 41 44 40 31 29 26 18 16 23 13 24 21 17 21 19 26 21 24 22 20 23 28 26
36 36 37 39 41 45 48 49 51 53 55 63 64 65 60 58 34 35 37 37 43 41 33 38 41 40 38 46 26 20 9 9 7 3 13 28 13 11 13 17 12 18 24 19 25 29 23
29 31 32 34 36 43 52 52 53 53 54 62 66 63 60 56 46 31 37 39 32 36 42 33 36 33 43 46 42 30 25 23 12 10 16 20 30 24 24 16 17 19 21 25 28 24 23
24 28 32 34 33 31 46 52 53 53 55 61 70 66 58 54 26 37 39 33 37 36 39 36 34 35 44 38 44 29 23 27 21 20 20 23 25 22 18 13 18 10 21 28 27 25 28
20 18 20 26 33 26 37 42 46 50 61 60 58 54 59 53 42 24 41 42 42 36 31 35 43 38 38 26 23 29 18 21 28 21 18 21 23 24 13 17 12 12 23 19 23 17 19

GFSGBSN_700_spd_057.txt.gz
Wind_Speed
29 28 31 34 32 28 28 29 29 29 30 32 32 30 29 27 26 26 25 26 26 27 28 28 27 27 23 25 15 21 20 17 14 14 12 12 13 7 5 11 21 19 15 13 20 17 16
33 31 30 33 28 31 33 28 28 30 31 31 32 31 31 30 28 28 26 25 25 26 27 29 30 29 29 29 20 21 18 17 16 15 13 14 14 6 14 24 21 13 19 17 17 15 14
33 34 33 34 35 33 31 29 33 34 32 32 32 32 31 29 29 29 28 26 25 25 25 27 30 33 34 23 21 23 20 13 19 15 15 14 14 12 18 16 12 16 17 20 19 20 18
35 34 34 34 35 35 34 35 35 36 35 34 36 33 32 32 29 28 28 26 26 26 25 27 28 32 38 22 24 24 22 19 17 17 17 15 7 16 21 19 15 18 16 21 11 18 22
32 33 33 32 33 34 33 33 35 37 38 39 39 37 36 34 33 30 28 25 26 27 27 27 28 30 32 23 20 21 23 21 17 18 16 17 16 22 19 14 17 13 23 22 24 25 20
33 33 33 31 32 33 32 31 32 34 35 36 37 39 39 38 36 33 29 25 25 28 28 30 30 30 22 16 14 11 21 22 20 16 19 21 22 21 19 15 24 17 19 23 20 12 15
35 35 35 34 33 34 32 31 31 31 32 33 33 35 38 38 38 36 31 27 25 29 32 32 28 27 18 19 14 8 15 21 20 19 23 21 23 28 21 18 13 19 24 16 13 1 8
37 37 38 37 37 36 35 33 32 32 32 31 32 32 33 34 36 34 34 28 24 30 39 34 33 36 28 18 24 21 15 23 27 28 22 19 31 23 16 15 23 24 16 15 16 6 8
39 40 40 40 39 37 36 35 34 34 33 32 31 31 31 30 27 28 32 26 24 30 39 42 37 40 28 28 34 26 21 23 30 30 31 28 27 16 14 15 23 18 18 17 19 13 12
40 41 41 41 40 37 36 35 35 34 34 33 32 32 30 28 23 22 24 25 25 27 25 42 35 39 34 34 40 29 27 27 31 34 30 32 29 22 25 25 18 17 16 17 18 9 12
41 41 40 38 36 36 36 36 36 34 32 30 29 30 31 29 23 14 18 21 23 17 7 8 9 12 9 32 30 31 32 33 36 32 27 36 26 29 24 20 17 20 17 16 13 16 15
40 39 38 37 37 38 37 36 35 34 32 29 25 24 28 28 18 9 12 18 16 11 12 7 13 15 17 16 29 18 34 36 35 32 33 29 25 29 30 24 22 18 18 17 15 13 11
40 40 39 39 39 39 38 35 33 32 31 29 26 23 24 26 13 19 22 20 16 16 11 18 13 15 15 18 17 24 34 44 40 34 39 34 38 29 27 26 22 16 21 3 4 7 7
40 40 40 40 38 36 35 33 32 32 31 29 29 26 24 21 20 19 32 27 16 34 36 14 13 12 17 17 21 23 29 37 43 36 20 33 31 36 27 29 24 23 26 11 6 4 8
40 40 40 40 37 35 34 34 33 32 30 26 22 25 26 20 24 27 32 34 36 33 22 38 14 17 18 14 16 22 34 42 35 49 38 26 40 26 33 26 26 17 25 27 26 12 4
41 40 39 37 35 35 35 34 34 32 32 25 24 25 27 17 28 35 33 42 52 49 35 20 23 18 24 12 20 24 26 19 48 35 47 38 23 35 31 28 28 30 17 19 26 5 5
42 40 37 36 35 33 32 33 34 32 30 25 27 28 32 19 26 33 47 54 52 51 38 36 33 32 27 24 21 18 26 27 17 32 40 47 35 26 27 34 34 29 28 24 20 12 6
42 39 37 37 36 36 34 33 33 34 30 28 32 37 34 28 34 44 54 54 51 43 34 46 44 28 29 29 27 24 30 22 15 23 40 44 29 39 37 26 27 35 32 30 22 13 20
42 40 40 40 39 39 39 37 35 33 33 33 39 40 40 31 46 53 52 51 51 41 26 28 34 44 35 31 29 21 21 31 24 25 37 39 43 23 20 31 24 41 34 28 31 30 25
41 41 42 42 43 43 42 41 39 35 35 39 45 41 42 42 48 50 53 55 51 37 45 31 38 30 37 33 31 29 29 22 25 24 23 38 42 43 32 16 27 23 35 32 28 31 31
42 43 44 45 46 46 45 41 36 37 41 45 53 53 51 54 63 53 47 44 44 47 45 29 41 42 41 33 27 31 31 38 22 18 11 33 41 44 40 25 24 32 30 34 33 34 32
45 46 48 48 48 46 44 43 44 45 44 53 59 64 56 60 44 53 47 55 55 40 27 41 39 37 41 39 33 28 28 29 26 18 16 10 36 34 42 42 32 23 37 32 37 35 35
46 47 48 48 48 47 47 46 44 40 50 51 63 64 52 54 47 43 60 58 54 46 33 22 31 31 45 47 27 30 29 33 38 27 22 18 26 27 39 42 41 37 37 37 32 26 33
35 34 34 35 36 37 38 39 39 41 51 64 55 63 61 46 51 62 59 53 53 41 38 38 22 33 39 37 24 29 29 31 26 36 30 30 20 28 27 26 16 22 27 28 31 33 26
33 33 34 34 34 36 38 41 43 44 50 58 56 52 69 58 36 52 57 57 45 46 46 35 38 29 23 29 36 33 30 27 31 29 35 28 18 30 27 29 20 38 29 20 24 28 28
29 30 32 34 36 37 40 42 42 44 49 54 64 51 49 49 52 51 45 50 44 36 36 46 32 31 24 29 32 37 25 23 15 17 17 25 11 34 13 7 18 25 26 29 21 30 21
29 30 31 33 35 37 38 40 43 44 46 52 56 65 54 24 55 50 41 41 39 41 39 33 39 32 33 33 36 36 28 22 19 20 16 19 17 12 5 4 16 11 18 22 24 19 22
24 26 29 32 33 35 38 41 44 48 47 54 52 57 61 55 30 52 42 42 32 38 39 34 34 33 34 38 36 28 30 35 20 18 19 12 7 7 14 7 8 6 16 21 29 20 21
22 26 29 30 30 31 38 40 43 46 48 53 54 52 47 54 21 37 43 50 31 36 37 33 33 32 37 37 38 31 34 25 38 27 26 25 24 13 10 18 13 14 24 19 16 21 12

GFSGBSN_700_spd_060.txt.gz
Wind_Speed
26 28 28 27 27 26 28 31 30 30 30 29 27 28 27 29 26 25 25 24 24 25 25 27 28 27 25 28 19 20 19 18 16 15 16 13 14 12 13 12 13 17 18 19 15 11 16
29 28 28 28 29 30 33 27 31 32 30 30 30 28 28 28 27 27 28 26 24 25 27 28 28 28 28 30 20 21 24 20 21 17 16 18 11 13 16 16 17 19 24 19 16 15 17
30 31 30 29 28 31 32 32 33 30 32 39 33 31 27 27 26 26 26 27 25 26 27 28 30 30 31 22 20 24 21 16 18 18 16 16 12 19 15 18 17 21 21 20 23 23 20
30 30 31 30 31 32 31 30 34 33 34 35 35 33 32 23 29 28 26 27 25 27 27 30 30 32 34 23 21 25 24 18 19 20 17 15 16 22 19 20 20 17 18 23 1 12 18
29 29 29 28 29 30 31 31 32 31 32 32 34 37 35 26 34 35 31 27 27 29 28 30 31 31 31 24 18 24 27 22 19 20 19 17 23 21 18 22 20 19 22 16 20 15 24
30 30 30 29 30 30 31 30 29 29 30 29 31 32 33 33 35 38 36 31 28 30 31 31 34 29 25 21 14 13 24 26 24 20 21 23 25 24 23 23 20 17 12 14 21 22 11
33 33 32 32 32 32 32 32 30 29 29 28 29 29 29 29 29 34 37 32 32 32 37 36 30 22 17 16 12 16 21 20 25 27 29 24 29 35 28 25 18 18 19 22 21 5 4
35 35 34 34 35 35 34 34 32 31 31 30 29 29 29 27 24 25 29 26 31 36 41 39 39 36 26 27 28 20 20 23 29 33 27 22 38 31 24 22 21 19 20 24 21 18 12
37 36 37 37 37 37 37 36 34 33 32 30 30 30 30 28 22 21 20 20 29 35 41 46 40 42 32 32 35 28 27 24 26 33 33 33 24 19 23 22 23 18 22 23 21 15 14
38 38 38 39 39 39 38 36 34 33 31 30 29 29 30 27 21 17 16 16 25 29 24 45 42 40 37 38 44 29 33 27 29 36 34 33 28 25 14 23 22 23 12 19 22 20 15
40 40 39 40 40 38 36 34 32 31 29 28 27 26 27 23 19 16 14 15 20 16 6 9 14 8 10 23 29 30 34 34 35 33 38 32 31 27 28 26 19 25 22 18 16 12 11
40 41 41 41 40 38 35 32 30 30 29 27 25 24 24 16 16 15 15 15 14 9 10 7 10 13 13 10 14 18 31 37 34 34 34 36 32 24 26 23 21 18 18 19 18 19 11
42 42 41 41 39 37 35 33 31 30 29 27 25 21 21 12 13 21 16 18 14 14 6 9 8 15 12 12 15 20 23 46 38 28 38 33 36 30 28 28 24 24 22 6 5 4 8
43 42 41 39 38 37 35 34 32 31 28 26 25 24 22 13 21 23 24 27 19 12 25 7 12 9 20 14 10 20 15 42 46 32 13 29 20 36 28 33 29 23 26 15 6 4 6
42 42 40 38 37 35 35 34 32 30 28 24 23 23 23 16 24 27 32 38 21 27 1 31 9 8 6 11 12 12 27 29 42 46 25 13 23 26 35 28 21 28 29 27 26 10 3
42 40 38 37 37 35 34 33 32 31 29 25 25 25 28 18 27 32 41 48 35 25 12 12 17 9 6 4 6 4 12 15 36 37 39 35 16 15 26 24 30 33 26 17 17 5 8
39 39 38 37 36 35 35 33 31 31 29 26 29 30 28 24 25 37 49 50 46 43 29 28 24 15 13 12 7 10 7 13 6 27 39 40 37 39 26 33 32 30 34 19 20 21 6
39 39 39 37 36 35 35 34 32 30 29 31 32 35 31 30 32 43 51 49 41 14 15 33 36 37 25 19 16 15 14 6 10 12 12 39 24 35 50 33 23 36 36 37 24 10 15
41 39 38 38 37 36 36 36 36 34 32 34 36 39 36 35 44 48 49 47 48 30 26 24 24 34 37 27 18 12 10 12 16 17 10 6 27 28 28 39 43 35 25 42 40 35 33
41 40 40 39 37 37 39 39 39 37 33 38 39 40 39 45 49 48 47 47 43 36 44 28 32 32 29 29 30 32 29 20 18 22 20 20 23 32 32 26 30 24 31 32 42 32 28
45 43 41 38 38 39 40 41 41 38 36 40 45 47 53 46 60 53 46 44 44 45 33 25 40 40 29 35 31 38 34 18 17 25 22 20 25 26 41 36 39 21 27 26 40 39 30
41 39 38 39 40 41 42 41 41 40 38 47 51 59 49 58 37 44 51 58 53 29 28 26 36 30 32 41 33 28 20 23 26 22 24 25 14 19 32 42 36 41 35 30 39 32 32
37 37 38 40 41 42 42 43 44 44 43 50 56 58 53 46 47 42 64 53 45 42 36 21 18 16 24 30 28 31 31 25 25 22 25 26 22 20 22 23 35 29 47 47 31 39 35
35 36 38 40 42 43 44 44 43 41 49 52 61 58 56 55 53 68 54 50 47 42 37 35 25 17 15 9 16 16 26 27 23 26 22 26 28 21 21 18 14 40 37 46 44 32 32
36 35 34 33 34 36 38 42 44 46 47 55 62 62 58 56 62 54 59 55 46 45 42 38 31 29 11 13 15 16 25 27 29 27 21 24 18 12 10 16 22 25 24 25 42 48 29
28 27 28 29 31 32 34 36 39 44 45 45 52 59 52 47 63 62 54 51 50 51 42 41 30 24 25 29 20 20 14 24 8 12 11 15 16 14 17 11 8 15 31 26 18 26 18
23 25 26 28 29 31 33 35 36 39 42 46 48 49 56 38 44 52 55 55 43 42 42 37 29 21 31 31 29 29 27 25 27 24 12 12 10 12 15 9 21 18 21 21 22 28 23
23 26 26 27 28 30 32 34 34 34 39 49 51 51 48 50 13 37 43 48 39 32 32 33 28 30 26 33 30 28 18 26 26 25 20 22 18 14 7 7 12 12 13 15 17 16 18
19 20 23 25 27 28 31 34 37 39 40 38 50 50 46 46 43 23 36 46 42 40 38 32 32 29 29 29 38 24 28 18 33 28 20 16 19 17 13 23 28 14 16 17 9 10 18

GFSGBSN_700_spd_063.txt.gz
Wind_Speed
28 28 27 27 28 28 28 27 26 28 30 31 31 32 32 33 31 29 27 26 26 28 26 25 26 27 27 29 19 21 20 16 17 17 16 16 16 15 16 13 13 15 18 19 14 14 15
28 29 29 29 30 29 27 28 29 31 30 30 35 33 34 32 31 30 28 27 27 28 30 29 28 27 29 31 19 24 24 23 22 21 17 19 14 15 19 18 19 20 20 21 18 15 16
29 29 30 30 32 31 30 30 30 30 31 34 33 34 36 37 37 35 29 26 27 27 31 31 31 32 32 22 22 24 20 21 19 20 18 17 17 18 21 20 22 21 23 20 21 20 22
28 29 29 30 31 32 34 33 33 33 32 31 34 37 35 33 31 32 32 27 26 29 29 31 32 35 40 24 24 21 23 25 20 20 16 15 20 21 24 21 22 19 19 18 5 3 10
29 28 28 28 29 30 30 31 31 31 34 35 35 35 37 37 37 30 31 29 30 31 30 33 33 32 36 29 24 29 28 26 23 23 21 17 22 24 24 24 22 22 22 16 11 10 21
30 30 30 30 30 29 30 30 29 30 32 32 33 33 32 32 31 32 33 32 32 34 35 35 36 30 26 19 12 22 24 28 28 25 24 24 26 29 30 28 25 19 22 15 11 9 14
32 32 32 32 32 32 31 31 31 31 31 32 31 33 31 28 26 27 28 35 33 37 40 37 35 30 21 23 19 26 21 19 29 31 31 28 31 41 34 30 24 21 19 23 10 4 10
36 36 34 34 34 34 34 34 33 32 33 32 33 33 33 27 24 23 23 24 32 35 39 39 42 38 29 33 24 18 25 25 27 35 32 29 38 36 31 27 23 21 23 23 16 9 15
37 37 36 35 35 34 36 35 33 34 33 33 32 33 33 28 23 22 20 23 26 31 35 44 39 42 34 37 38 31 24 24 28 33 35 38 29 29 32 31 27 25 23 17 19 16 17
38 37 37 37 37 36 36 35 35 34 33 33 32 32 31 25 22 20 21 21 23 23 21 39 40 38 37 42 47 30 35 30 33 31 33 34 39 10 13 31 26 26 20 19 20 22 22
38 38 38 38 37 36 37 35 34 34 33 31 29 29 27 21 18 17 20 16 16 12 6 8 11 16 15 21 22 29 34 41 38 33 31 32 34 40 34 25 18 28 16 17 21 30 18
41 41 40 39 38 38 38 36 34 34 33 29 27 25 22 17 15 20 17 14 10 7 9 4 4 9 17 11 10 12 24 43 41 35 33 27 30 24 25 25 24 18 18 21 25 22 13
43 43 41 40 40 39 39 37 35 33 30 28 25 23 18 16 15 20 18 15 10 10 3 3 2 9 12 8 8 16 12 44 37 33 37 32 34 33 26 20 21 19 16 4 6 5 9
44 42 41 41 40 40 39 36 35 31 30 26 23 24 20 17 20 20 23 22 17 7 22 4 4 3 10 9 8 14 13 33 42 26 9 27 18 37 32 36 27 24 25 13 6 4 7
44 43 42 42 41 39 38 36 34 29 27 21 19 23 23 18 23 24 29 36 15 21 7 15 4 3 4 8 9 9 16 16 38 38 19 13 20 19 18 34 30 31 31 24 32 17 4
42 42 42 41 40 38 36 34 32 27 23 20 24 26 27 20 25 29 37 40 29 13 13 8 8 3 3 3 1 2 5 6 16 28 40 22 7 10 14 15 30 31 16 14 16 5 7
41 41 40 40 38 36 35 34 32 27 23 24 28 30 33 25 27 33 47 40 33 27 17 16 13 14 9 8 3 1 2 1 7 4 25 32 38 33 21 15 20 24 29 30 23 25 8
38 38 38 37 37 36 35 33 31 29 26 31 33 37 38 30 35 40 49 45 31 17 34 34 32 30 26 22 22 11 2 6 9 9 4 8 13 26 46 45 34 19 32 29 27 7 17
36 36 36 36 36 36 35 34 33 32 33 36 38 40 37 34 46 47 41 40 42 28 22 17 27 31 39 30 15 14 19 10 7 9 10 8 2 10 24 25 23 31 39 24 28 30 34
37 37 37 37 36 36 35 34 35 36 39 39 39 40 40 38 47 46 45 42 33 42 40 28 30 27 22 17 20 17 19 15 12 15 16 17 12 11 9 17 13 20 27 35 30 35 29
41 41 40 39 38 37 36 36 37 39 42 42 43 40 43 45 53 49 43 45 44 39 24 28 40 35 24 22 18 24 26 24 26 13 13 17 15 20 20 20 24 33 25 28 38 43 34
45 44 42 42 42 40 40 38 40 43 42 46 48 50 38 52 38 46 50 53 40 30 32 34 32 27 21 30 36 29 16 15 15 10 13 13 22 27 31 18 13 26 36 42 34 29 32
37 36 35 35 36 38 39 39 41 44 43 44 50 50 46 41 45 45 58 48 40 36 29 23 18 14 15 22 23 23 20 19 24 19 15 14 12 16 21 26 31 17 36 40 39 46 42
34 33 32 32 32 35 37 40 43 46 48 48 50 56 54 47 53 57 44 45 43 42 35 27 22 17 3 7 11 15 19 18 21 22 17 15 13 12 14 16 5 10 11 19 41 43 43
31 30 30 30 31 33 36 40 43 46 50 51 53 57 61 62 50 46 49 39 34 34 34 31 23 21 17 13 14 13 13 16 25 22 23 18 15 10 6 5 23 48 26 19 24 38 42
26 27 28 29 31 35 37 39 41 44 46 48 56 58 59 57 56 42 40 42 43 38 30 34 28 20 21 24 20 12 7 4 4 8 23 22 20 18 11 4 6 39 38 33 31 43 33
27 28 30 32 33 34 37 40 41 43 39 46 55 62 64 59 45 35 49 51 44 40 35 29 22 25 23 28 28 22 20 12 10 10 10 12 13 19 17 10 14 25 26 31 19 21 16
22 21 22 25 26 28 30 31 33 37 47 41 47 52 54 57 49 39 28 29 35 38 41 36 22 24 25 31 31 24 16 15 20 23 18 17 10 15 14 10 12 21 14 9 13 4 21
21 22 23 26 28 30 31 31 30 34 39 45 45 45 44 44 43 42 28 30 31 26 23 33 32 20 22 24 27 22 26 17 15 22 20 26 27 21 22 19 16 27 26 21 26 16 5

GFSGBSN_700_spd_066.txt.gz
Wind_Speed
28 28 29 29 29 29 29 30 29 29 29 27 27 27 30 33 32 31 32 33 33 35 32 32 32 29 26 24 17 16 20 16 13 13 12 14 17 16 16 16 20 20 22 24 24 20 18
27 27 28 29 29 30 31 31 31 29 29 29 30 31 32 30 33 33 31 31 32 33 36 35 34 31 31 27 20 17 24 23 24 24 20 19 19 16 18 18 21 19 24 26 27 23 22
29 28 28 29 30 30 31 32 33 33 32 31 31 31 29 33 35 31 34 36 35 34 36 36 36 36 37 23 22 19 21 19 24 27 25 20 21 20 20 19 21 21 25 27 26 24 26
29 28 28 28 28 29 30 31 32 34 35 36 35 33 33 32 29 32 33 32 32 37 34 34 36 37 43 25 26 23 26 22 23 20 18 20 23 24 24 20 18 20 21 19 2 4 8
29 29 28 27 28 28 28 29 30 31 32 33 34 34 34 35 35 36 32 33 39 36 38 38 36 35 38 29 28 30 30 27 22 25 23 21 23 24 25 24 23 23 23 17 12 10 11
31 31 30 30 29 29 29 29 29 29 31 32 31 34 31 31 30 30 34 34 36 39 38 40 43 34 27 18 10 22 29 32 30 28 27 28 24 29 29 28 27 24 20 20 20 12 13
33 33 33 32 31 31 31 30 31 31 31 32 33 33 32 31 30 29 31 30 32 36 39 40 40 36 21 22 24 21 20 21 28 30 35 34 31 39 36 31 31 20 14 10 14 12 16
35 35 34 34 34 33 33 33 32 32 31 33 33 34 33 29 29 27 28 30 31 33 38 38 41 45 36 34 35 17 22 27 24 25 33 36 40 36 32 28 30 28 25 23 17 12 16
36 36 36 36 35 34 34 34 33 32 32 32 33 33 32 29 26 27 25 27 29 31 37 38 37 46 35 38 40 31 23 24 27 28 31 40 35 32 36 30 32 33 31 23 19 16 17
37 36 36 36 36 35 35 35 34 32 32 32 31 32 30 28 26 23 24 24 24 25 24 32 27 23 30 38 43 32 29 31 27 28 26 28 36 20 16 31 35 34 30 23 20 20 15
39 37 38 37 37 36 37 36 35 33 32 32 31 30 27 26 21 19 22 19 16 14 6 10 7 12 10 14 14 19 27 37 42 32 27 24 25 35 27 22 27 32 27 21 20 21 20
43 40 40 39 39 38 38 37 35 33 32 31 30 28 25 21 16 20 17 14 8 5 8 4 5 10 9 10 11 13 17 37 40 39 34 28 25 19 30 33 20 15 15 16 17 18 9
45 44 43 43 41 40 40 38 36 34 32 30 29 26 25 19 15 19 15 15 8 8 4 1 0 8 8 7 6 11 8 23 29 29 34 29 33 26 16 18 20 22 20 4 3 4 6
42 43 43 43 42 40 40 38 37 33 32 28 27 26 25 17 19 19 18 19 15 4 16 10 6 4 4 5 3 5 6 7 29 23 12 26 16 34 28 27 14 23 25 9 6 4 4
38 39 40 40 39 39 38 37 35 34 30 27 25 24 25 17 21 21 22 27 9 13 8 9 11 6 1 3 2 1 4 5 12 28 16 14 16 18 17 26 32 27 20 26 23 12 4
35 36 36 37 36 36 36 34 33 32 27 23 22 21 22 18 21 25 29 33 24 11 12 15 6 4 3 5 3 4 5 11 4 18 26 17 5 5 8 10 23 31 14 17 13 3 5
37 37 37 36 36 35 35 33 31 28 24 18 22 26 26 21 23 29 38 32 27 24 10 12 13 10 7 7 5 6 7 9 7 4 17 30 25 18 12 4 12 24 31 25 18 17 4
39 37 37 37 35 34 34 32 31 26 22 25 29 33 33 28 33 40 42 36 36 16 31 21 23 22 19 20 18 10 3 6 6 6 8 4 6 14 34 36 25 20 17 20 23 11 11
35 36 36 35 34 32 32 32 31 28 26 28 34 38 30 22 43 44 38 36 32 36 33 27 38 28 31 28 12 4 7 3 4 7 5 4 3 2 6 14 16 15 22 26 30 22 28
33 33 32 32 32 32 32 32 32 30 28 35 36 35 35 38 48 43 40 36 32 30 33 26 23 26 22 8 8 10 12 14 9 4 5 11 9 5 1 2 10 13 15 17 26 32 25
35 36 38 37 37 36 35 34 34 33 32 40 44 37 39 39 46 42 42 33 34 28 26 33 35 31 25 24 19 14 17 19 17 17 15 9 14 15 18 18 20 19 19 23 30 29 33
39 38 39 40 40 39 36 36 35 33 30 43 46 46 42 40 38 47 41 42 32 29 27 27 26 24 20 25 29 29 19 9 11 6 7 12 11 11 16 14 20 30 24 26 29 33 40
44 43 41 40 40 38 38 36 36 36 36 43 52 49 38 36 42 39 45 43 33 31 31 29 25 17 22 20 19 24 18 19 19 15 14 13 9 8 8 6 11 23 15 13 19 18 30
37 34 33 33 36 36 36 37 40 40 43 48 52 51 47 46 38 43 37 41 39 31 26 23 17 19 14 8 10 11 14 18 23 23 19 23 14 13 8 6 4 21 20 24 26 29 22
26 27 30 35 36 35 35 37 39 42 44 49 51 49 48 52 44 35 39 38 28 31 33 30 22 13 16 16 10 10 8 13 21 23 21 25 21 11 6 7 21 33 20 15 22 41 35
27 29 29 28 30 31 32 34 37 41 45 48 52 49 46 46 55 48 28 34 36 35 28 28 18 15 18 21 19 9 7 4 3 2 19 21 21 18 9 4 5 22 15 19 20 32 29
28 30 30 28 28 27 29 32 34 39 46 49 51 55 51 50 48 40 49 46 33 31 31 25 21 21 22 24 21 16 16 6 5 6 7 21 24 26 22 11 16 18 15 12 6 16 17
24 25 28 28 30 32 34 35 35 35 37 45 47 51 53 53 45 40 46 35 37 36 32 27 21 26 24 28 22 16 11 13 17 17 10 13 11 14 15 7 13 9 8 11 20 22 18
24 23 23 23 22 23 28 31 31 37 38 38 46 45 44 49 35 46 28 34 36 19 19 26 24 24 19 22 26 16 19 16 16 12 16 24 26 18 19 20 21 21 21 19 21 22 21

GFSGBSN_700_spd_069.txt.gz
Wind_Speed
28 28 28 28 29 28 28 29 29 29 29 29 29 29 29 27 28 28 30 32 32 32 32 34 34 32 32 27 20 18 17 13 11 13 13 13 14 14 17 19 22 25 21 22 23 26 24
28 28 28 28 28 28 28 29 30 30 29 29 29 29 29 29 30 30 33 30 30 34 33 33 33 32 35 32 24 20 21 24 20 18 18 15 17 16 18 20 23 21 19 23 26 26 27
30 29 29 28 28 28 28 28 29 29 30 31 31 31 31 30 32 30 31 29 33 31 31 36 36 33 37 29 28 23 21 24 25 28 29 25 23 22 21 21 22 22 24 24 24 23 28
30 29 29 29 28 28 27 26 27 27 28 29 30 32 33 31 32 34 32 32 31 31 34 33 34 38 43 29 29 29 27 27 24 24 25 26 26 26 24 22 19 16 21 24 16 8 7
30 30 29 29 28 28 27 27 27 27 27 27 28 28 28 29 30 29 29 33 37 33 30 35 35 35 42 36 32 31 30 30 27 26 24 25 26 28 27 26 24 21 19 18 16 19 14
31 31 30 29 29 28 27 28 28 27 27 28 28 28 28 27 30 31 29 31 30 32 29 32 34 32 28 24 17 18 24 30 34 28 28 29 29 30 31 29 26 25 23 25 24 18 17
33 32 31 30 31 31 30 30 30 30 29 28 29 29 30 29 30 29 31 30 32 33 32 29 31 33 31 17 21 18 22 18 22 31 35 35 36 39 38 32 29 23 17 17 14 14 19
34 34 33 32 31 31 31 31 32 31 30 30 31 30 30 29 30 29 30 29 32 33 35 30 32 36 31 31 34 27 22 22 24 23 30 37 43 37 32 27 27 29 25 25 23 21 22
36 35 34 33 32 32 31 31 31 30 29 29 30 29 28 29 27 28 27 27 28 30 35 36 30 28 29 34 39 34 30 21 22 26 27 37 33 37 35 32 28 32 32 28 25 21 20
37 36 36 34 33 32 30 31 30 29 29 29 29 28 27 27 25 24 24 23 23 23 20 19 12 7 10 20 35 32 35 35 31 22 25 22 31 20 21 34 31 32 31 29 25 20 12
39 37 36 36 35 33 32 33 32 30 30 29 29 28 28 27 21 21 20 19 17 15 6 8 6 6 9 7 5 9 33 35 40 39 21 21 20 35 28 15 20 26 24 22 21 21 19
39 39 38 38 37 36 35 33 33 32 30 29 30 29 29 26 19 20 16 14 10 3 8 2 4 5 11 5 7 6 8 33 33 33 34 27 19 17 21 30 24 13 15 8 13 13 8
38 38 38 38 38 36 36 35 34 32 30 30 30 29 28 26 16 19 14 13 5 7 4 2 2 8 10 5 2 9 7 13 22 21 32 26 31 25 17 17 24 21 10 3 3 5 8
33 32 33 34 34 33 33 34 34 31 30 30 29 31 28 24 17 19 14 14 11 4 11 11 9 11 3 2 3 2 4 6 23 21 12 21 15 32 24 23 24 31 30 10 7 5 3
33 31 31 31 31 31 30 30 31 29 28 28 28 29 27 20 18 17 18 20 9 9 11 8 4 6 1 1 2 4 7 1 4 22 13 20 17 21 19 28 24 17 22 27 9 5 3
34 34 33 34 32 30 29 28 28 27 26 25 25 25 25 16 19 18 24 29 24 10 6 10 4 4 4 9 4 6 4 9 5 15 17 10 4 10 9 15 29 23 14 10 11 5 10
34 35 35 35 34 32 29 28 27 25 24 18 23 20 23 18 22 26 36 31 26 23 10 9 7 7 1 3 6 10 4 8 10 8 21 16 9 10 12 10 16 22 23 17 12 17 7
34 33 33 33 34 33 31 28 26 23 18 19 19 24 20 21 28 32 35 33 28 14 28 21 20 16 10 5 8 6 2 4 7 7 7 8 8 17 18 13 6 12 12 21 15 12 9
34 32 32 31 31 31 28 26 25 22 21 20 26 27 28 23 34 38 28 31 31 27 27 20 24 20 15 12 10 7 6 6 2 3 1 2 2 3 3 8 15 17 11 17 19 21 22
32 32 31 29 28 27 26 26 24 21 20 24 29 31 29 32 39 36 36 36 28 26 27 29 31 23 20 18 13 7 6 11 12 6 4 3 2 2 3 2 2 3 7 9 8 8 14
28 29 29 28 28 28 27 27 27 25 25 27 32 35 36 18 46 39 33 33 35 32 25 23 25 29 20 11 17 21 19 16 14 17 17 9 7 8 11 11 12 14 12 12 18 21 17
32 32 34 34 34 34 32 32 30 26 28 32 38 45 41 39 28 35 40 36 35 33 28 23 25 23 24 29 26 25 19 14 9 7 8 12 7 9 12 14 17 19 18 15 19 15 18
39 40 38 37 36 36 36 35 33 31 31 38 42 43 35 43 42 26 38 38 33 30 29 27 21 18 20 19 20 21 20 20 18 18 13 9 7 6 5 8 11 16 21 20 20 20 23
36 37 40 40 37 34 32 33 34 35 37 40 38 46 43 46 23 39 30 38 33 35 30 23 19 19 19 16 15 16 16 17 24 24 22 16 9 6 4 4 6 11 13 15 20 21 20
26 26 27 28 29 30 30 30 34 38 41 44 44 45 39 48 47 39 22 23 27 26 30 29 24 18 13 14 12 7 7 10 16 17 23 23 17 9 6 9 17 27 16 11 15 17 22
25 23 24 23 25 26 30 33 40 41 44 47 46 47 43 29 48 43 39 30 22 26 28 30 22 21 16 15 13 7 6 4 2 3 11 24 19 22 7 3 4 2 6 4 12 21 9
25 26 24 25 28 29 28 26 32 40 42 45 47 45 49 46 38 35 40 44 36 28 26 27 23 23 23 21 18 13 9 7 4 5 7 19 18 25 21 7 13 13 13 5 2 8 17
20 21 23 25 27 30 28 28 29 34 39 42 46 45 48 50 46 42 37 35 35 37 28 26 19 22 23 24 17 13 11 11 15 9 8 13 14 14 13 10 12 5 4 4 13 16 18
24 23 25 24 23 24 27 28 29 30 34 38 44 47 45 47 35 41 40 30 28 29 29 33 30 20 19 16 19 15 18 13 18 9 18 15 19 15 15 12 7 6 9 22 26 27 21

GFSGBSN_700_spd_072.txt.gz
Wind_Speed
27 27 27 27 27 27 27 27 28 27 27 26 25 26 24 24 24 25 26 27 29 30 29 31 32 31 29 29 24 21 19 15 12 13 17 18 19 18 19 18 20 25 19 17 20 22 25
30 29 28 29 29 28 28 27 28 28 28 26 26 26 25 25 25 25 25 26 28 29 28 31 30 30 33 33 25 25 22 24 22 18 18 20 18 17 16 20 21 15 19 21 21 21 22
30 30 29 28 28 28 27 27 26 26 27 27 26 26 26 27 28 28 27 30 31 30 28 27 28 30 31 30 29 25 21 25 28 26 24 22 20 19 17 18 25 25 23 19 21 21 19
29 29 29 27 28 27 26 25 25 24 25 26 25 25 24 25 27 27 27 26 27 28 30 31 32 31 36 27 27 31 29 27 27 30 32 33 29 27 26 20 22 17 18 20 15 15 16
30 30 29 28 27 28 27 26 26 26 24 24 25 24 23 24 26 26 25 26 28 29 29 29 29 28 32 17 18 27 32 29 32 31 31 29 33 33 24 24 20 19 20 17 15 14 14
32 31 31 30 28 28 28 27 26 27 26 25 24 24 23 25 25 25 26 26 28 29 28 29 28 25 16 11 18 17 25 35 32 33 34 29 31 27 25 26 34 24 20 19 18 10 16
33 32 33 32 31 28 28 28 27 27 27 26 26 25 24 25 25 26 28 26 28 32 29 24 25 27 24 20 19 15 22 25 18 28 36 32 32 33 33 32 26 23 19 18 14 12 16
35 34 33 34 31 29 29 27 27 27 26 25 25 24 24 25 23 25 27 27 27 30 35 27 26 29 27 28 30 28 21 22 23 22 27 25 36 32 24 25 26 27 21 22 17 12 17
36 36 34 33 33 31 28 28 25 25 23 23 24 24 25 24 22 24 25 25 25 27 31 27 22 18 20 29 30 29 30 27 22 23 24 32 20 31 27 24 25 29 27 23 20 13 16
36 34 34 33 33 32 29 28 25 24 24 23 23 24 26 23 20 22 23 21 21 20 17 11 8 5 9 9 12 20 30 25 27 21 22 23 25 22 23 29 28 31 25 23 22 15 17
38 36 35 32 33 33 30 29 27 26 24 25 25 25 26 24 19 21 20 18 16 12 7 9 4 4 8 7 5 10 29 37 33 22 18 18 16 27 29 26 25 29 22 18 19 22 21
37 37 35 34 33 34 32 32 30 29 28 28 27 27 28 25 20 20 17 14 8 3 7 2 3 5 12 9 5 8 6 32 29 33 25 27 12 12 22 18 20 8 10 9 10 14 16
34 34 34 32 33 32 33 32 31 29 30 29 27 28 28 25 20 18 15 9 4 8 3 3 4 5 9 4 3 5 6 12 19 21 31 24 35 23 15 21 20 20 15 8 10 9 9
35 32 31 28 28 28 28 25 26 26 26 25 27 29 27 23 19 18 14 10 11 3 7 7 10 6 3 2 1 5 5 9 19 17 16 22 20 31 20 20 16 26 27 11 9 9 7
35 33 32 29 27 26 25 24 22 22 21 22 25 26 27 21 18 18 15 16 7 10 9 8 5 3 2 3 3 4 5 2 3 21 14 18 24 18 25 26 21 18 33 24 21 10 6
34 34 31 31 29 29 27 24 22 19 19 21 23 25 25 18 15 18 20 22 15 10 8 11 5 4 2 3 2 2 4 5 3 5 16 7 8 20 22 17 22 20 15 12 19 10 15
30 31 28 30 29 29 25 24 22 19 18 21 20 20 17 16 20 25 32 24 20 14 14 10 10 8 5 3 5 2 2 3 8 7 19 10 5 6 14 22 23 28 19 17 15 22 10
28 27 28 28 27 24 24 26 26 21 20 21 16 21 15 18 26 30 32 27 22 15 20 15 17 15 9 7 6 5 3 3 6 8 4 12 7 9 11 12 14 19 24 25 21 16 15
27 26 27 28 27 24 20 22 26 22 21 16 22 23 20 20 29 33 30 24 27 21 18 15 17 19 12 9 5 2 2 4 5 5 2 2 7 11 15 11 10 14 13 11 16 17 20
26 25 26 26 26 26 22 20 21 19 20 22 22 21 23 31 31 31 29 29 23 24 22 22 16 22 16 15 12 8 4 9 11 8 4 3 5 6 4 5 6 6 7 6 8 14 18
21 21 22 24 24 23 22 21 21 19 25 26 29 29 20 15 33 30 25 24 29 24 24 20 20 25 22 19 16 16 12 12 12 17 15 8 8 9 8 5 4 6 8 9 11 11 14
22 23 24 25 26 26 24 23 23 23 29 33 35 34 27 28 20 19 31 38 30 27 20 18 18 14 17 22 19 11 10 10 10 5 10 14 10 9 12 12 13 15 16 14 13 13 15
27 27 27 29 30 32 29 28 28 29 32 36 36 34 32 26 28 28 24 27 28 25 22 21 15 15 16 16 16 18 17 17 16 15 13 10 10 9 13 8 9 16 25 22 19 14 13
26 28 26 28 34 36 35 33 31 30 37 35 35 35 33 38 29 25 29 28 27 28 28 16 18 14 13 21 20 22 19 18 18 20 21 10 9 7 5 5 6 6 10 13 14 15 13
26 27 26 25 25 30 34 36 36 35 37 41 36 36 37 37 28 31 14 20 28 20 27 22 17 20 19 14 10 8 9 10 16 15 20 21 15 8 8 14 17 21 10 11 8 7 8
28 27 27 24 20 23 27 29 32 34 35 37 38 38 39 29 35 29 30 28 24 19 20 23 25 19 18 11 12 6 7 6 5 5 17 18 20 16 8 7 5 2 6 9 6 6 3
26 25 24 23 22 22 22 24 29 31 34 39 43 42 39 44 38 21 29 30 31 29 22 17 22 25 20 17 12 12 11 8 6 7 12 22 21 24 21 12 7 11 9 8 5 3 6
20 20 20 20 20 22 24 27 28 30 35 38 47 44 46 43 34 35 20 23 25 30 26 21 22 25 26 21 15 10 10 12 11 7 11 16 17 17 18 14 12 8 12 13 11 10 15
21 23 25 25 23 23 24 26 29 28 30 37 46 43 43 44 32 32 39 32 29 26 23 29 28 18 18 14 16 11 10 11 13 14 16 12 15 13 14 12 8 6 5 13 18 23 27

GFSGBSN_700_spd_075.txt.gz
Wind_Speed
30 29 29 28 29 28 28 28 26 28 26 26 25 26 26 26 26 25 24 23 24 25 25 24 24 25 23 27 26 28 23 16 14 16 18 22 23 22 26 21 23 25 24 22 20 20 23
28 29 29 29 30 30 29 29 29 27 28 27 27 26 26 27 26 25 23 24 25 25 25 25 24 25 24 27 18 27 26 25 25 21 16 19 19 19 19 23 24 21 24 23 24 23 21
29 29 29 28 28 30 29 29 28 27 27 27 27 27 26 26 26 26 26 26 27 27 25 23 24 25 27 19 21 22 25 24 27 28 23 19 19 16 19 22 20 23 25 24 23 22 23
29 29 29 30 29 28 29 28 27 26 26 25 25 24 24 24 24 24 24 24 25 24 24 23 24 26 28 21 22 20 24 29 27 28 31 25 20 23 23 18 18 17 21 27 21 22 21
30 30 30 29 29 29 28 28 27 26 26 25 24 23 23 24 23 22 22 24 25 25 25 25 27 27 28 13 11 15 21 29 29 30 28 32 29 26 24 23 24 24 25 24 19 19 16
32 31 30 31 31 31 28 29 29 28 27 26 24 23 24 23 23 23 21 23 25 26 23 23 24 21 10 9 11 14 18 17 31 30 30 35 33 32 33 30 35 29 25 23 23 18 18
35 35 33 32 32 32 30 29 29 28 26 27 26 24 24 23 21 22 21 20 23 28 23 18 19 26 22 21 24 17 16 18 19 28 31 24 30 39 34 37 33 25 23 20 17 15 18
35 35 35 35 33 34 31 28 29 28 27 26 26 24 23 21 20 20 20 18 18 22 30 21 22 28 23 26 33 26 17 19 20 24 34 23 41 34 30 30 29 30 29 28 21 17 14
37 35 35 34 35 34 33 30 29 27 27 25 23 23 22 18 17 17 17 16 17 20 26 19 18 16 13 19 27 27 27 24 19 20 22 29 38 31 31 31 31 30 31 28 23 18 18
39 37 34 33 35 34 34 33 29 27 27 26 24 22 21 17 16 13 15 14 15 17 15 7 6 4 7 9 12 10 25 25 22 21 15 27 26 32 27 37 29 31 26 24 23 20 24
40 39 36 35 33 33 33 34 30 28 26 25 23 22 22 16 15 13 16 13 11 14 6 3 6 8 7 6 10 11 8 25 24 22 17 22 18 28 34 27 30 33 21 24 22 22 25
38 38 37 35 33 32 33 32 33 29 26 26 25 25 22 19 15 15 13 9 6 3 6 2 3 4 7 11 9 11 6 20 23 19 24 21 18 21 22 28 25 23 23 17 21 21 22
40 38 35 33 32 30 31 30 31 30 27 26 25 26 23 20 15 14 11 5 4 8 1 3 5 6 10 9 7 9 9 10 22 21 28 23 33 26 18 13 21 25 22 14 14 17 15
34 39 34 32 31 30 27 26 25 26 25 24 25 25 23 20 16 15 12 6 12 5 10 6 6 9 8 6 7 9 9 11 17 19 17 26 26 35 23 24 20 23 26 15 13 10 15
33 37 36 33 30 30 26 24 23 21 21 22 22 22 23 19 16 12 13 17 7 10 14 11 11 11 10 6 6 6 9 8 9 20 15 17 29 19 26 26 20 21 32 29 27 14 7
33 31 31 25 24 27 27 27 24 20 19 22 20 21 21 14 12 15 20 21 15 11 6 7 10 6 8 7 6 7 12 1 5 5 22 10 15 20 13 23 26 27 15 22 25 11 13
30 27 30 27 26 23 25 24 22 20 19 19 17 15 12 12 16 22 29 21 17 15 9 8 9 12 10 6 4 7 4 4 3 5 11 18 11 6 17 23 26 25 29 23 25 23 5
28 26 25 23 21 21 24 22 19 22 21 19 16 16 12 12 25 29 31 20 19 14 17 18 14 13 13 10 8 6 5 4 3 7 2 14 10 14 20 19 23 24 27 24 19 17 21
26 24 19 18 20 23 24 20 17 19 21 18 19 17 15 20 27 28 20 21 22 20 22 18 22 17 15 14 8 9 8 4 5 6 1 2 12 13 14 10 15 20 25 27 27 24 19
20 21 22 24 23 22 23 22 20 21 19 22 19 14 19 26 28 23 21 23 21 21 25 23 22 20 22 21 18 13 9 6 7 7 7 8 9 15 12 6 8 18 14 16 14 17 18
21 20 19 19 19 21 21 26 24 23 21 24 27 26 11 14 27 28 23 16 24 24 18 19 23 26 21 21 21 22 21 18 13 11 7 7 8 9 11 5 2 5 11 14 17 19 18
21 19 18 18 18 18 18 20 27 26 27 31 32 26 17 20 15 20 29 30 21 21 23 22 24 20 22 27 25 18 15 14 14 10 6 10 12 11 13 9 8 11 13 15 17 16 17
21 18 20 25 26 23 22 21 22 27 34 35 32 27 22 18 22 21 18 25 28 23 29 27 19 20 21 17 19 21 17 12 12 12 10 9 10 12 15 11 11 14 19 20 19 18 16
22 22 22 22 20 22 25 26 27 30 37 35 29 27 27 25 22 23 23 19 18 20 20 24 23 19 17 19 14 16 19 18 18 19 17 12 11 12 12 5 10 11 6 6 15 18 17
23 25 24 23 23 25 24 31 33 35 35 36 31 31 31 30 23 24 24 20 18 18 24 28 16 17 22 18 14 12 15 17 20 20 21 21 16 12 9 15 17 19 16 12 11 10 9
24 26 26 26 25 24 24 27 38 36 37 36 35 34 33 30 27 21 22 23 22 19 17 15 24 22 21 16 15 10 11 13 12 10 21 20 22 18 8 14 10 11 6 6 8 12 6
26 25 25 24 25 22 22 22 28 30 39 40 36 37 39 40 29 16 25 23 22 20 21 11 22 20 19 20 14 13 13 7 6 11 20 22 22 25 23 16 12 8 4 3 14 7 4
20 20 21 18 19 21 23 22 23 26 30 35 31 33 36 38 33 29 17 24 22 19 20 12 18 20 16 18 13 10 10 10 11 7 14 20 16 17 19 11 19 10 9 9 7 4 3
23 22 21 21 23 22 22 24 24 25 27 32 37 36 36 38 27 29 32 25 25 21 23 24 19 8 10 9 15 9 9 9 11 14 12 14 16 16 17 16 6 7 7 4 7 10 13

GFSGBSN_700_spd_078.txt.gz
Wind_Speed
27 28 27 27 26 27 28 27 28 27 28 28 26 26 25 25 24 24 23 22 22 22 19 19 19 19 20 26 19 19 26 23 18 18 17 21 22 22 25 24 22 27 28 27 29 27 24
25 26 26 27 28 27 27 27 27 26 27 27 27 27 27 26 25 24 24 23 24 24 22 21 24 22 20 20 10 12 18 24 24 24 16 16 17 20 23 23 27 24 25 29 29 28 27
29 28 30 29 28 28 27 28 28 26 26 27 25 26 27 26 25 24 23 24 24 25 23 23 20 20 16 10 13 15 19 18 22 21 20 16 14 18 18 24 23 24 30 28 28 26 24
33 32 31 30 30 31 30 28 28 27 28 27 26 26 26 25 24 23 22 23 24 22 22 21 21 23 22 19 17 17 21 21 21 24 26 23 19 20 23 21 22 24 23 30 30 27 28
33 33 33 33 31 31 31 31 30 30 28 28 27 26 26 24 24 23 21 21 22 21 21 21 21 22 23 9 9 10 12 15 20 23 27 26 26 25 20 24 24 23 30 31 27 24 27
34 35 35 34 33 33 32 31 30 30 30 29 29 28 26 24 23 22 21 19 20 22 20 18 19 16 4 6 10 9 12 16 16 19 20 25 19 25 27 25 32 29 29 29 29 25 25
36 36 36 36 35 35 33 34 31 30 31 29 28 28 26 24 22 21 19 16 19 21 19 12 14 20 17 17 20 18 12 19 17 17 22 20 25 37 30 30 31 30 28 31 31 23 24
38 37 38 37 35 35 34 34 34 30 31 29 28 28 25 23 20 18 17 15 15 18 23 18 16 22 18 22 27 25 18 14 14 16 13 20 36 29 29 28 32 34 35 35 34 23 13
36 37 39 38 37 35 35 34 34 33 31 29 29 27 23 21 17 16 14 11 13 16 22 13 13 16 13 15 16 14 20 21 18 16 18 25 25 24 30 32 34 35 34 34 38 29 23
32 33 35 38 37 37 36 36 33 34 29 29 28 27 22 19 17 13 12 8 9 12 12 6 5 5 6 4 8 7 10 19 24 27 20 24 21 20 28 34 33 35 32 34 33 27 27
31 30 30 32 37 38 37 35 34 34 30 28 28 26 21 19 18 13 16 5 5 6 5 9 7 4 6 2 7 7 7 9 24 22 21 26 17 17 27 34 26 38 30 28 26 31 28
33 33 32 30 31 35 38 35 33 34 31 29 29 27 22 22 19 16 12 5 2 4 7 5 5 1 2 6 7 8 9 5 12 22 23 24 22 19 29 23 26 28 30 29 28 30 23
34 35 34 31 30 29 36 34 30 31 31 30 28 29 24 24 18 15 8 7 3 9 2 9 3 4 5 8 8 11 8 6 10 13 26 25 26 21 19 20 14 24 21 5 9 18 13
33 35 35 33 31 30 31 30 31 25 26 28 27 29 25 22 19 14 9 9 13 6 8 3 2 5 8 5 8 10 9 12 12 17 13 17 20 28 26 26 20 12 27 9 6 7 14
34 34 33 32 30 28 30 34 30 20 19 25 24 21 23 18 17 15 14 16 6 13 11 10 8 11 11 9 8 7 9 14 10 16 14 7 19 16 18 20 25 17 26 34 30 16 8
34 34 31 28 26 25 24 26 27 20 21 21 19 19 21 16 16 19 22 25 15 8 5 3 7 6 8 5 6 10 10 1 9 7 11 10 16 10 14 17 26 28 11 19 11 5 6
35 32 31 28 25 24 23 28 22 15 20 17 17 16 5 5 18 24 33 25 15 10 7 7 9 12 9 10 7 11 6 7 4 5 12 14 18 13 3 20 22 29 28 13 5 14 3
32 28 26 23 23 22 21 21 21 18 18 18 17 12 6 7 25 30 35 23 17 14 12 17 14 12 9 11 8 11 7 3 1 5 6 2 11 18 18 19 18 24 27 25 16 6 15
26 23 22 21 19 15 16 17 17 21 18 15 16 17 17 16 25 28 23 24 22 18 19 15 16 16 15 15 16 13 16 9 5 7 4 3 5 14 11 12 17 19 24 21 24 24 7
29 22 19 17 15 21 20 18 19 21 22 21 19 12 23 21 26 22 20 21 19 20 21 17 20 16 18 21 19 18 13 12 7 7 11 15 8 12 12 6 8 15 15 21 24 28 18
27 24 20 18 16 15 18 22 17 23 25 22 25 23 10 15 26 26 24 13 18 19 17 16 19 22 21 21 23 23 23 23 22 16 12 8 12 15 13 14 7 8 16 17 18 24 13
24 23 21 19 19 17 14 13 18 27 20 27 28 24 17 16 12 20 24 24 23 15 18 19 20 17 23 25 23 20 20 19 16 14 10 11 14 12 18 13 9 16 11 14 7 13 13
23 23 21 22 22 23 23 20 16 26 31 31 29 24 19 15 20 19 17 20 24 20 22 21 21 19 21 22 28 27 23 20 20 12 9 10 11 10 18 12 14 13 17 13 11 12 15
24 22 23 24 22 21 21 22 21 21 36 34 28 23 27 25 16 19 19 17 14 21 24 20 16 22 22 21 23 21 18 20 24 16 16 15 13 14 16 12 7 13 9 6 8 14 16
22 20 22 24 24 20 17 20 22 25 28 31 28 28 28 28 18 17 20 17 16 13 19 19 20 26 26 9 12 10 17 20 27 27 26 22 21 15 17 13 16 14 6 6 9 10 12
19 18 20 23 25 24 21 22 24 28 32 31 30 28 29 28 24 18 18 19 20 17 16 17 20 22 10 9 9 7 11 16 11 12 29 25 25 24 8 9 6 12 18 11 8 13 8
20 22 23 25 25 26 26 26 25 28 31 37 34 32 34 35 28 15 18 15 14 18 21 17 13 19 24 14 11 10 18 16 16 14 23 30 26 26 23 11 7 10 12 2 16 8 11
23 23 22 21 22 21 21 23 25 25 28 41 33 35 36 36 29 25 21 18 16 15 16 17 17 11 15 13 9 12 12 13 11 8 18 23 17 16 18 11 16 7 7 9 11 12 11
23 20 20 21 22 21 20 20 22 22 24 30 35 35 35 35 25 26 30 24 20 18 18 13 16 3 12 8 8 9 13 8 10 9 7 11 15 14 16 17 5 7 11 12 12 1 2

GFSGBSN_700_spd_081.txt.gz
Wind_Speed
22 23 24 24 24 25 26 27 26 26 25 25 25 25 25 24 24 24 23 23 22 21 18 17 18 17 18 21 9 17 23 22 19 19 16 19 23 25 27 24 18 25 25 26 26 28 31
25 27 28 28 29 28 28 27 27 27 26 26 26 26 26 25 25 24 23 22 22 21 21 20 20 18 19 16 11 21 25 28 25 23 18 15 18 22 19 21 23 22 27 28 27 30 32
28 29 31 32 31 31 31 30 29 28 28 28 27 27 27 26 24 24 23 22 22 21 21 21 20 21 17 1 10 15 22 19 20 25 27 18 11 17 15 21 23 24 29 31 32 33 31
29 30 31 31 32 32 33 34 32 30 29 30 28 28 27 25 25 23 23 22 21 22 20 22 20 22 19 15 18 19 22 17 17 18 24 24 20 23 25 25 26 26 29 31 33 34 31
30 31 32 33 33 33 34 34 34 33 31 31 29 29 29 26 25 24 24 22 22 21 21 21 21 23 19 19 15 13 12 10 14 17 20 23 28 30 27 24 24 25 25 28 31 27 25
32 33 34 35 35 35 35 35 35 35 33 32 31 30 27 26 25 25 24 22 22 21 23 20 23 21 16 13 14 11 11 12 11 12 16 22 28 33 29 22 22 23 29 31 34 22 22
31 32 33 35 36 37 36 35 35 36 36 32 31 31 28 25 24 24 22 21 22 20 23 21 18 16 12 20 22 19 14 14 15 16 17 18 23 30 28 28 27 24 27 33 34 31 32
29 30 30 31 34 36 37 38 36 36 37 34 32 30 28 24 21 21 20 19 19 21 24 19 20 24 21 21 25 23 19 19 16 16 10 16 25 20 22 20 23 28 29 36 38 36 33
28 30 32 31 31 32 33 37 38 36 37 37 32 30 25 23 20 17 15 13 16 16 23 15 20 21 20 22 24 16 27 25 17 13 17 19 11 14 15 22 25 32 33 34 29 39 41
31 32 33 34 33 33 32 32 35 37 36 37 33 31 24 22 19 15 15 17 11 11 13 10 11 12 14 10 7 5 6 17 25 23 14 14 16 20 23 25 25 35 32 27 28 26 24
32 33 34 34 34 34 33 33 32 34 35 36 34 31 23 22 18 14 16 12 10 4 4 5 9 6 11 10 8 7 2 9 16 21 21 18 13 16 21 23 22 30 32 30 28 24 21
33 34 35 36 35 35 34 32 31 32 32 33 34 30 24 22 18 17 15 10 7 4 8 12 5 6 9 7 7 9 7 7 5 17 21 20 17 15 20 18 20 26 26 27 30 25 9
33 34 35 36 36 35 34 32 31 30 29 28 30 29 24 24 13 15 13 12 5 7 3 11 9 5 1 6 7 15 10 2 6 8 14 20 17 23 24 23 25 25 10 4 7 6 7
33 34 35 35 35 36 34 32 31 30 26 28 26 23 22 21 19 15 15 14 10 7 12 2 12 9 8 9 11 14 10 10 8 6 3 5 7 23 28 29 22 17 6 6 4 3 2
33 34 35 35 35 34 31 28 27 27 26 26 19 21 25 15 20 19 20 17 9 10 9 9 3 7 9 11 11 10 13 11 8 12 10 5 10 2 16 22 19 10 15 15 10 7 3
34 34 34 34 33 31 28 23 23 19 20 20 19 22 19 15 24 25 22 23 19 8 7 4 2 3 9 6 10 3 6 4 6 9 13 7 10 13 10 15 15 14 11 7 9 3 3
34 33 32 31 28 25 21 21 19 20 19 17 22 17 2 15 25 31 29 28 22 11 5 6 6 9 12 9 4 6 1 4 7 7 7 11 14 11 8 17 16 16 20 12 9 7 2
34 31 29 27 24 21 20 18 18 16 16 15 14 15 10 17 26 32 32 28 23 13 9 9 12 12 9 11 8 2 2 2 3 4 8 7 7 15 20 18 20 17 19 26 8 3 12
31 29 26 23 21 17 16 16 14 14 15 14 17 15 16 21 26 25 21 25 21 22 15 6 7 7 14 11 9 7 5 9 10 8 4 7 3 6 8 10 10 17 19 24 19 17 8
27 26 26 20 19 16 13 14 15 15 16 21 16 10 10 20 15 18 23 23 20 14 19 15 15 14 13 14 13 12 11 4 11 6 10 13 12 8 9 11 14 7 15 17 19 9 14
25 23 23 20 17 17 14 13 13 13 17 21 17 20 14 7 19 13 19 16 11 16 14 11 14 15 15 17 16 18 20 18 17 17 18 15 14 12 21 14 13 15 8 11 21 24 12
23 22 22 19 18 18 16 15 12 16 18 26 25 19 21 21 12 13 17 22 23 12 11 15 19 17 15 18 20 20 18 19 18 11 8 7 18 16 16 15 12 14 11 12 11 10 4
23 23 21 20 20 21 18 19 20 16 22 28 25 21 21 21 15 10 12 15 18 16 20 17 14 23 19 19 17 21 22 25 21 17 12 14 7 7 13 12 15 11 11 13 13 11 6
23 22 22 20 20 23 18 19 20 23 22 29 23 21 23 26 20 13 14 12 15 13 16 21 21 14 17 22 19 22 25 23 30 25 20 16 9 8 10 16 5 8 7 4 7 5 10
23 23 20 17 18 20 20 17 14 17 23 20 26 27 26 26 24 21 12 11 14 12 16 11 14 14 20 19 19 16 19 17 21 27 28 23 24 10 8 13 17 12 12 5 4 2 3
23 21 17 15 17 20 21 20 17 18 25 22 21 28 27 27 26 17 13 14 17 13 11 8 14 19 16 16 17 8 6 7 5 10 27 34 30 26 11 6 5 14 15 19 8 8 4
24 19 17 16 19 21 23 23 22 21 19 29 21 27 29 31 24 16 19 15 13 13 14 11 14 16 14 17 5 6 8 12 10 13 13 27 30 32 27 15 8 10 13 6 14 7 13
21 19 17 19 21 23 23 22 24 25 23 28 25 28 33 29 23 21 19 18 12 8 7 10 13 15 16 15 15 12 9 13 12 18 17 21 21 23 24 12 12 6 8 10 13 19 22
18 19 20 19 17 18 18 18 19 21 23 27 31 28 32 34 27 24 24 24 20 16 12 12 8 7 7 7 6 5 8 12 13 10 8 8 21 16 17 12 7 9 13 15 16 20 22

GFSGBSN_700_spd_084.txt.gz
Wind_Speed
19 20 21 22 24 25 26 26 26 26 25 25 26 26 26 26 25 26 26 25 24 25 24 23 23 25 23 25 11 18 22 20 19 21 21 23 27 28 31 28 27 31 30 27 24 21 20
20 22 24 25 26 27 29 29 28 28 28 29 29 27 28 26 25 24 24 25 24 24 24 24 25 25 26 22 15 23 23 23 25 25 22 22 19 22 27 29 27 29 23 22 21 24 24
23 24 26 27 28 28 30 31 31 30 31 30 31 31 29 27 25 25 24 25 23 22 23 24 25 27 29 7 12 17 17 15 21 24 28 22 17 19 27 25 24 23 28 29 31 30 34
22 24 25 26 28 29 31 33 34 33 34 33 32 32 31 29 27 25 26 25 24 24 22 24 25 28 30 18 20 18 22 19 18 18 19 27 26 25 27 26 25 24 27 33 33 32 31
20 22 23 26 27 29 30 32 34 36 36 36 34 32 32 30 27 27 26 26 23 25 22 25 24 28 25 22 21 24 23 21 22 21 19 22 28 29 27 26 25 28 31 33 33 29 24
19 21 23 24 26 27 29 30 33 35 37 38 37 34 32 30 28 28 26 25 23 24 24 25 27 25 20 14 21 22 18 17 16 18 21 25 30 32 33 30 28 31 31 32 28 28 22
20 22 25 26 28 29 30 30 30 33 36 37 38 37 33 30 27 27 24 23 23 22 26 26 24 20 19 20 26 24 22 21 20 19 19 23 31 36 34 34 34 31 31 31 29 22 27
23 25 27 29 31 32 33 33 34 33 33 35 37 38 33 29 26 24 21 20 22 23 30 26 28 31 21 22 27 23 21 21 21 21 17 20 27 27 27 28 33 31 27 30 31 24 28
24 26 28 29 30 31 32 32 33 33 34 35 34 37 34 27 23 21 17 19 20 21 28 22 26 29 23 28 31 22 22 24 23 20 18 22 12 12 17 16 20 24 26 27 30 30 33
25 27 29 30 31 31 32 33 34 34 35 35 34 33 34 26 21 19 16 16 16 17 17 16 18 20 27 30 30 21 26 27 32 25 14 16 21 13 16 18 18 24 25 26 28 27 14
27 29 30 31 32 33 33 34 34 35 34 34 33 32 30 25 19 15 21 15 10 9 5 3 10 9 13 18 15 11 10 14 26 27 20 14 11 22 27 27 22 21 21 18 20 26 22
28 30 32 33 33 34 34 34 35 35 34 33 32 30 27 22 18 16 20 16 7 4 8 8 6 11 12 15 10 9 6 6 8 17 24 26 19 12 16 17 19 21 18 19 24 18 11
31 32 33 34 35 35 35 35 35 35 32 32 30 28 25 23 10 18 18 14 7 8 2 7 9 10 8 13 15 11 5 5 10 10 21 27 27 20 18 19 19 19 16 4 7 8 11
32 33 34 36 36 35 35 35 34 33 30 29 28 26 24 17 11 16 18 15 11 8 12 12 3 11 10 7 11 12 14 9 10 9 6 11 6 29 21 26 19 14 13 7 5 5 2
33 34 35 36 35 34 33 31 30 28 23 22 21 21 22 7 11 25 19 20 10 3 7 8 4 12 10 10 9 15 19 15 10 11 7 7 6 7 10 11 14 12 13 18 12 13 2
34 35 36 36 33 30 27 26 22 23 18 18 21 20 11 15 19 29 25 24 16 8 2 1 6 5 4 8 6 9 15 8 9 13 16 6 7 7 11 14 15 20 16 5 9 2 3
34 35 36 34 28 25 23 22 17 17 14 18 17 16 6 10 21 30 31 30 20 11 5 1 2 6 5 11 10 7 5 8 8 9 17 13 9 4 5 9 18 18 14 9 9 6 2
33 35 35 30 23 22 20 18 14 16 17 15 12 16 9 13 21 29 31 28 25 18 6 4 2 3 5 6 5 9 6 3 2 4 3 7 5 7 17 10 12 19 19 14 8 4 6
32 34 32 26 20 19 16 13 12 12 15 13 16 12 15 12 18 19 21 26 22 19 14 6 6 1 1 4 5 4 9 6 1 6 2 4 4 5 4 1 6 8 13 18 21 23 15
31 31 30 22 19 17 13 11 12 11 14 14 16 12 8 7 12 16 15 16 12 11 10 11 10 7 6 4 4 7 8 2 12 2 6 11 6 6 6 11 14 11 19 19 19 7 10
30 30 26 21 20 14 13 9 10 9 13 15 17 15 11 10 1 4 18 8 4 14 6 5 6 5 9 10 11 11 12 10 6 8 7 8 11 14 12 12 16 16 22 19 12 26 13
29 28 25 20 19 15 15 12 10 13 13 16 20 21 17 14 16 10 5 9 10 10 7 7 8 9 10 11 10 14 15 16 14 11 9 8 10 12 18 16 14 19 16 21 13 14 21
28 26 22 21 17 16 15 17 13 14 21 19 17 22 22 15 11 11 6 3 5 5 5 5 9 9 13 15 16 13 13 18 17 14 14 14 13 12 10 10 14 11 15 17 22 12 8
27 25 22 19 18 16 15 16 14 14 20 25 15 18 23 24 17 13 7 4 6 6 10 9 11 12 10 15 17 19 18 20 24 21 20 20 18 15 6 11 4 9 10 11 15 12 12
26 24 22 19 18 15 14 16 15 13 13 16 14 22 23 25 20 16 11 7 7 5 8 7 1 7 8 10 14 14 18 21 25 26 27 23 24 18 8 10 19 28 7 7 2 7 10
25 24 21 19 16 15 12 14 16 14 13 15 13 19 25 21 18 15 15 12 11 9 6 3 8 7 9 11 8 4 5 5 4 6 6 15 24 25 13 4 3 9 10 13 12 9 5
24 22 21 19 17 16 15 15 17 18 17 18 17 19 24 26 18 14 9 14 12 8 6 7 7 7 7 10 6 8 8 9 7 9 11 10 19 31 27 13 13 27 14 6 11 7 10
23 23 21 18 17 18 19 19 19 19 19 20 20 23 22 21 16 12 15 14 13 7 6 6 5 4 9 10 10 9 6 8 11 15 14 15 9 19 26 15 14 25 16 12 11 18 17
22 19 16 17 17 16 16 17 16 18 18 22 24 21 29 24 17 18 16 16 15 16 12 12 6 4 3 5 11 6 6 6 11 12 14 15 19 9 13 17 16 15 14 14 13 16 20

GFSGBSN_700_spd_087.txt.gz
Wind_Speed
16 17 19 20 21 23 25 26 26 27 28 29 29 29 30 30 29 29 30 30 30 31 31 32 34 34 32 34 29 25 21 19 18 24 28 31 33 31 37 35 34 42 39 33 30 30 29
18 20 21 22 22 23 24 26 28 29 30 31 32 32 32 31 30 30 30 31 30 29 30 33 34 34 35 39 22 30 31 26 25 26 24 27 25 24 28 32 36 38 33 32 29 30 26
17 18 18 19 20 21 23 25 27 29 31 33 35 34 34 33 32 31 31 31 30 30 31 34 35 34 39 28 19 25 22 25 27 28 28 23 22 25 23 28 32 37 33 28 29 25 30
13 14 15 16 18 19 20 22 25 27 29 32 35 36 37 35 34 34 33 31 30 30 31 31 33 35 45 22 29 22 22 19 20 20 20 25 28 27 26 22 21 26 33 28 27 28 29
11 12 14 17 19 21 23 25 27 29 30 32 33 35 37 38 35 35 36 32 30 31 31 30 33 35 39 26 27 26 30 25 25 24 20 21 29 28 25 25 27 31 28 20 21 27 28
11 14 16 19 21 23 25 27 29 31 32 33 34 34 36 37 35 35 34 33 29 31 31 31 33 30 26 17 15 24 24 26 23 27 25 23 27 30 29 25 25 29 27 27 24 26 29
13 16 19 21 24 27 29 31 32 34 35 36 37 35 35 34 33 33 32 30 29 30 32 30 31 27 26 14 22 21 24 22 20 21 27 29 33 38 35 34 33 31 24 21 26 25 32
15 17 21 24 26 29 31 33 35 36 36 35 35 36 37 34 32 28 28 25 22 25 38 26 33 38 31 19 24 26 24 22 22 20 20 23 33 33 32 31 29 29 29 30 30 29 32
18 20 23 26 28 31 33 35 36 37 36 36 35 35 35 35 29 25 22 21 18 22 33 36 28 36 27 33 35 27 28 26 21 21 20 23 13 19 25 27 27 26 25 24 25 27 31
21 23 25 28 30 33 35 36 38 38 38 37 36 35 35 34 28 20 19 20 16 16 24 32 25 19 26 28 35 25 29 23 24 23 18 17 18 14 6 20 16 19 19 18 19 21 19
22 24 27 29 32 34 36 38 38 39 39 37 36 34 34 32 28 15 21 18 12 10 6 9 5 13 13 22 22 25 29 36 33 31 24 13 10 22 19 14 14 16 16 18 20 20 20
23 25 28 30 33 35 38 38 40 40 38 37 35 34 32 29 22 16 20 16 9 5 9 7 4 7 10 19 16 17 17 19 13 20 19 22 10 9 12 16 20 23 21 20 19 18 11
24 26 29 31 34 37 38 39 41 38 36 34 32 31 30 25 15 19 18 13 8 9 5 2 6 11 9 20 17 16 15 15 13 13 23 25 24 16 10 11 17 20 17 4 3 5 6
25 28 30 32 34 36 38 39 38 33 31 32 32 28 24 16 14 18 16 10 11 8 17 24 14 12 17 13 15 18 13 13 13 7 6 13 6 27 23 23 18 15 20 8 4 2 3
27 29 31 32 34 35 36 36 30 28 29 30 25 21 15 7 17 17 16 18 9 7 11 13 3 8 14 14 10 18 17 14 6 8 4 6 3 4 13 20 19 15 16 16 12 19 7
27 30 31 31 33 33 34 29 26 26 24 23 19 19 9 15 18 18 22 23 18 9 8 4 5 8 6 6 8 14 15 6 12 12 12 4 2 5 8 10 15 21 11 5 7 3 4
28 30 30 30 31 31 28 24 23 22 17 19 20 21 10 13 16 16 25 22 26 17 8 8 7 11 7 10 11 10 8 9 6 8 16 9 5 5 5 8 16 17 18 13 6 7 3
28 28 29 29 29 28 23 21 19 16 16 19 20 20 10 18 11 17 21 26 20 19 10 8 4 8 7 9 18 14 10 10 7 6 9 5 3 4 12 12 12 12 19 19 8 3 7
28 27 27 28 27 25 19 19 13 13 16 17 18 18 14 9 6 13 15 22 20 20 11 11 7 5 9 7 5 15 13 12 8 8 6 4 2 3 2 6 4 7 9 11 10 16 18
26 26 25 25 24 21 16 15 8 10 15 14 17 12 14 15 4 5 13 12 12 8 2 7 7 6 3 2 6 6 5 5 3 4 3 3 4 2 2 9 11 13 14 16 13 10 6
25 24 23 23 21 17 15 11 7 8 13 12 14 12 14 15 15 9 3 12 3 2 8 5 4 4 5 0 3 2 3 2 1 3 5 5 2 5 9 9 14 17 20 19 21 21 17
24 23 23 22 20 16 14 12 11 11 13 18 17 18 16 17 15 16 6 3 6 6 3 1 1 3 5 3 2 4 6 5 1 4 4 6 5 9 16 16 18 21 16 21 20 20 20
23 22 21 20 18 16 15 14 16 14 13 18 20 20 18 16 12 13 10 10 12 8 4 4 2 3 3 6 8 8 8 6 7 8 8 9 9 12 8 11 16 12 12 12 16 20 18
23 22 20 19 17 15 15 15 17 17 12 12 19 19 19 19 15 12 10 10 7 8 4 4 4 5 5 7 8 13 15 15 15 18 18 17 13 13 10 13 3 5 7 11 9 13 17
23 22 20 18 16 16 16 16 18 17 12 14 13 11 17 19 15 13 11 10 6 3 4 2 4 1 2 5 7 6 8 14 14 11 15 19 17 10 7 9 16 28 15 11 17 14 17
23 21 20 18 16 17 16 16 18 18 13 15 8 9 13 16 13 11 12 10 10 5 1 2 1 1 3 4 4 2 1 2 2 2 6 2 14 17 13 5 5 5 11 7 17 19 16
24 21 19 18 16 17 17 18 17 18 16 16 14 8 14 15 13 12 6 7 8 6 4 7 5 4 4 3 3 4 4 3 3 3 6 8 8 18 23 13 17 23 27 26 10 8 10
23 21 19 18 18 18 18 18 18 17 16 17 18 13 16 18 13 12 10 11 9 10 6 5 5 3 4 5 3 4 4 4 6 9 8 8 6 9 11 11 12 25 25 20 15 15 14
22 21 19 17 15 16 17 18 20 19 18 19 21 16 15 20 15 6 11 11 11 10 11 7 6 2 1 3 3 5 6 5 6 5 10 7 8 13 15 8 16 15 13 13 9 13 14

GFSGBSN_700_spd_090.txt.gz
Wind_Speed
14 16 17 19 20 21 21 22 23 24 26 27 29 31 32 33 34 35 35 35 34 34 36 36 38 39 36 38 34 27 31 18 15 18 23 32 35 37 41 40 36 42 40 37 33 33 33
17 17 17 17 16 17 18 19 20 21 23 25 27 29 30 32 35 37 37 37 35 35 36 38 38 39 39 43 27 28 33 32 24 20 19 25 29 31 34 36 37 39 29 35 36 36 36
16 13 12 13 13 14 16 18 20 23 25 26 28 29 31 32 35 37 39 39 37 37 37 37 37 42 47 42 28 29 26 26 32 33 28 23 22 28 28 30 31 33 37 33 28 28 32
10 9 9 11 13 15 18 20 23 26 29 30 32 33 35 37 37 37 40 40 37 38 37 36 37 40 50 39 31 29 31 25 27 31 33 28 25 28 30 25 20 21 24 29 34 32 28
9 8 9 11 13 16 19 22 25 28 31 34 37 38 40 41 39 38 40 40 40 38 38 37 37 37 47 35 31 29 31 30 22 21 21 22 28 30 29 23 24 25 17 15 18 27 27
9 9 10 12 15 18 21 24 27 31 34 37 39 40 42 44 41 40 39 40 38 38 38 38 38 35 33 26 24 15 24 28 31 27 26 26 28 31 29 24 21 25 20 30 30 23 23
9 9 12 14 18 21 24 27 29 32 35 38 41 43 45 45 40 40 40 40 37 34 36 35 33 36 28 24 27 24 18 22 28 30 33 33 34 38 33 30 29 27 19 19 18 16 26
10 12 15 18 20 23 25 29 32 35 38 41 43 45 45 43 38 37 37 35 31 28 45 35 38 41 38 27 33 19 24 21 21 25 26 33 42 33 28 28 26 25 25 28 28 29 31
13 15 17 19 22 24 27 30 33 36 40 43 45 46 44 42 35 34 33 30 26 23 38 42 35 38 33 32 38 26 27 25 24 23 23 29 15 27 32 32 30 28 26 24 23 25 30
15 18 20 21 23 26 28 31 33 37 41 44 46 47 44 41 35 30 31 28 22 19 25 38 24 20 22 29 40 31 32 29 25 23 21 17 20 14 15 26 26 26 23 19 18 15 12
18 19 21 22 24 26 29 32 35 38 42 45 47 45 38 33 32 29 26 22 17 9 6 12 8 9 13 13 15 24 34 34 29 25 20 11 10 23 22 15 18 18 9 6 9 14 17
19 21 21 23 25 27 30 33 36 39 42 45 43 35 31 29 27 25 24 17 12 7 8 11 8 18 12 10 7 13 29 35 29 27 23 21 11 11 18 19 12 12 8 8 11 12 4
20 21 22 24 26 28 30 34 37 39 41 39 35 32 31 29 23 21 20 11 6 8 6 8 10 21 11 9 4 16 26 30 25 20 24 20 25 11 7 13 15 13 8 4 5 3 4
21 22 24 26 27 28 30 34 36 38 37 34 34 34 25 21 21 18 15 7 9 6 14 29 25 23 12 7 11 16 23 24 18 11 15 19 8 25 15 14 8 11 7 6 4 3 3
22 23 25 26 27 28 30 33 34 34 32 33 33 28 21 19 19 15 11 11 6 8 13 23 9 10 7 7 7 16 14 15 14 13 3 11 3 8 17 17 12 8 7 9 7 17 4
23 24 26 27 27 27 29 32 32 29 29 31 27 23 18 15 13 15 12 19 16 8 16 17 7 9 9 8 6 16 13 8 7 13 6 9 8 8 12 10 12 11 4 5 5 3 4
24 24 26 27 27 26 27 29 26 25 26 24 22 22 16 13 13 15 19 23 22 19 18 14 13 14 6 13 7 13 9 7 8 12 14 9 6 8 8 5 9 9 11 8 4 5 3
24 24 25 26 25 24 26 25 21 22 19 19 21 18 12 19 13 20 21 20 17 16 14 21 16 10 9 14 14 9 14 7 10 12 13 9 7 7 4 2 1 2 6 8 5 3 8
25 25 25 24 23 22 23 21 16 14 12 18 19 11 13 19 11 14 13 14 14 20 13 15 17 10 10 15 9 12 12 19 7 12 7 9 6 6 9 9 9 8 4 1 8 12 10
25 26 25 24 22 20 20 16 13 10 12 14 17 19 16 13 17 16 22 12 9 12 6 9 11 7 3 11 9 12 15 14 12 12 12 10 10 9 6 4 3 4 6 7 11 8 12
25 24 23 22 21 19 17 14 12 11 12 12 14 16 21 17 15 22 19 18 14 4 5 1 2 10 8 5 10 6 8 11 7 10 7 8 8 4 3 1 6 9 11 11 16 21 19
25 24 22 21 20 18 16 12 12 12 13 12 15 18 21 23 16 17 17 18 19 9 4 1 6 9 8 7 6 4 5 5 4 5 5 7 4 3 6 7 9 13 14 14 15 17 23
25 23 22 20 19 17 15 12 12 13 16 11 13 14 20 21 18 13 15 19 16 10 8 8 4 4 3 7 5 3 4 3 2 5 7 5 3 6 3 5 10 9 5 6 13 15 17
24 23 21 20 19 17 15 14 13 13 15 11 9 13 17 18 15 10 10 10 9 10 8 2 3 2 4 5 7 5 5 7 8 7 9 8 8 5 3 6 2 3 10 10 13 15 17
24 22 22 20 18 16 16 15 14 15 12 12 10 11 13 15 11 7 8 9 4 4 5 3 2 2 4 5 5 4 2 2 5 7 6 6 6 3 2 3 12 17 13 4 13 19 18
24 23 22 20 19 17 17 15 14 15 13 14 10 9 12 13 7 5 6 7 6 5 2 4 4 4 6 6 6 4 3 3 2 2 7 9 5 7 3 1 2 2 4 11 19 27 13
24 24 23 20 19 17 16 16 15 15 15 17 13 12 12 13 4 6 6 3 4 5 5 5 5 5 6 5 4 2 2 1 1 1 3 6 4 7 10 5 8 14 19 21 13 15 17
25 24 23 20 19 17 17 17 17 18 16 18 18 13 14 15 13 13 8 7 8 6 5 5 5 4 3 3 2 1 0 1 2 2 4 2 3 3 1 5 9 9 14 11 13 13 16
26 24 22 20 18 18 18 17 18 19 17 17 17 14 11 18 13 6 3 6 8 7 7 4 4 2 2 5 6 1 2 3 4 2 2 2 1 7 8 11 27 25 18 12 8 8 9

GFSGBSN_700_spd_093.txt.gz
Wind_Speed
14 14 15 15 15 14 14 14 15 16 17 19 21 22 24 25 27 29 31 33 35 37 39 41 41 41 41 40 36 28 34 33 25 17 17 25 34 38 41 39 38 43 42 38 34 32 35
15 15 15 13 11 10 11 12 14 15 17 20 22 24 26 28 29 31 33 34 35 37 40 41 42 43 44 46 33 18 25 30 32 24 19 19 28 32 33 34 37 31 28 34 34 35 36
16 14 11 9 8 9 10 12 14 17 20 23 25 28 31 33 34 35 38 40 40 40 40 41 42 45 49 46 37 34 32 28 24 29 26 19 18 23 28 31 32 32 34 35 33 30 32
15 11 8 7 8 9 11 13 16 19 22 26 29 32 35 37 39 40 43 45 45 44 41 40 42 44 52 49 40 33 31 32 29 26 32 32 24 26 28 21 17 22 27 27 27 30 34
12 9 8 8 9 10 13 16 19 22 26 30 32 34 36 39 41 44 48 49 47 45 43 41 40 41 50 44 31 28 30 33 32 30 25 28 36 32 29 28 25 22 15 11 12 20 25
12 10 9 9 9 12 15 19 22 26 29 32 34 37 39 42 44 48 50 49 46 44 42 40 41 37 35 29 19 19 20 20 28 28 23 27 34 36 34 29 24 17 13 21 20 12 16
12 11 10 10 12 14 18 21 24 27 30 33 36 39 42 44 47 49 50 47 46 47 40 35 35 41 40 16 18 17 20 19 24 33 35 32 35 44 40 34 30 25 21 20 18 13 19
14 12 11 12 14 17 19 22 25 28 32 35 37 40 43 46 48 45 45 41 41 41 53 39 38 40 37 33 41 26 20 22 26 29 31 32 43 36 29 26 27 25 24 24 24 22 26
15 13 12 13 15 18 21 24 27 29 33 36 38 42 44 47 43 38 36 34 34 36 39 49 36 31 24 27 35 29 31 25 25 28 32 34 25 34 31 28 26 25 25 23 21 21 25
16 14 14 15 17 19 22 25 28 31 34 36 39 42 44 43 38 35 31 28 29 30 23 38 19 14 14 12 29 26 32 30 26 24 22 27 34 9 19 37 29 29 26 23 18 15 12
17 15 15 16 18 20 23 26 29 31 34 37 40 42 41 39 40 38 35 26 23 16 6 14 14 18 18 16 9 13 28 35 31 22 24 17 13 27 24 17 21 23 18 17 16 12 12
18 16 16 17 19 21 24 27 29 32 34 37 39 39 39 39 37 35 31 23 16 4 8 11 16 22 22 22 5 8 29 41 29 22 20 16 7 9 21 16 9 14 16 12 8 8 5
19 18 17 18 20 22 25 27 30 32 34 36 36 36 38 37 35 30 23 15 5 6 6 11 21 35 36 10 6 8 31 32 34 22 21 19 14 9 9 22 16 20 19 3 3 4 4
20 19 18 19 20 23 25 27 29 31 34 34 34 33 30 31 30 26 17 9 6 7 11 26 27 24 26 4 4 6 24 24 27 21 17 17 9 23 12 21 20 24 19 6 4 3 1
20 18 18 19 21 23 25 27 28 30 32 31 30 25 25 27 25 20 15 5 5 5 12 28 27 13 19 3 6 6 19 23 21 18 10 16 6 19 13 17 16 21 14 13 4 1 1
20 19 19 20 21 22 24 25 26 28 28 27 24 20 22 21 27 19 15 13 17 16 24 22 16 17 18 14 3 9 13 15 16 17 5 13 9 11 20 18 17 10 15 6 5 2 2
20 20 19 20 21 21 23 23 24 25 22 19 19 16 15 17 23 22 18 23 22 18 12 14 24 29 19 23 10 6 7 11 10 18 7 13 8 12 18 9 20 16 12 5 6 3 2
21 20 19 20 20 20 21 21 22 21 15 15 17 12 14 17 14 19 23 21 22 18 9 14 25 22 14 20 12 6 12 7 12 17 11 8 18 12 13 12 14 9 9 8 4 4 2
22 21 21 20 20 19 19 19 20 18 13 10 13 12 13 14 19 20 27 23 14 17 5 10 16 22 18 18 8 11 16 12 12 15 12 13 12 11 11 14 12 10 8 5 3 2 5
21 21 20 21 19 17 17 17 17 17 12 9 11 13 14 13 18 21 22 25 22 4 3 5 12 15 10 17 14 10 16 21 14 14 13 12 13 6 8 11 10 7 5 4 4 2 4
22 21 21 19 17 16 15 15 16 15 12 7 8 9 13 17 14 14 21 22 20 15 3 7 11 15 16 11 20 18 13 18 14 16 13 11 15 14 14 9 5 3 0 4 9 11 8
23 21 20 19 17 15 14 14 15 14 13 10 7 11 13 14 13 13 13 19 18 13 8 11 11 13 11 11 11 11 8 11 11 11 10 9 11 7 6 2 2 5 7 10 7 8 14
23 22 20 19 17 15 14 14 14 14 13 11 6 8 12 14 12 10 9 15 17 11 9 11 8 6 6 6 3 1 3 5 5 7 6 5 6 3 3 1 8 8 2 1 2 4 9
23 21 20 18 18 15 14 14 14 14 14 10 6 7 11 13 13 9 6 6 6 10 12 8 7 6 5 6 7 4 3 3 3 2 1 3 4 5 3 1 1 2 3 4 3 4 10
23 21 20 19 17 15 15 14 14 14 12 11 9 8 10 12 12 8 7 6 5 4 5 6 7 6 6 4 3 4 4 8 9 12 8 5 5 4 3 2 6 2 5 1 7 15 16
24 22 21 19 18 16 15 14 14 14 12 11 12 10 9 10 7 9 6 4 5 4 4 5 7 7 7 5 3 2 4 3 2 3 12 9 5 3 4 2 1 2 3 8 15 17 16
25 23 21 19 18 17 16 14 14 13 13 11 14 12 9 12 3 8 8 3 4 4 6 5 4 4 6 5 3 4 3 3 2 3 5 6 5 4 3 1 6 11 10 12 4 7 12
25 23 22 20 19 17 16 15 14 14 16 14 16 16 9 13 11 10 8 9 7 7 6 5 5 6 4 6 4 3 3 3 3 3 3 4 3 3 2 3 3 3 11 17 15 15 13
25 24 22 21 19 18 17 15 15 15 18 19 21 15 15 16 12 7 2 3 6 6 5 4 2 4 6 7 5 2 2 2 3 2 2 1 3 2 3 2 16 23 16 12 6 7 6

GFSGBSN_700_spd_096.txt.gz
Wind_Speed
15 14 14 14 15 14 11 9 8 9 10 13 15 17 19 22 25 26 28 30 32 35 36 36 38 40 41 42 42 36 36 32 31 31 24 21 31 38 35 27 32 36 33 27 30 33 30
15 15 14 15 14 11 8 7 7 9 11 14 18 20 23 26 29 31 33 33 35 37 38 39 40 42 43 47 38 28 24 21 27 32 31 27 23 31 26 31 28 22 29 32 29 30 29
16 15 14 14 12 9 8 7 9 11 15 17 20 23 27 30 33 35 38 38 39 41 43 43 42 43 45 48 43 43 37 35 32 27 27 31 24 22 25 21 27 28 29 23 24 24 28
17 16 14 13 12 10 8 8 10 14 16 20 23 26 29 32 36 38 41 41 42 44 45 44 43 43 49 49 46 45 39 39 34 35 32 32 30 26 21 18 15 22 25 30 26 28 30
17 16 15 14 12 11 9 9 12 15 18 21 24 28 32 34 38 40 42 43 45 46 47 46 46 47 52 41 34 33 29 36 38 37 32 26 33 32 24 23 20 22 27 23 22 21 20
17 15 15 14 13 10 9 11 14 16 19 23 27 31 35 37 39 42 44 44 46 48 50 42 41 41 36 22 20 18 16 16 19 32 33 36 34 31 28 30 38 26 21 24 18 14 19
17 16 16 15 12 10 11 13 15 18 21 25 29 33 37 39 41 44 45 48 49 47 49 43 45 45 42 34 36 28 27 25 19 22 32 39 33 42 42 35 29 25 21 20 16 16 19
18 18 17 14 12 12 12 14 16 19 23 26 30 35 38 40 43 44 45 44 44 44 53 46 46 36 22 24 40 31 28 22 18 24 27 26 41 32 28 30 26 26 26 26 20 17 18
19 18 17 15 13 12 13 15 17 21 25 28 32 36 39 41 43 43 42 39 38 37 41 48 24 15 19 20 20 29 35 29 21 21 32 33 23 27 25 26 25 27 28 24 21 16 19
20 20 18 15 12 13 14 15 19 22 26 30 33 37 41 43 44 43 40 35 30 28 24 27 10 10 19 21 9 11 30 32 26 25 24 27 26 19 28 26 27 27 23 18 17 15 19
22 21 18 16 14 13 14 16 20 23 27 30 33 38 41 43 41 38 37 33 25 16 8 7 7 13 28 30 22 7 8 32 28 21 26 21 29 23 19 24 26 27 17 17 17 18 18
23 21 19 17 15 14 15 18 21 24 27 30 33 38 40 38 36 36 33 28 16 8 10 9 15 21 29 25 20 15 15 31 22 21 20 13 16 23 25 21 18 12 15 12 11 11 11
24 22 20 18 16 15 16 18 21 24 26 29 33 36 35 32 31 28 28 23 10 11 16 12 27 30 31 27 12 11 12 29 29 26 21 14 12 14 17 23 16 17 22 9 9 8 8
24 23 21 19 16 15 16 19 21 23 25 28 32 33 28 27 27 26 23 11 9 14 21 26 30 30 14 23 8 10 17 28 25 21 22 21 13 14 15 20 18 25 25 8 8 6 6
25 23 21 18 16 15 17 19 20 21 23 27 28 26 23 18 24 27 19 8 11 15 21 28 31 18 22 28 14 5 19 24 27 20 11 21 12 20 12 17 20 21 22 11 1 2 3
25 22 21 18 15 15 17 18 18 19 21 25 24 21 17 18 22 26 17 13 13 19 21 20 20 14 28 30 19 5 12 19 14 21 11 10 9 17 21 17 20 18 20 10 7 5 6
23 22 20 17 16 16 17 16 17 17 19 21 20 19 18 18 20 22 16 18 19 14 16 10 15 28 27 23 23 4 7 14 13 21 9 16 11 16 18 17 19 17 15 7 8 2 1
23 22 20 17 16 16 16 15 16 14 16 17 16 14 18 16 15 21 16 20 23 15 12 11 19 27 30 29 15 3 9 8 15 21 13 11 11 24 15 14 15 14 12 11 7 4 2
23 22 20 18 17 16 15 15 14 11 13 13 10 12 15 12 16 19 20 17 15 11 6 8 14 24 28 25 10 12 14 12 17 22 16 15 17 16 12 11 11 10 10 9 8 5 5
23 22 21 19 17 15 15 14 13 11 11 11 7 8 13 9 13 16 20 20 16 10 9 12 21 19 24 24 26 25 19 17 18 18 13 9 7 6 7 15 17 12 11 7 4 3 3
24 22 21 18 16 17 15 14 13 10 8 9 8 7 10 10 10 11 14 17 18 11 14 13 13 18 23 25 23 28 25 20 15 15 19 18 17 17 18 16 13 11 7 4 4 4 5
23 22 21 19 16 14 13 12 12 11 9 7 8 7 8 8 7 6 9 13 15 12 11 12 13 13 14 14 14 15 18 16 17 17 18 19 10 9 13 9 8 5 1 2 4 3 5
22 22 21 18 16 15 13 13 13 12 10 7 8 8 6 6 6 4 4 8 12 14 12 11 13 12 11 11 10 8 6 8 9 9 9 7 3 3 4 3 1 5 6 3 3 3 3
23 22 21 18 16 15 13 14 13 13 10 7 8 8 3 6 8 6 5 5 4 7 11 10 11 10 9 11 10 7 6 6 9 5 4 5 4 3 2 1 3 4 4 6 5 4 6
24 22 20 18 17 15 14 14 14 13 11 7 8 10 5 4 5 9 7 5 6 6 4 7 7 9 10 8 6 5 6 6 12 15 6 5 4 4 2 3 8 6 5 4 6 6 11
23 22 21 19 17 16 14 15 14 14 11 8 10 13 7 3 5 4 8 8 6 7 6 5 7 7 10 9 6 4 3 2 4 4 10 6 5 2 2 2 2 4 4 7 5 3 5
23 24 22 20 18 17 16 15 14 13 12 10 11 14 10 7 3 7 8 8 8 8 7 6 5 6 7 7 5 4 3 2 2 2 5 4 4 5 3 3 4 1 1 7 3 5 17
23 24 22 20 19 18 17 16 15 15 13 13 8 13 12 10 9 8 3 4 5 7 6 6 5 5 3 6 4 4 3 4 2 2 2 2 2 3 3 2 2 2 11 8 7 10 11
25 24 23 21 20 18 18 17 16 15 14 15 14 11 13 15 9 6 3 4 4 6 6 4 2 2 3 5 4 2 2 3 3 1 3 1 3 1 1 0 8 14 7 6 4 6 5

GFSGBSN_700_spd_099.txt.gz
Wind_Speed
27 23 20 18 16 15 14 12 10 10 11 10 10 12 15 18 22 25 26 28 31 34 36 36 37 39 39 40 41 39 40 36 33 32 32 31 23 27 39 37 34 44 39 37 32 33 35
26 24 21 19 17 15 12 11 11 11 11 10 11 14 18 22 26 28 29 30 32 34 35 36 37 38 39 46 39 39 39 38 33 27 31 35 30 24 30 37 38 35 41 37 36 34 30
26 24 21 18 16 14 12 11 11 11 11 11 13 17 21 25 28 30 31 32 34 36 38 38 39 40 45 47 41 39 40 40 40 37 30 27 27 27 25 33 32 38 34 34 36 41 38
26 25 22 18 16 15 14 12 12 11 11 12 15 19 23 26 29 32 34 36 38 39 41 42 42 43 48 46 41 38 39 39 40 42 42 40 25 32 31 22 31 27 36 41 40 29 29
27 25 21 18 17 16 14 13 12 11 11 14 18 20 24 28 32 35 37 40 41 44 45 43 41 43 48 37 40 33 34 26 25 25 38 39 38 35 27 32 30 35 37 42 35 33 32
27 24 21 19 18 16 14 13 11 11 12 15 19 22 26 30 34 38 41 44 46 48 51 44 39 33 37 25 15 19 17 18 16 19 24 34 33 32 35 36 41 39 35 34 34 30 32
26 24 20 20 19 16 14 12 11 11 13 17 21 25 28 32 36 41 46 49 51 40 49 47 44 46 46 37 42 44 38 28 24 19 25 28 38 43 46 44 40 38 29 24 24 26 21
26 24 22 21 19 16 14 12 11 11 14 19 23 27 30 34 38 42 46 47 47 47 58 51 52 47 33 15 25 23 23 32 30 33 25 26 43 45 35 36 36 29 20 26 23 21 19
26 23 21 22 19 16 14 12 11 12 16 20 24 28 32 36 40 44 45 45 43 43 42 54 23 12 6 11 21 24 17 27 31 32 32 34 36 35 33 33 33 29 29 27 22 20 19
24 20 25 22 19 16 13 11 11 13 17 22 25 28 32 36 41 42 37 38 37 34 20 21 4 7 12 22 16 28 18 21 28 33 30 32 33 24 34 32 32 34 28 29 25 22 26
20 28 25 22 19 16 14 12 11 14 18 22 25 28 33 36 38 36 35 37 34 19 8 15 11 12 19 25 31 25 5 14 30 29 26 27 30 28 29 30 28 29 19 23 22 23 22
28 27 25 23 20 16 14 11 11 15 19 22 25 28 31 34 36 33 33 33 21 11 7 21 24 33 34 32 26 23 20 18 26 25 25 23 21 24 24 25 25 20 18 16 18 21 19
28 26 25 23 20 17 14 12 13 16 19 21 24 27 30 30 27 30 33 23 16 10 26 25 37 32 35 29 28 11 12 18 28 34 28 24 21 27 21 21 20 21 20 8 10 11 12
27 26 24 23 20 17 14 13 14 16 18 20 22 25 27 26 26 30 30 18 20 25 27 27 31 37 24 28 27 17 11 18 28 27 20 15 15 22 17 31 26 25 29 12 6 10 13
26 25 24 23 20 17 15 14 14 15 17 18 20 23 23 25 23 26 18 17 17 22 26 30 36 22 20 32 28 18 10 19 27 26 13 20 6 15 17 19 22 25 28 18 4 5 4
25 25 24 22 20 18 15 14 14 14 16 16 18 20 20 20 20 21 13 14 18 18 22 22 22 17 30 39 24 21 10 17 25 18 8 8 6 17 16 16 20 23 18 13 7 2 4
25 24 23 22 20 18 15 13 13 12 14 14 16 16 18 17 17 16 12 18 19 18 16 18 23 29 34 29 29 18 3 13 13 18 12 3 12 16 16 18 19 17 20 12 12 7 3
24 23 24 23 21 18 16 13 11 11 12 13 13 8 14 15 11 10 14 18 19 15 14 15 16 23 29 33 24 23 9 5 5 11 17 10 10 20 22 18 17 20 18 18 7 9 3
22 23 23 23 21 18 16 12 11 10 11 11 9 9 10 12 7 9 13 12 14 16 13 13 18 27 32 30 13 31 12 11 12 10 15 11 10 18 11 14 14 17 9 16 6 5 7
22 23 24 23 20 19 15 13 11 10 11 9 8 6 7 8 9 10 13 11 16 11 13 17 18 26 25 29 27 28 31 16 9 10 15 8 10 17 11 15 18 11 13 9 8 6 5
24 23 24 23 21 19 16 13 11 10 10 8 7 5 6 6 6 6 8 11 13 17 12 13 13 21 22 23 31 33 33 15 10 8 12 11 6 8 9 19 16 11 11 8 5 1 2
24 24 24 23 20 18 16 13 13 11 10 9 7 5 5 8 7 5 7 7 10 11 11 14 18 21 18 17 20 27 24 19 16 15 13 14 10 13 18 17 16 13 7 4 3 2 1
24 23 23 22 20 18 17 15 13 10 10 9 8 7 6 5 5 5 7 8 9 11 8 12 17 19 14 18 17 12 13 12 10 10 14 8 6 4 11 9 14 12 8 6 8 8 6
23 22 23 22 20 19 16 15 13 11 11 9 8 8 6 2 4 5 7 9 10 9 12 13 14 15 16 13 9 11 13 14 12 6 3 8 5 3 5 6 6 10 7 6 8 9 8
24 24 23 21 20 19 17 16 14 12 11 10 8 10 9 4 3 6 7 8 9 10 11 12 11 13 15 10 9 1 2 4 7 12 7 7 4 4 2 10 14 7 8 5 1 9 12
24 23 21 20 20 19 18 16 15 13 11 12 9 10 11 5 2 5 6 8 8 8 8 9 11 11 12 10 6 6 6 8 5 3 10 10 9 4 2 5 4 7 1 7 4 2 9
22 22 22 22 21 19 18 17 16 13 12 12 9 11 12 10 5 7 5 6 7 7 9 11 9 8 7 8 7 5 4 4 4 6 9 8 7 6 3 1 3 1 2 4 4 4 15
19 23 24 23 21 20 18 17 16 14 13 14 9 12 11 13 11 7 6 5 5 6 7 12 5 8 6 6 5 5 5 6 4 4 5 7 6 5 3 1 3 6 7 1 2 5 6
20 22 23 23 22 20 18 17 16 15 13 15 10 12 12 12 8 7 3 9 6 4 7 4 4 7 5 4 5 2 3 4 4 2 6 2 5 4 4 2 6 8 8 5 2 3 2

GFSGBSN_700_spd_102.txt.gz
Wind_Speed
35 32 30 28 24 21 19 18 16 14 13 10 10 10 12 15 17 19 21 23 26 29 30 32 35 37 37 39 37 36 38 39 37 34 33 30 30 27 32 31 32 41 50 39 41 39 38
36 34 32 28 25 22 20 18 16 13 11 10 10 12 15 17 18 20 22 25 29 32 33 35 37 39 42 45 34 39 38 41 43 38 37 31 33 29 34 30 32 41 43 43 41 40 39
39 37 31 28 25 22 20 18 16 13 11 10 11 13 17 19 21 23 26 29 31 33 34 36 38 41 46 46 42 43 38 35 31 32 35 37 27 27 36 34 35 33 40 45 43 46 43
41 34 28 27 24 22 20 18 16 13 11 11 12 14 17 20 22 26 29 31 34 35 37 38 43 43 51 49 42 40 38 39 37 35 35 36 36 33 34 36 34 32 37 44 51 40 41
46 33 27 26 23 22 21 19 16 13 12 12 13 15 19 22 26 29 32 34 36 38 43 45 45 44 53 41 44 27 22 23 19 20 26 29 30 36 29 35 39 40 39 45 47 40 38
51 45 29 25 24 22 22 19 15 13 13 12 13 16 20 24 28 32 35 37 38 43 48 52 39 38 46 29 14 24 24 20 25 23 19 24 27 34 37 38 39 39 39 39 39 30 38
50 48 31 26 24 22 22 18 15 15 13 12 13 16 21 25 30 35 38 40 45 46 49 48 47 45 51 45 49 47 38 30 31 32 31 26 34 44 49 43 40 39 39 37 35 31 28
44 45 31 26 25 26 22 20 17 15 12 11 13 17 22 26 30 34 38 42 44 47 61 47 25 26 23 20 26 24 20 24 24 32 31 32 44 38 37 37 39 41 39 41 31 27 23
40 44 29 26 28 25 24 20 16 13 11 10 14 18 23 27 31 34 38 39 42 48 48 27 13 10 13 13 22 26 15 20 27 34 33 40 38 29 32 37 39 40 42 31 26 20 11
39 37 29 28 29 24 24 18 15 12 9 10 15 19 22 28 30 33 32 37 41 34 19 16 10 21 30 36 31 18 28 37 41 31 31 36 33 32 33 36 37 39 37 23 23 12 4
42 30 28 30 23 27 22 18 15 11 8 11 15 20 24 26 28 30 33 36 26 18 7 16 30 28 31 35 37 40 37 32 20 22 25 39 32 33 30 32 33 32 26 26 17 18 12
33 30 30 26 28 27 21 18 14 9 8 11 15 19 23 27 30 30 30 24 21 9 5 33 29 34 36 34 35 38 27 22 19 19 27 32 26 24 30 28 31 21 9 8 12 12 8
31 31 31 30 31 26 21 18 13 9 9 11 16 18 21 23 22 23 24 22 11 9 28 26 40 35 37 35 39 29 29 12 25 23 25 20 29 19 19 21 22 15 16 6 7 8 8
33 32 29 32 30 26 22 17 12 10 9 12 15 17 19 21 21 20 17 16 6 18 19 27 32 35 28 32 38 31 17 9 14 20 16 22 10 23 18 23 20 24 22 10 7 9 12
29 30 31 32 29 26 22 17 13 10 10 12 14 15 17 18 16 18 17 10 11 19 23 27 33 27 35 41 28 27 21 15 8 17 16 6 11 17 17 17 19 24 26 20 4 7 2
30 31 33 31 29 26 21 17 13 10 10 10 12 14 14 15 13 14 9 8 14 16 18 16 19 23 33 42 33 33 21 6 2 14 15 16 5 9 12 14 20 18 25 10 12 2 0
32 32 32 29 28 24 21 17 13 10 10 9 10 12 11 13 11 10 10 12 14 14 17 14 17 22 26 37 30 29 32 10 8 2 12 5 6 12 16 11 19 22 13 10 7 12 0
28 30 29 29 27 24 20 16 13 11 10 8 8 5 10 10 7 8 8 11 15 13 12 11 13 21 28 31 26 21 36 25 8 19 10 7 3 5 15 6 15 15 18 20 6 1 7
31 29 28 28 27 24 20 16 13 12 10 8 7 8 7 8 3 4 7 7 11 14 12 14 11 21 30 25 18 25 38 19 23 9 4 2 1 2 6 7 17 10 12 18 10 8 3
30 28 28 27 26 23 20 16 14 11 10 9 7 3 8 7 6 4 8 6 12 10 10 17 14 22 23 18 25 23 36 28 18 2 5 4 6 8 6 2 11 9 16 20 7 4 5
26 27 26 26 25 23 20 17 14 13 13 9 8 5 5 3 2 7 6 7 11 14 11 12 14 19 22 18 27 30 32 30 11 2 6 4 8 1 8 8 10 7 11 10 13 10 6
26 26 27 26 25 23 20 17 15 15 12 11 9 5 6 5 5 4 7 6 9 11 12 12 17 20 17 17 18 26 26 21 18 11 8 10 9 12 10 22 18 23 17 16 10 11 14
25 25 26 25 24 21 19 17 16 14 13 11 11 8 5 8 2 5 5 8 12 13 8 11 17 20 15 16 9 14 12 11 16 13 12 17 10 11 14 18 13 23 16 15 20 23 21
24 24 24 24 22 21 20 18 17 15 13 12 13 9 6 5 1 5 7 8 10 11 13 14 16 17 18 13 5 11 11 7 13 9 12 11 7 3 6 4 6 11 16 21 19 18 16
22 22 23 23 22 22 20 18 16 14 13 13 12 9 7 8 2 5 6 8 10 8 9 13 14 19 17 12 12 8 6 4 2 12 11 9 10 6 5 6 17 9 7 16 12 12 11
21 21 22 23 22 21 19 18 15 14 13 13 11 8 9 9 5 5 3 7 7 10 10 10 17 15 14 11 8 5 4 8 5 1 10 10 5 4 3 5 0 5 3 3 3 9 13
20 21 22 23 22 20 19 16 15 14 13 14 10 9 9 12 7 5 4 6 5 8 10 11 16 10 9 7 9 6 5 8 7 10 14 13 10 12 8 5 5 10 1 2 2 5 11
16 20 21 22 21 20 19 17 15 13 14 13 8 9 10 12 14 12 9 5 6 6 9 12 7 9 5 6 6 6 5 7 6 8 11 9 10 9 10 7 4 13 5 2 4 4 5
15 17 20 19 20 20 18 16 14 13 13 13 10 9 11 9 7 9 9 6 9 7 10 3 6 8 7 5 6 5 4 5 8 5 9 7 9 3 6 3 8 10 10 6 2 2 2

GFSGBSN_700_spd_105.txt.gz
Wind_Speed
38 36 35 32 29 26 24 22 21 19 18 16 13 12 10 11 12 15 18 21 23 23 26 28 30 32 33 39 30 28 33 36 35 37 37 34 34 29 37 38 30 36 43 43 44 42 40
45 41 41 40 33 27 24 23 20 19 17 16 13 12 10 12 14 17 20 22 25 27 28 30 33 36 40 44 35 36 38 40 40 39 38 34 34 24 38 35 34 34 37 43 44 43 45
44 42 38 39 39 36 25 23 20 18 17 16 13 12 12 13 16 19 22 25 26 30 30 31 34 41 46 40 42 41 30 30 33 35 39 32 27 23 31 33 39 41 41 41 42 52 50
43 39 43 44 44 43 26 23 20 18 18 16 13 13 13 14 18 21 24 26 28 31 32 34 38 42 49 46 35 31 31 25 25 32 38 36 34 37 39 39 43 36 36 43 53 43 49
43 45 47 48 47 45 31 23 21 20 19 16 13 13 13 15 19 23 25 27 29 32 34 36 40 43 41 33 29 10 21 22 22 20 19 25 23 32 40 45 42 40 41 43 46 42 40
47 45 49 45 47 45 34 24 22 22 19 15 13 13 14 17 21 25 27 30 29 33 33 41 35 34 27 34 31 32 30 33 32 26 22 24 23 31 36 38 35 38 30 41 42 35 31
44 46 44 48 43 42 37 25 24 22 18 14 13 13 13 17 22 27 29 30 31 37 37 34 18 22 25 26 28 25 16 14 19 32 38 35 30 35 38 39 40 41 33 34 34 39 36
48 53 51 43 39 41 31 26 25 22 16 17 14 12 13 17 21 26 30 32 34 38 41 17 14 25 26 31 36 21 22 22 27 27 27 30 40 45 35 34 35 40 40 40 32 36 25
53 45 52 40 38 32 29 27 26 20 21 16 12 10 12 16 21 25 27 30 34 35 23 13 25 25 24 30 33 39 18 28 32 33 38 38 48 33 36 38 39 37 37 38 38 27 17
55 48 45 44 35 34 31 28 21 23 18 14 10 9 12 15 19 22 27 28 30 27 5 13 19 25 28 35 36 20 25 36 39 42 41 42 39 31 37 34 27 33 34 36 39 28 11
57 54 48 38 36 32 30 26 26 20 18 13 10 8 11 15 18 22 24 26 22 14 3 18 20 24 31 27 36 36 31 35 42 43 25 39 25 25 27 32 28 32 31 34 37 30 15
64 53 44 36 33 32 31 28 25 23 17 13 8 8 10 13 16 19 22 21 11 6 4 15 25 33 34 29 23 29 25 15 19 19 20 26 20 19 26 21 28 26 32 13 21 8 6
61 43 36 34 34 35 31 30 26 22 17 12 7 7 9 13 16 15 16 13 5 5 17 16 32 35 29 42 31 33 27 21 14 6 13 13 19 21 24 24 26 17 21 1 3 6 4
47 36 35 34 36 34 33 28 26 21 16 11 7 6 8 10 12 12 11 7 5 10 11 23 27 25 25 42 31 34 32 27 8 4 11 9 9 13 13 18 8 24 21 9 5 3 4
40 36 37 40 38 37 32 30 25 20 15 10 8 5 6 9 9 10 5 9 4 12 17 24 25 18 34 37 28 32 36 28 19 8 8 12 10 14 13 7 18 18 23 12 2 2 0
42 39 42 39 38 34 33 29 24 20 14 11 8 6 7 5 7 5 3 4 6 10 16 18 13 14 26 43 33 33 33 18 20 9 5 11 16 8 7 7 17 21 19 8 2 1 4
43 45 40 39 35 37 34 28 25 20 15 11 7 7 7 5 5 2 7 6 7 7 12 10 15 18 27 34 32 23 31 12 24 14 14 14 8 9 12 7 10 9 15 8 3 5 4
41 39 36 37 35 35 32 28 25 20 16 11 8 7 6 3 3 2 4 4 7 9 8 11 9 18 26 32 23 20 31 26 25 20 20 5 2 4 3 8 12 15 10 8 5 3 3
33 35 35 34 37 34 31 28 24 19 15 11 9 7 6 4 2 5 4 1 6 6 7 16 16 19 24 23 17 22 30 24 15 13 10 11 7 5 4 2 10 15 11 12 13 6 5
33 33 35 36 34 33 31 28 23 19 16 13 11 7 5 4 3 4 3 3 6 7 9 13 12 18 22 22 22 20 27 29 19 15 7 5 5 9 10 13 2 5 10 7 13 3 6
32 33 30 32 33 33 30 27 23 19 16 14 11 9 7 3 2 3 2 5 5 10 7 6 14 17 20 22 24 23 21 28 10 18 13 10 14 16 8 15 8 3 3 2 13 10 4
31 29 31 31 32 32 29 26 22 19 17 15 12 12 8 8 2 2 3 5 8 8 9 9 15 19 21 15 21 24 22 25 21 17 12 7 13 14 22 30 30 36 32 35 29 28 27
33 30 30 31 32 30 28 25 21 19 18 16 14 10 8 4 6 2 1 4 8 9 5 10 15 22 20 20 17 10 18 7 13 16 18 11 13 14 11 10 21 27 25 29 33 32 19
28 28 29 29 30 29 26 24 21 19 17 14 12 10 9 11 11 4 12 9 6 5 12 12 14 21 19 19 16 10 10 9 6 14 15 8 11 5 3 5 5 15 21 21 21 22 23
28 26 27 29 28 27 25 23 20 18 15 13 13 13 11 15 14 6 3 2 4 6 8 4 11 19 23 17 14 7 6 7 3 3 11 9 13 6 2 6 13 6 15 17 12 24 18
25 26 26 27 27 25 22 21 19 15 14 15 12 11 11 13 14 10 5 8 7 10 10 6 12 15 13 12 9 5 5 13 6 4 8 5 8 9 6 3 5 11 7 6 7 17 15
20 18 21 24 25 24 22 20 18 16 15 14 12 11 10 11 14 13 10 7 6 6 9 11 13 9 6 6 10 8 6 10 8 10 17 12 10 16 18 6 4 13 4 5 4 4 11
19 21 22 23 23 22 21 19 17 16 15 14 11 9 9 8 12 14 10 7 5 7 11 11 4 8 7 6 6 6 5 9 12 13 11 13 8 10 7 6 4 15 4 3 8 4 6
16 18 20 21 21 21 19 18 17 15 15 13 10 7 6 5 5 9 9 7 4 8 6 6 3 5 6 6 5 5 5 9 11 6 12 8 10 5 5 6 10 12 13 9 5 6 4

GFSGBSN_700_spd_108.txt.gz
Wind_Speed
35 35 33 37 37 37 34 36 28 26 23 21 19 17 15 14 14 14 15 16 18 20 22 24 26 27 29 25 29 30 30 32 32 35 36 33 33 31 38 39 34 42 46 41 43 44 45
38 38 34 33 37 35 36 37 34 28 25 22 20 18 16 14 14 15 15 18 20 22 23 26 28 29 29 33 29 29 34 41 40 37 35 33 33 26 38 41 38 42 32 44 44 48 46
39 41 40 36 30 32 33 37 40 38 25 23 19 18 16 15 14 15 16 19 22 23 24 27 30 33 33 36 36 40 40 36 34 36 38 34 31 31 32 36 28 30 37 47 51 52 42
44 43 34 36 35 35 36 36 38 38 38 22 20 19 16 15 15 17 17 19 23 24 24 26 31 34 37 34 25 27 35 35 34 36 41 40 34 36 38 40 45 40 37 40 55 49 46
48 46 44 43 39 37 37 37 39 38 34 23 21 19 16 15 17 17 18 20 23 23 24 28 32 32 26 24 31 30 36 36 35 33 35 33 23 27 32 44 45 44 37 38 48 37 35
48 49 46 43 44 36 39 41 39 37 25 22 22 18 15 15 17 17 19 20 24 22 24 27 27 29 21 30 32 24 17 19 26 28 31 28 28 30 32 29 31 36 35 39 37 49 36
54 53 51 46 47 38 39 39 35 32 26 24 23 17 14 14 17 19 19 21 22 21 25 24 26 25 26 31 28 25 27 27 27 26 27 20 26 38 36 35 32 37 38 38 43 45 31
54 59 58 53 50 40 45 41 34 29 26 25 22 16 14 15 18 20 21 22 21 23 22 18 16 24 26 32 39 37 20 21 23 30 28 29 34 26 31 40 43 38 37 40 41 36 35
57 58 60 59 56 42 42 42 37 28 28 26 20 15 17 12 19 19 20 21 22 24 18 8 16 23 25 33 37 23 19 23 34 38 35 34 42 38 36 38 33 38 39 37 32 32 32
61 61 59 63 58 42 43 36 34 30 31 28 20 20 11 18 17 16 18 20 21 18 3 10 15 13 25 25 16 33 24 28 29 35 35 39 40 26 22 27 26 35 28 35 36 33 25
59 65 60 60 57 49 39 35 31 35 32 27 22 16 18 15 14 14 15 17 16 9 1 10 16 21 20 21 24 24 15 19 19 20 27 41 31 28 26 22 18 31 28 23 24 34 25
61 62 68 58 57 47 41 32 39 35 30 25 21 20 15 12 13 13 13 13 9 2 2 7 17 25 26 23 16 25 22 17 18 20 14 18 13 17 14 11 15 22 22 23 17 27 14
65 59 65 61 57 43 37 35 38 34 30 27 24 19 14 11 12 11 10 7 2 1 6 7 21 24 27 32 23 26 24 26 17 12 18 20 9 5 11 16 20 24 24 4 2 5 4
60 64 61 54 54 45 42 40 38 36 32 28 23 17 14 10 9 9 5 1 3 2 5 11 19 18 25 35 26 25 18 22 20 14 17 11 11 9 8 15 18 11 20 7 4 3 3
62 73 52 52 44 39 42 41 40 36 33 28 22 17 13 10 8 7 2 2 1 4 8 14 17 15 24 30 25 24 24 24 15 18 19 12 11 27 24 20 12 5 20 20 8 6 3
57 63 54 48 44 41 44 42 41 37 33 27 22 16 13 10 9 3 5 4 3 1 9 8 8 11 24 30 24 23 24 14 16 14 11 13 20 8 3 3 10 15 12 8 5 1 2
65 62 50 46 47 46 47 43 40 36 31 26 21 16 16 10 6 8 5 5 2 3 5 7 7 13 21 27 28 20 20 8 19 22 10 18 7 9 4 3 1 1 11 7 2 3 1
59 50 52 51 48 49 47 42 38 36 29 24 20 16 13 10 9 10 5 6 1 3 2 5 4 12 19 24 16 15 21 19 17 19 20 9 8 7 10 14 14 6 4 8 2 1 6
47 52 48 51 49 49 41 43 39 32 28 24 19 16 13 10 10 13 9 7 2 2 3 6 7 12 17 20 12 15 20 23 15 16 18 13 6 9 8 11 7 11 11 8 11 12 6
46 44 49 49 43 42 44 41 35 31 27 24 21 15 14 12 12 11 10 9 5 2 1 1 5 12 16 21 17 13 26 25 10 14 13 7 8 11 8 18 24 11 6 8 13 4 20
43 41 43 39 41 43 41 37 34 30 27 24 20 15 12 11 11 9 8 7 5 2 1 4 6 10 16 18 21 15 26 26 8 13 10 10 9 11 8 7 12 12 18 10 14 11 20
48 42 39 42 42 42 36 35 32 29 26 23 22 15 15 11 8 7 5 3 1 5 7 5 10 12 14 15 19 28 24 14 14 17 17 12 16 17 29 36 39 37 39 41 38 29 27
37 36 37 40 39 36 36 34 31 27 25 24 20 15 12 13 13 8 6 5 4 7 2 4 10 16 16 13 18 17 10 12 12 15 16 16 19 14 4 8 7 31 26 32 29 27 21
33 36 34 36 35 34 34 32 29 26 24 21 16 14 13 15 12 9 8 8 7 5 5 9 13 17 16 15 14 11 11 4 7 12 7 13 16 5 5 4 6 10 9 24 26 22 19
32 29 32 29 30 31 32 30 27 25 22 19 17 15 16 19 18 14 14 12 8 9 10 14 17 21 20 12 8 2 4 3 7 9 20 8 8 2 3 9 15 16 13 12 18 23 16
29 26 28 30 31 30 29 27 25 23 22 19 17 15 16 19 20 16 13 9 6 8 10 13 14 16 13 6 4 5 3 9 4 5 9 3 8 5 3 5 4 12 4 6 10 17 15
24 25 28 28 28 28 27 25 24 23 20 18 15 14 16 18 17 17 13 7 6 6 8 9 9 2 2 2 4 6 4 7 6 9 15 8 7 15 14 6 7 11 6 6 4 3 9
27 28 28 27 27 27 25 24 23 21 19 16 13 13 14 14 10 10 9 6 5 4 7 9 3 5 3 4 4 3 2 8 6 13 7 15 7 9 6 5 3 14 4 5 9 7 5
24 24 26 26 23 24 25 24 22 20 17 14 12 10 11 11 8 8 8 7 5 5 4 6 3 5 6 5 4 2 7 5 10 4 9 8 11 7 6 7 7 9 13 10 8 6 4

GFSGBSN_700_spd_111.txt.gz
Wind_Speed
36 35 30 30 28 26 26 27 27 27 29 30 27 25 23 22 21 20 18 17 17 20 22 22 21 20 19 19 28 29 28 29 30 31 33 35 36 35 39 40 38 43 47 45 48 49 48
39 38 36 31 29 31 28 24 24 21 27 31 31 25 25 25 22 21 19 19 18 21 22 23 23 22 23 27 29 29 32 30 28 30 31 33 36 36 42 43 40 43 47 51 53 52 48
44 42 36 34 33 34 32 27 23 26 27 28 33 30 26 26 24 21 19 19 19 22 23 25 25 25 27 32 28 23 20 24 29 33 33 32 34 37 39 39 38 37 42 52 57 52 47
46 43 40 37 37 31 29 31 30 27 29 27 33 37 26 27 25 21 19 19 20 22 23 26 26 27 33 27 16 23 28 28 29 28 29 30 30 35 38 40 41 43 41 48 60 45 40
49 47 45 42 38 37 36 35 35 33 26 32 30 34 26 28 26 21 18 18 21 22 24 26 27 29 19 17 20 19 24 27 27 24 26 25 24 33 31 33 38 40 43 43 59 55 55
52 50 48 46 43 39 38 36 37 31 33 33 32 29 26 28 26 20 17 18 22 22 25 26 28 19 16 24 21 16 23 30 25 28 28 26 25 25 33 37 29 30 30 31 38 46 40
57 54 53 49 48 44 41 42 44 33 30 37 28 23 26 29 24 19 16 18 21 23 20 23 23 18 19 22 22 21 24 26 24 26 28 26 30 33 31 34 39 40 42 43 48 40 41
60 58 56 55 54 49 45 44 45 36 42 32 26 26 29 28 23 17 19 16 21 22 20 21 16 16 20 26 27 20 24 25 28 32 31 35 41 35 28 27 27 30 40 48 56 47 37
62 59 58 56 55 51 47 49 48 41 44 31 27 28 30 26 19 19 18 22 22 21 19 13 9 16 21 27 29 21 24 26 25 26 24 27 34 34 34 36 37 35 34 39 43 38 36
61 57 65 61 59 55 49 49 48 46 41 34 28 30 29 22 21 21 23 21 17 17 10 5 8 10 23 24 11 17 20 21 23 24 25 22 28 24 17 25 22 34 29 31 30 24 28
61 60 58 60 61 53 50 52 46 42 36 29 31 31 25 23 23 23 21 18 14 13 0 3 6 11 19 19 21 16 14 19 17 15 18 24 26 25 28 26 20 32 19 18 26 29 25
68 61 56 60 65 57 59 49 48 44 36 31 33 28 28 26 26 22 17 15 12 4 3 3 5 11 16 18 12 13 11 13 14 15 17 19 14 13 8 6 9 15 19 20 23 25 10
72 66 57 58 64 59 58 48 51 40 39 35 33 32 28 29 25 18 14 11 5 6 4 3 4 10 16 22 14 15 14 15 15 16 22 15 14 12 10 15 15 15 18 5 3 3 5
70 71 63 57 64 61 55 42 46 39 38 38 36 31 32 30 22 17 12 9 8 7 6 9 7 10 11 26 18 17 10 14 11 17 20 13 20 15 12 17 17 20 18 7 3 1 3
67 70 67 63 56 57 58 48 45 44 42 42 35 35 34 26 20 16 12 10 5 5 6 7 10 6 11 19 18 21 20 8 15 18 15 11 14 22 15 8 10 5 7 16 13 18 3
64 68 66 60 64 61 50 51 46 43 44 40 38 37 30 24 19 14 14 10 7 7 6 5 4 4 13 20 20 19 15 8 17 18 17 11 15 14 13 10 10 10 13 5 2 3 4
63 64 63 57 69 55 48 47 44 48 44 42 39 32 27 21 17 17 15 10 9 5 4 2 2 5 10 18 22 15 11 9 19 24 17 14 9 14 12 11 15 10 9 5 7 4 2
60 56 60 69 60 47 46 49 52 51 49 44 35 31 29 22 19 20 14 12 9 5 3 1 1 5 9 14 16 10 17 14 23 21 22 8 10 13 21 17 17 18 16 13 8 0 4
69 78 70 77 55 54 54 55 55 52 45 38 34 30 28 24 21 20 16 13 9 7 7 4 2 5 10 13 12 11 16 26 20 14 15 14 7 11 12 6 13 19 20 13 10 8 8
87 78 70 63 55 56 57 58 52 45 45 39 35 28 27 26 21 19 16 13 10 9 8 5 2 5 11 10 8 14 19 22 9 11 14 10 10 11 14 25 26 19 8 13 11 3 20
61 59 55 51 56 56 57 52 47 48 40 37 33 27 25 27 23 19 16 13 13 11 8 8 4 6 10 11 16 7 22 23 4 15 14 14 10 21 25 22 29 30 14 10 14 13 12
27 31 38 47 55 57 51 46 46 41 37 35 33 26 23 16 18 19 17 15 14 12 10 8 10 11 9 12 14 21 21 18 15 16 16 13 10 3 13 18 37 37 34 40 33 22 20
40 46 46 50 54 48 43 49 44 37 35 33 29 22 21 21 21 18 15 13 10 7 6 11 13 13 13 13 16 15 15 15 16 16 18 11 16 10 7 13 8 25 29 26 26 21 17
40 46 49 50 43 43 49 41 36 34 33 29 26 21 20 20 19 15 13 11 9 8 9 13 12 13 14 14 13 11 7 8 11 8 19 12 13 5 3 4 5 6 7 19 18 17 17
41 37 40 39 43 42 38 34 35 32 30 27 22 20 19 21 20 17 15 10 6 6 9 10 11 16 16 7 8 2 2 4 10 7 12 9 10 4 3 10 11 7 8 15 18 17 10
37 35 36 38 41 36 31 36 33 31 26 24 22 20 19 19 20 16 12 7 6 6 8 9 12 13 9 6 3 2 2 6 5 5 7 10 13 3 4 4 2 8 1 11 13 12 10
33 31 34 32 32 33 35 32 29 26 24 22 20 20 20 19 18 15 12 7 6 5 5 6 6 5 3 4 4 1 1 6 5 8 12 5 6 13 10 5 4 6 6 10 1 3 8
35 33 32 29 33 32 31 30 27 24 22 20 18 19 20 18 13 14 10 8 6 4 3 5 4 2 1 2 2 2 1 4 2 8 4 10 6 5 4 4 2 7 9 3 11 8 5
29 30 31 30 32 32 30 28 26 22 20 18 17 18 18 17 11 12 12 11 8 4 2 2 2 4 4 3 2 1 1 3 4 3 9 4 7 5 4 6 8 11 11 10 9 6 5

GFSGBSN_700_spd_117.txt.gz
Wind_Speed
31 32 33 30 28 27 28 25 24 25 19 20 18 13 14 16 16 16 20 22 23 22 21 21 21 21 21 22 23 26 26 25 28 29 28 27 26 27 29 30 32 37 40 40 42 43 45
32 37 35 33 31 29 28 27 29 28 24 25 19 19 19 16 15 17 22 25 24 24 21 22 23 23 23 25 24 24 28 27 24 22 23 24 25 25 28 28 30 33 35 38 40 41 42
42 35 34 34 33 32 31 30 33 30 28 23 22 22 23 21 18 21 24 25 23 23 23 24 24 24 24 25 25 27 23 22 22 24 21 23 23 22 26 27 24 32 42 43 41 40 32
45 36 37 34 36 34 35 34 30 29 30 31 25 28 27 25 21 22 24 26 22 23 24 25 24 24 25 25 25 20 19 23 25 24 20 19 21 21 23 27 31 34 37 40 19 29 37
47 49 50 52 43 47 38 37 36 33 32 32 31 31 28 26 23 24 26 24 24 24 23 25 25 22 23 13 14 22 25 22 20 19 18 16 19 22 23 24 28 23 24 34 45 30 31
49 50 49 48 44 39 40 36 38 38 31 35 33 30 30 30 31 25 26 25 24 26 23 25 25 14 13 20 25 22 23 20 14 14 17 17 20 23 21 19 13 20 28 34 42 45 38
48 49 50 50 50 54 48 43 47 43 42 38 37 32 30 33 34 30 29 23 24 24 22 23 25 29 30 26 21 18 19 13 14 15 14 15 19 13 15 16 19 22 27 36 40 38 41
42 44 48 49 51 53 52 51 51 47 43 39 40 38 32 33 34 30 29 25 23 24 26 26 28 32 27 21 17 18 12 14 15 15 16 19 9 11 14 17 19 20 26 32 38 30 26
45 44 43 45 48 52 52 51 48 51 46 44 39 39 35 34 35 37 31 24 21 21 25 32 31 26 18 14 14 10 13 13 13 12 15 17 7 13 16 18 20 18 21 21 26 30 31
44 46 46 46 45 45 47 43 52 58 49 47 46 36 36 36 35 39 32 20 18 19 16 16 15 12 11 10 8 14 11 13 12 12 15 6 11 18 16 17 14 16 14 22 26 23 20
45 44 46 47 46 45 44 47 48 49 44 47 46 43 37 40 35 32 23 18 17 16 4 6 10 10 7 5 8 12 11 13 13 13 13 10 19 19 13 13 16 21 22 26 28 27 23
47 46 46 48 47 48 47 45 47 46 48 46 46 48 45 40 36 29 21 19 15 8 8 8 8 8 6 5 5 7 9 11 12 10 11 15 6 9 9 12 14 18 21 27 13 11 6
53 49 48 48 49 49 50 48 46 46 49 48 41 45 44 35 31 27 24 20 11 11 8 10 12 11 7 6 6 7 8 9 9 9 15 16 6 9 8 17 16 10 16 6 4 1 6
58 53 52 51 49 49 50 49 50 47 49 41 42 46 41 41 37 30 28 24 17 12 24 10 11 10 10 7 7 7 8 6 8 13 14 8 4 6 18 14 14 17 10 5 5 6 12
62 58 54 54 52 49 51 52 52 52 50 43 52 45 46 44 41 32 29 32 17 25 15 16 12 12 11 9 6 4 6 6 7 13 12 7 9 17 13 10 17 7 7 9 9 10 5
63 63 59 55 54 51 53 53 55 55 56 49 47 51 43 46 36 34 34 32 26 19 14 12 11 10 9 8 5 1 4 2 8 13 14 7 15 9 7 22 12 10 14 9 5 4 5
67 69 64 59 58 56 55 56 62 61 58 46 47 56 46 48 33 36 40 27 26 20 19 14 14 10 9 7 6 4 4 3 8 14 10 11 9 15 23 12 14 16 16 12 9 7 4
75 72 70 68 68 65 61 64 67 67 57 48 53 52 42 46 43 40 41 24 26 26 22 16 12 12 9 7 4 5 5 2 10 10 8 7 9 12 26 12 7 11 15 19 9 3 4
73 68 67 66 69 68 68 72 70 67 50 51 65 50 41 47 41 40 29 28 24 24 20 17 14 12 8 8 4 6 4 1 8 6 9 11 5 12 11 6 20 15 15 21 21 19 8
59 48 47 50 62 68 72 74 68 65 51 55 57 36 44 46 45 38 32 30 26 20 18 16 14 11 9 7 6 7 4 1 5 5 8 13 8 7 1 6 12 19 12 5 12 4 10
32 28 31 40 60 67 70 69 64 58 50 64 60 43 55 57 52 39 34 29 29 24 21 19 16 13 11 7 7 7 6 4 4 2 8 9 4 7 17 16 15 15 23 13 12 12 8
17 20 28 36 49 56 60 56 55 54 60 63 64 47 51 26 46 37 35 27 28 26 22 23 16 15 12 9 8 7 6 6 2 3 7 6 2 10 15 3 3 22 15 18 22 22 22
11 21 25 37 41 46 46 43 44 61 62 70 68 48 50 35 45 37 35 31 27 25 19 17 15 13 12 10 10 9 9 8 9 6 2 5 8 11 4 4 1 4 16 16 16 16 16
39 26 25 29 35 33 38 44 55 59 56 61 50 40 50 42 42 38 33 29 24 24 18 16 16 14 10 9 8 8 8 6 7 6 6 6 9 6 6 7 2 3 3 9 13 13 11
49 61 52 44 49 49 42 56 61 64 60 41 34 45 44 33 39 35 29 27 24 21 18 14 14 10 8 6 4 4 6 5 6 5 2 3 7 6 4 3 8 5 6 5 6 9 9
21 33 44 63 66 62 59 61 65 56 42 40 38 30 35 32 34 30 29 25 25 21 17 15 11 7 6 6 7 7 5 6 5 3 3 5 5 6 3 3 4 6 8 10 6 5 7
32 36 38 39 41 39 47 57 62 54 41 34 29 29 30 27 30 26 26 28 23 20 16 13 9 7 6 7 8 6 5 4 4 3 6 3 4 3 2 1 2 3 11 8 2 3 5
28 34 42 47 51 51 53 50 44 43 36 30 27 28 25 24 31 26 22 18 17 16 13 11 9 8 7 9 7 6 5 5 5 2 3 2 1 2 1 1 2 1 13 7 8 8 5
37 41 50 49 42 41 45 42 37 31 31 33 30 26 22 20 30 26 21 16 13 11 10 9 7 9 10 9 8 6 6 6 4 4 3 1 2 1 2 3 3 6 8 14 10 7 6

GFSGBSN_700_spd_120.txt.gz
Wind_Speed
36 32 35 35 25 25 25 23 23 24 21 23 20 18 19 17 17 18 18 19 18 18 19 18 16 17 18 21 24 25 23 23 24 25 24 24 23 23 23 23 26 28 25 28 31 33 35
41 35 36 32 30 30 30 26 25 25 22 23 25 21 20 19 20 19 19 20 21 19 16 17 18 18 20 23 25 23 24 23 22 22 23 22 21 21 22 20 23 25 28 31 34 33 33
41 38 34 31 30 32 30 27 27 28 26 26 24 21 19 25 22 22 22 22 22 20 19 18 19 19 20 26 25 24 23 20 18 20 23 21 19 17 20 21 22 27 32 27 18 12 18
40 40 40 40 36 35 32 31 28 30 30 31 26 23 23 27 26 25 23 23 22 21 20 19 19 19 22 24 25 21 15 22 25 22 21 20 17 15 18 23 24 21 14 10 13 21 20
41 41 40 40 40 39 36 27 30 32 35 33 31 28 26 26 29 26 24 27 23 22 22 21 19 18 22 13 12 19 24 23 22 20 18 16 15 15 18 13 14 11 15 22 20 14 12
40 41 42 42 43 45 44 43 42 38 38 34 33 31 31 26 29 27 26 23 25 26 24 23 21 10 9 17 27 27 25 19 17 16 16 14 14 13 8 7 12 17 22 24 24 13 28
35 37 40 43 44 46 46 47 42 42 42 33 33 32 31 29 31 29 26 28 23 26 27 23 20 21 23 24 28 24 19 18 13 13 11 11 10 9 8 9 12 18 19 25 23 25 24
36 35 35 36 38 41 43 43 46 44 39 39 40 38 36 33 34 33 30 29 26 26 31 26 24 25 26 28 25 21 15 12 11 9 9 10 10 8 10 14 15 15 20 23 24 14 28
36 36 36 36 36 36 37 39 41 49 49 49 45 42 37 32 38 32 31 24 32 25 26 32 26 27 26 19 16 14 10 10 10 9 9 10 8 11 15 15 15 16 19 21 25 27 23
36 36 36 36 36 37 37 37 37 40 41 47 43 41 39 44 36 36 34 31 24 25 14 17 17 16 18 13 14 11 9 8 8 7 11 8 8 12 17 14 14 17 12 17 21 23 18
37 36 36 35 38 38 37 37 38 38 37 40 37 42 39 45 44 34 28 28 20 14 6 9 15 13 13 12 8 8 6 8 7 10 7 5 11 12 11 8 10 11 16 21 24 24 21
41 40 39 38 37 37 38 39 37 39 39 38 43 44 35 39 36 41 31 19 15 9 10 11 13 15 15 12 9 6 5 6 8 8 11 8 11 6 4 7 10 15 19 22 15 11 8
46 45 45 43 41 40 39 39 40 39 40 41 40 37 38 41 42 38 37 24 14 12 10 13 18 18 16 14 10 7 5 4 2 4 5 11 11 7 4 11 10 9 14 8 5 8 7
52 51 51 49 46 45 43 41 41 40 41 42 43 36 42 42 39 41 38 29 17 14 14 15 20 20 16 14 13 11 6 3 2 2 6 5 5 9 6 5 6 14 7 7 6 9 17
54 53 53 52 48 47 46 43 41 42 42 43 46 38 37 44 41 35 34 24 15 22 22 21 17 17 19 18 12 9 6 6 4 2 0 3 6 7 16 9 8 5 9 7 13 21 11
55 54 55 54 50 47 45 45 39 43 44 46 47 38 40 39 49 37 40 37 27 16 15 23 19 17 16 17 15 10 7 7 3 3 4 3 10 2 2 11 9 11 10 10 6 5 5
55 55 55 55 52 49 47 45 42 42 47 45 39 41 43 46 50 42 46 33 22 20 17 21 21 17 16 18 16 13 9 8 2 3 3 3 4 5 12 3 11 11 11 10 12 12 5
54 55 57 57 57 54 50 48 46 39 49 47 45 43 44 42 40 41 45 31 28 26 25 22 19 19 18 19 16 16 13 8 3 2 0 3 4 9 10 9 2 10 12 15 12 7 7
55 58 60 61 62 59 54 53 53 44 56 54 52 47 44 31 43 45 37 28 30 25 28 20 17 19 19 18 11 16 15 9 3 1 2 4 2 7 2 3 6 8 16 18 21 22 11
57 62 65 63 63 64 62 59 59 55 58 51 53 43 38 46 43 48 34 38 31 29 25 28 26 21 19 17 14 19 15 10 4 3 4 6 4 6 5 9 7 10 15 13 10 7 6
60 63 63 64 67 72 74 73 72 70 64 59 59 51 53 53 57 49 34 32 31 31 27 25 24 21 21 16 18 16 14 10 6 6 4 4 6 9 10 12 5 11 10 16 7 6 3
57 58 57 53 52 53 64 75 82 81 73 68 67 55 58 43 53 46 40 33 34 32 31 33 28 24 21 15 13 16 17 11 7 9 4 3 2 6 15 11 8 8 4 9 14 17 17
52 43 44 37 42 46 44 60 78 77 77 74 68 59 50 49 52 45 47 36 34 34 33 27 26 20 22 18 14 13 12 11 10 10 8 6 3 4 4 6 7 4 5 8 9 10 6
33 18 18 21 25 33 49 58 69 71 73 74 70 64 62 43 51 47 40 34 34 30 28 26 24 19 18 15 12 11 11 11 10 10 10 7 5 4 6 6 6 6 8 7 7 7 7
25 4 14 23 26 35 48 53 60 63 62 59 65 64 57 47 44 44 38 35 33 31 26 22 24 21 16 12 9 5 6 8 10 10 10 9 6 4 5 4 5 7 10 9 7 2 4
22 17 29 32 34 38 44 52 60 59 65 64 62 59 58 46 47 43 39 38 35 30 27 23 22 21 16 13 12 9 8 9 7 7 10 9 5 5 5 7 6 8 12 11 7 3 4
31 31 27 31 40 48 51 54 57 61 71 61 56 40 37 39 46 38 41 38 35 33 31 27 24 19 17 16 11 8 7 10 8 9 7 7 8 11 9 9 3 10 14 14 5 6 4
29 46 56 52 52 57 60 63 70 60 54 39 38 35 34 41 44 38 31 31 30 29 27 26 22 20 19 14 10 7 7 9 7 7 7 7 6 5 5 7 4 8 15 12 7 11 7
25 32 41 59 68 68 65 61 55 47 43 33 33 36 32 32 36 33 28 27 23 22 22 22 18 20 16 13 10 9 8 10 10 6 7 5 5 3 6 6 6 9 16 13 15 11 9

GFSGBSN_700_spd_123.txt.gz
Wind_Speed
33 34 29 27 25 28 27 26 23 23 22 21 21 17 17 19 19 18 16 14 15 18 19 16 17 17 18 18 17 20 20 19 20 21 19 18 17 18 12 14 16 18 16 16 23 26 30
43 44 41 42 38 32 31 27 28 27 25 23 21 20 19 20 18 17 17 16 16 18 19 18 16 17 19 18 20 21 19 19 19 18 17 17 17 18 18 17 16 14 20 22 24 23 22
40 37 38 38 34 38 28 29 27 31 29 26 24 23 21 20 20 22 19 18 18 18 18 18 18 18 20 22 21 21 17 15 14 17 19 18 16 15 13 12 14 23 21 19 13 11 18
38 37 38 37 37 35 31 29 30 33 29 29 29 27 25 24 24 25 24 23 20 19 20 21 20 20 23 21 21 17 13 17 19 21 18 17 14 13 14 15 17 14 13 5 11 19 19
39 38 38 38 37 38 41 40 34 34 32 32 29 28 29 29 29 26 25 24 24 23 21 25 25 20 16 20 12 12 19 22 23 18 17 15 14 12 11 10 14 12 11 19 18 18 17
37 38 39 39 38 39 40 40 41 36 34 30 33 33 32 33 34 29 27 27 24 26 25 22 24 18 19 15 20 24 22 20 17 16 16 13 9 8 11 9 13 15 20 19 18 17 24
34 34 35 37 39 40 39 38 40 42 37 40 38 35 34 28 31 31 26 27 26 26 26 21 22 25 27 31 27 26 25 18 15 12 7 13 8 11 11 11 12 15 19 21 18 20 17
33 32 32 32 32 33 35 36 39 42 47 46 45 42 43 30 24 30 31 27 31 29 33 30 31 32 32 30 25 28 20 13 10 7 11 10 11 10 13 11 13 16 20 22 20 13 23
33 32 31 31 32 31 31 31 32 35 38 39 35 41 37 36 35 31 32 29 27 29 33 35 36 33 32 29 24 16 14 12 11 11 13 14 10 16 15 12 15 17 20 23 22 22 23
34 33 33 31 30 30 30 31 31 32 32 35 41 47 46 42 40 38 35 27 32 32 14 25 35 25 29 23 21 20 17 13 11 9 12 14 15 14 10 13 14 19 15 17 23 21 22
35 33 31 31 31 30 30 30 29 30 32 32 32 36 37 34 39 36 37 33 36 29 5 9 19 23 19 17 11 13 16 14 10 11 9 6 8 9 12 12 11 12 14 20 23 25 25
38 37 36 34 33 32 31 30 29 30 30 31 32 32 33 30 36 36 28 37 30 16 9 11 14 17 18 18 16 13 12 12 11 12 15 19 15 12 10 11 10 14 17 23 21 18 16
42 41 39 37 36 34 33 32 30 30 30 31 32 32 31 32 38 33 29 30 21 11 5 12 13 17 19 15 15 15 11 10 8 7 12 9 15 15 12 8 8 8 14 12 10 7 15
45 44 43 41 39 38 37 36 34 33 32 32 32 32 34 35 40 33 36 26 14 23 28 13 12 16 20 18 16 13 12 14 11 9 9 8 7 15 10 9 8 12 12 10 8 11 20
48 47 46 45 44 42 41 40 38 35 35 35 34 36 36 36 35 36 36 26 29 33 22 19 10 14 19 20 12 15 16 12 13 9 7 5 7 9 9 10 9 1 12 9 16 28 22
51 51 49 49 48 46 45 43 40 38 36 37 37 38 38 35 32 34 38 39 35 30 20 20 20 16 20 19 16 15 14 12 14 9 9 5 7 8 9 6 11 13 10 9 9 5 9
53 53 53 52 51 49 45 43 40 39 39 40 38 37 41 36 31 36 44 42 27 20 22 22 23 19 18 17 20 17 9 9 12 10 6 6 5 4 8 8 6 8 9 9 15 17 6
53 54 54 52 51 50 47 43 41 41 42 39 37 34 43 39 37 43 49 43 27 22 19 22 18 19 17 21 16 20 15 9 12 10 4 8 6 9 7 6 4 3 5 11 10 11 14
53 54 52 51 51 51 48 44 43 45 44 41 36 38 39 32 41 49 42 44 30 35 26 22 17 22 18 20 17 23 21 15 14 9 6 7 6 7 13 8 6 2 8 12 16 20 23
53 52 52 52 52 52 50 46 45 47 46 40 42 38 40 47 48 38 39 30 33 24 27 25 26 23 20 23 24 15 23 20 16 11 13 7 9 10 9 2 5 7 10 12 11 12 4
54 54 54 53 53 53 51 49 50 51 51 45 47 42 48 46 55 45 34 27 33 28 28 35 31 27 24 23 22 17 22 15 16 12 10 6 8 11 12 10 5 5 11 7 5 6 4
55 55 53 54 56 56 56 55 55 52 50 51 55 47 45 42 37 55 36 39 35 35 34 38 31 29 27 25 26 22 20 17 10 12 10 11 6 5 12 15 11 15 10 1 1 7 11
52 52 54 57 59 59 61 60 61 61 58 65 61 51 37 41 39 42 49 41 34 29 24 27 31 25 28 23 16 10 16 14 10 11 11 9 4 4 6 5 6 11 15 10 6 4 1
46 51 55 58 60 63 69 73 75 77 78 73 65 54 50 42 45 53 37 36 32 34 28 24 25 27 23 27 22 16 18 17 18 15 12 11 9 5 7 4 5 5 9 8 7 4 4
43 49 53 55 59 60 67 70 76 79 79 79 73 64 57 42 37 36 36 39 33 30 21 23 24 25 26 23 16 7 8 9 15 14 15 14 11 5 7 10 4 7 14 12 8 7 7
33 41 36 38 38 34 44 57 68 83 80 78 78 65 50 41 41 35 38 39 33 30 24 31 30 30 23 18 13 12 10 11 10 9 14 14 12 10 7 8 4 8 15 17 12 9 9
11 29 17 15 15 21 28 43 53 64 90 81 78 65 51 41 27 41 44 46 40 34 26 30 29 27 25 17 15 11 13 11 11 13 14 13 12 17 15 13 3 8 11 15 10 7 13
25 23 6 11 22 24 39 49 52 75 85 75 69 66 61 40 34 43 47 47 37 33 32 32 30 27 25 16 16 12 9 12 8 8 12 13 10 10 11 11 13 10 10 14 11 10 12
31 26 14 21 29 37 47 59 67 73 72 69 65 63 53 42 42 45 40 38 29 29 30 28 27 25 21 15 12 10 9 10 12 11 11 9 10 7 7 7 9 9 15 23 12 12 13

GFSGBSN_700_spd_129.txt.gz
Wind_Speed
36 35 34 35 31 30 27 25 28 28 19 20 21 22 21 20 19 17 18 17 16 14 15 17 17 15 14 12 14 11 13 16 16 16 15 13 12 16 13 13 13 20 21 22 19 22 26
39 40 34 36 33 31 26 30 29 32 33 28 23 21 25 23 21 18 18 17 17 17 18 18 19 19 17 19 17 14 15 17 18 18 12 14 15 15 17 16 16 15 15 21 23 24 12
42 42 40 38 38 35 36 29 31 29 25 24 19 22 29 24 24 21 20 19 18 20 21 21 21 22 21 22 21 22 18 18 15 11 17 21 23 19 20 17 13 16 20 18 7 1 8
40 40 37 37 36 34 32 32 33 30 27 26 26 24 26 29 27 26 24 22 22 23 22 24 24 27 25 25 20 19 17 13 13 21 20 21 19 17 16 15 15 18 16 11 5 8 8
39 37 37 36 33 33 32 30 30 32 29 25 28 28 27 30 28 27 29 25 25 26 27 26 26 29 30 21 18 16 17 22 24 26 23 19 17 15 14 14 11 4 11 10 11 14 9
40 39 38 36 35 34 34 34 33 32 32 30 30 30 26 32 26 29 31 28 28 24 29 28 28 25 13 17 27 25 24 24 28 26 25 18 14 13 11 6 8 9 10 21 18 20 20
38 38 36 35 35 35 35 35 34 35 35 34 35 32 36 37 33 28 32 29 24 29 29 26 22 28 24 23 32 30 28 34 29 29 22 12 18 16 8 11 25 26 23 22 25 19 16
36 34 34 34 34 34 34 35 36 37 36 36 36 39 37 33 29 34 23 25 27 31 38 27 30 30 25 22 34 35 32 35 27 27 14 14 23 11 16 16 22 23 22 27 19 14 20
34 34 34 33 33 32 33 33 34 34 34 35 37 37 39 37 37 39 33 28 23 26 35 47 36 39 35 29 33 34 27 31 27 22 19 23 22 15 16 18 21 23 19 23 26 22 22
35 34 34 32 32 32 31 31 30 30 29 29 31 33 32 32 35 33 28 19 18 25 29 42 23 17 14 15 24 20 18 24 27 22 15 20 19 24 25 29 23 23 16 22 22 19 13
34 33 32 31 30 29 28 28 28 27 26 26 25 24 24 25 29 26 25 23 24 22 5 8 11 15 14 12 18 17 13 21 25 22 16 25 10 10 24 26 22 23 22 24 26 27 27
34 33 32 31 30 29 29 28 27 26 26 25 23 22 23 24 28 25 24 18 8 4 9 4 14 16 17 17 17 16 16 19 21 24 21 32 23 23 19 18 19 17 21 22 21 26 9
35 35 34 33 31 31 30 29 28 27 26 25 23 21 22 24 24 22 16 10 6 10 4 3 13 16 15 14 14 16 17 16 11 6 9 17 23 19 26 25 24 19 15 7 4 3 5
39 38 37 35 33 32 31 30 28 28 27 25 22 22 22 21 20 19 15 12 13 7 16 10 10 16 16 15 14 15 15 23 17 14 20 17 18 13 18 24 24 16 18 10 4 1 6
41 40 39 37 36 35 34 33 31 30 30 28 26 24 22 21 20 19 18 19 15 16 16 16 17 17 24 20 18 10 16 23 21 16 26 10 12 7 1 18 17 4 9 14 14 18 9
44 43 41 39 37 37 36 35 34 33 32 31 29 27 26 24 21 22 21 30 30 28 28 19 14 9 10 11 18 18 14 7 16 16 16 18 19 22 17 13 15 21 16 10 6 2 4
46 45 43 41 40 39 38 37 35 35 34 32 30 30 28 27 25 23 31 37 35 33 28 23 16 21 18 14 16 20 14 13 4 8 16 16 19 27 13 19 19 17 24 18 13 10 3
47 47 46 44 42 41 40 38 37 36 36 35 32 31 30 30 28 34 38 39 33 29 16 21 23 22 19 21 30 25 27 23 18 12 18 18 18 18 20 17 11 9 11 18 8 3 5
49 47 47 47 46 44 42 40 38 38 38 37 34 33 30 29 32 38 39 39 35 36 33 28 16 18 24 25 22 27 35 34 30 20 13 15 10 9 12 8 15 7 7 10 10 11 16
50 48 48 47 48 47 45 43 40 38 38 34 32 29 28 32 37 37 36 40 37 36 33 28 21 23 24 25 23 20 21 20 21 20 23 21 21 15 8 9 14 14 8 8 9 6 10
48 48 49 49 47 47 46 45 40 38 34 32 35 33 40 35 43 42 32 39 37 37 34 23 26 24 25 23 25 33 27 20 25 28 26 26 29 30 27 24 22 28 21 17 15 17 11
46 44 44 46 47 48 48 45 43 39 35 37 39 39 40 42 40 34 32 40 41 27 25 30 31 28 33 31 29 20 25 28 30 27 30 30 29 21 25 21 22 23 23 23 22 21 16
45 46 46 43 44 48 49 47 45 42 43 45 43 43 30 31 40 37 45 43 39 27 29 23 22 24 25 30 24 28 26 24 21 21 20 25 22 16 13 10 18 13 21 21 26 21 16
52 51 51 51 47 47 48 48 47 46 50 50 47 45 47 41 29 38 38 36 32 28 32 26 24 26 29 27 28 30 27 29 21 22 18 20 24 16 12 14 4 6 6 10 15 17 21
55 55 55 54 51 47 46 49 48 49 50 53 51 51 47 45 44 34 28 27 21 23 34 28 26 28 27 30 30 26 22 19 22 23 25 21 17 10 6 9 17 20 10 4 12 14 20
54 55 55 55 54 51 49 47 49 51 52 51 50 47 49 48 49 41 27 24 27 24 20 27 31 31 33 27 25 13 10 12 9 12 25 30 22 18 10 6 3 5 11 14 17 15 16
49 52 52 54 56 56 54 50 51 52 52 52 51 49 48 49 46 33 39 37 30 28 23 33 34 31 27 31 25 12 16 13 8 15 13 29 25 27 23 14 9 10 10 13 10 6 13
44 48 51 54 57 57 56 55 54 54 55 55 52 50 53 49 42 44 33 35 30 33 34 31 30 31 28 26 22 14 14 17 22 21 19 24 20 20 25 11 12 19 10 11 12 14 16
40 42 44 46 47 50 54 57 57 58 57 56 55 52 47 49 32 36 40 44 44 33 38 37 34 34 31 28 17 17 14 12 16 10 11 14 18 14 15 11 10 5 8 13 17 18 16

GFSGBSN_700_spd_132.txt.gz
Wind_Speed
37 38 31 33 34 32 29 29 26 25 22 22 18 16 15 16 20 18 18 18 18 18 17 17 14 13 11 12 11 12 12 14 13 13 12 9 10 13 13 11 14 19 20 21 22 23 25
38 37 35 36 31 30 26 27 26 22 26 26 26 24 9 16 19 18 18 19 17 17 17 18 17 17 15 16 14 13 15 15 15 12 9 16 16 16 19 15 17 19 21 22 22 19 21
39 39 36 36 35 35 33 32 30 30 33 28 24 20 23 22 24 20 19 22 21 20 20 20 20 19 17 19 19 17 13 12 9 8 18 19 21 21 20 16 16 18 21 16 13 6 5
41 44 39 36 34 36 36 37 33 32 29 32 28 21 23 26 22 20 22 25 25 22 25 24 24 25 22 25 19 13 10 9 15 17 19 21 20 19 19 16 17 20 20 15 2 4 4
36 35 39 37 35 34 33 32 31 31 30 31 29 24 25 25 24 24 23 22 26 26 25 26 27 24 25 16 14 12 14 17 17 21 23 23 22 18 19 18 15 11 8 10 8 9 9
39 35 36 37 34 33 33 31 30 31 29 29 28 27 28 27 26 27 25 25 25 28 27 30 32 26 13 13 25 22 20 23 24 25 23 23 22 17 16 16 7 5 16 17 19 19 17
41 41 38 36 34 34 34 32 33 33 30 28 31 31 31 29 28 31 30 28 29 28 32 33 29 30 26 24 30 25 23 30 29 29 25 21 22 17 11 11 14 16 20 25 26 23 28
36 36 36 35 33 34 33 33 34 33 33 33 34 34 34 32 27 29 29 25 28 32 38 31 31 35 29 20 34 30 29 31 31 29 24 24 28 23 12 12 17 18 22 26 30 26 19
34 34 33 33 32 32 32 33 32 31 32 32 34 33 35 36 35 34 36 35 36 36 38 44 39 37 28 25 32 28 25 26 28 27 23 25 28 21 19 19 20 20 22 28 27 25 22
35 34 32 32 32 32 32 32 30 29 29 29 29 31 32 33 33 33 31 30 28 28 27 31 18 11 7 4 12 10 11 16 26 24 19 19 11 10 11 22 20 30 29 26 23 25 16
36 34 33 33 33 33 32 31 31 30 27 26 25 25 26 28 28 26 25 21 21 17 3 6 5 4 6 9 12 15 15 17 19 22 20 24 22 15 15 13 13 24 21 18 20 25 29
36 35 34 33 33 32 31 31 30 28 26 25 23 23 23 24 23 22 19 16 13 7 8 3 6 11 10 8 11 16 16 14 16 20 23 28 20 24 21 19 18 17 20 23 26 24 9
35 33 33 32 31 30 30 29 29 26 25 24 22 22 23 23 22 20 18 13 8 8 5 4 4 6 10 10 12 10 13 16 13 12 15 17 18 18 18 19 21 21 19 6 4 2 5
34 34 33 33 33 31 30 30 29 28 27 25 24 25 23 21 21 20 18 16 12 7 18 11 10 7 9 11 15 9 13 14 16 16 20 17 20 3 11 15 20 22 15 6 5 3 4
37 37 37 36 35 34 32 31 30 29 28 25 24 22 23 22 22 20 20 20 12 19 12 16 20 21 19 11 16 17 13 14 13 13 16 10 15 3 6 12 12 15 20 18 26 26 8
40 39 39 38 37 36 34 34 32 31 30 27 25 25 24 23 22 23 27 24 19 18 13 18 15 10 8 10 9 10 14 4 5 13 18 24 26 23 26 21 18 19 16 9 5 1 4
43 42 41 40 38 37 36 36 34 34 33 29 28 27 27 25 24 26 31 33 29 25 22 24 24 23 22 16 13 10 7 11 15 16 15 16 18 25 25 25 19 18 16 19 17 12 3
40 41 41 41 40 38 37 37 35 34 33 31 30 28 27 26 27 33 36 32 29 26 19 21 23 22 24 21 25 26 24 16 17 21 22 22 14 25 29 29 22 9 13 14 16 7 8
37 40 41 41 41 40 39 37 36 34 35 33 31 31 26 29 33 36 34 33 32 30 24 20 20 17 16 21 18 21 27 28 30 30 26 28 20 12 13 3 2 8 8 5 8 12 11
43 39 38 39 41 43 42 40 38 36 34 33 32 30 31 34 36 36 35 35 36 34 30 28 33 28 24 19 21 19 21 23 19 22 28 26 22 19 14 15 21 28 24 20 14 10 9
45 42 38 37 39 41 44 43 41 38 34 31 37 36 39 34 42 39 35 36 37 34 32 29 30 25 23 26 25 28 25 29 30 27 23 20 25 25 26 28 32 33 35 30 26 27 14
42 44 41 41 37 37 43 42 42 40 33 37 42 43 39 41 38 31 36 40 38 32 30 30 30 21 19 32 27 26 25 23 29 25 26 28 32 31 40 37 32 31 26 27 30 25 25
46 46 45 42 41 40 38 43 42 41 39 44 42 40 37 34 38 37 41 38 34 28 33 31 23 22 22 29 31 28 31 28 23 18 21 24 26 26 27 22 17 20 22 22 26 25 23
44 44 47 46 43 44 41 40 41 41 45 47 45 44 40 36 38 42 38 33 32 29 30 21 20 20 19 18 22 25 26 28 30 29 23 22 21 24 18 15 5 17 9 9 10 14 19
45 46 47 47 48 48 46 43 42 44 50 50 48 46 45 42 38 34 30 29 23 14 18 20 19 21 19 21 21 22 26 29 37 40 35 30 22 19 13 12 14 23 27 17 10 12 13
45 43 43 49 50 47 49 47 45 45 52 52 51 41 45 45 49 38 31 23 18 14 12 12 13 23 22 22 22 19 14 18 9 8 21 26 31 25 7 4 3 5 8 10 9 14 12
42 42 44 48 54 47 52 48 49 44 50 57 53 53 37 47 46 37 42 39 23 15 16 14 15 25 27 28 26 25 23 17 10 9 9 25 26 33 24 11 15 16 15 11 9 12 12
41 41 41 46 53 57 54 50 48 46 44 59 54 57 52 40 45 46 43 27 24 33 27 22 21 25 28 26 23 14 16 21 24 19 12 19 22 26 25 12 14 22 18 17 13 13 15
40 41 44 45 48 54 54 52 49 48 44 52 57 55 59 53 36 41 36 32 29 24 32 30 31 28 21 25 31 16 13 14 25 22 19 25 23 19 16 13 15 10 7 7 11 17 16